<?xml version="1.0" encoding="UTF-8" standalone="no" ?>
<gpx xmlns="http://www.topografix.com/GPX/1/1" xmlns:xsi="http://www.w3.org/2001/XMLSchema-instance" xsi:schemaLocation="http://www.topografix.com/GPX/1/1 http://www.topografix.com/GPX/1/1/gpx.xsd" version="1.1" creator="VisuGPX - https://www.visugpx.com">
  <metadata>
    <name>circulaire Puttelange</name>
    <desc><![CDATA[à effectuer de préférence par temps sec.]]></desc>
  </metadata>
  <trk>
    <name><![CDATA[2013-04-24- Puttelange]]></name>
    <trkseg>
      <trkpt lat="49.05841" lon="6.93736">
        <ele>240.4</ele>
        <time>2013-04-24T06:32:48Z</time>
      </trkpt>
      <trkpt lat="49.05841" lon="6.93736">
        <ele>240.5</ele>
        <time>2013-04-24T06:32:49Z</time>
      </trkpt>
      <trkpt lat="49.05844" lon="6.93735">
        <ele>240.5</ele>
        <time>2013-04-24T06:32:58Z</time>
      </trkpt>
      <trkpt lat="49.05845" lon="6.93734">
        <ele>240.7</ele>
        <time>2013-04-24T06:33:03Z</time>
      </trkpt>
      <trkpt lat="49.05846" lon="6.93731">
        <ele>240.1</ele>
        <time>2013-04-24T06:33:08Z</time>
      </trkpt>
      <trkpt lat="49.05847" lon="6.93728">
        <ele>239.9</ele>
        <time>2013-04-24T06:33:13Z</time>
      </trkpt>
      <trkpt lat="49.05848" lon="6.93725">
        <ele>239.6</ele>
        <time>2013-04-24T06:33:18Z</time>
      </trkpt>
      <trkpt lat="49.05848" lon="6.93722">
        <ele>240.1</ele>
        <time>2013-04-24T06:33:23Z</time>
      </trkpt>
      <trkpt lat="49.05848" lon="6.93719">
        <ele>239.8</ele>
        <time>2013-04-24T06:33:28Z</time>
      </trkpt>
      <trkpt lat="49.05848" lon="6.93716">
        <ele>239.7</ele>
        <time>2013-04-24T06:33:33Z</time>
      </trkpt>
      <trkpt lat="49.05848" lon="6.93711">
        <ele>239.1</ele>
        <time>2013-04-24T06:33:38Z</time>
      </trkpt>
      <trkpt lat="49.05849" lon="6.93706">
        <ele>239.3</ele>
        <time>2013-04-24T06:33:43Z</time>
      </trkpt>
      <trkpt lat="49.0585" lon="6.93702">
        <ele>238.7</ele>
        <time>2013-04-24T06:33:48Z</time>
      </trkpt>
      <trkpt lat="49.05852" lon="6.93699">
        <ele>239.5</ele>
        <time>2013-04-24T06:33:53Z</time>
      </trkpt>
      <trkpt lat="49.05853" lon="6.93698">
        <ele>239.6</ele>
        <time>2013-04-24T06:33:54Z</time>
      </trkpt>
      <trkpt lat="49.05857" lon="6.93693">
        <ele>239</ele>
        <time>2013-04-24T06:34:03Z</time>
      </trkpt>
      <trkpt lat="49.05861" lon="6.93687">
        <ele>239</ele>
        <time>2013-04-24T06:34:08Z</time>
      </trkpt>
      <trkpt lat="49.05865" lon="6.93682">
        <ele>239.3</ele>
        <time>2013-04-24T06:34:13Z</time>
      </trkpt>
      <trkpt lat="49.05868" lon="6.9368">
        <ele>239.5</ele>
        <time>2013-04-24T06:34:18Z</time>
      </trkpt>
      <trkpt lat="49.05869" lon="6.93679">
        <ele>240</ele>
        <time>2013-04-24T06:34:23Z</time>
      </trkpt>
      <trkpt lat="49.05871" lon="6.93678">
        <ele>238.8</ele>
        <time>2013-04-24T06:34:28Z</time>
      </trkpt>
      <trkpt lat="49.05874" lon="6.93674">
        <ele>239.6</ele>
        <time>2013-04-24T06:34:33Z</time>
      </trkpt>
      <trkpt lat="49.05879" lon="6.93671">
        <ele>240</ele>
        <time>2013-04-24T06:34:38Z</time>
      </trkpt>
      <trkpt lat="49.05882" lon="6.93671">
        <ele>240.7</ele>
        <time>2013-04-24T06:34:43Z</time>
      </trkpt>
      <trkpt lat="49.05886" lon="6.93675">
        <ele>241.9</ele>
        <time>2013-04-24T06:34:48Z</time>
      </trkpt>
      <trkpt lat="49.05891" lon="6.93677">
        <ele>240.7</ele>
        <time>2013-04-24T06:34:53Z</time>
      </trkpt>
      <trkpt lat="49.05896" lon="6.93681">
        <ele>241.8</ele>
        <time>2013-04-24T06:34:58Z</time>
      </trkpt>
      <trkpt lat="49.05897" lon="6.93682">
        <ele>241.9</ele>
        <time>2013-04-24T06:34:59Z</time>
      </trkpt>
      <trkpt lat="49.05905" lon="6.93692">
        <ele>243.2</ele>
        <time>2013-04-24T06:35:08Z</time>
      </trkpt>
      <trkpt lat="49.05909" lon="6.93699">
        <ele>243.7</ele>
        <time>2013-04-24T06:35:13Z</time>
      </trkpt>
      <trkpt lat="49.05913" lon="6.93706">
        <ele>244.1</ele>
        <time>2013-04-24T06:35:18Z</time>
      </trkpt>
      <trkpt lat="49.05918" lon="6.93713">
        <ele>244.4</ele>
        <time>2013-04-24T06:35:23Z</time>
      </trkpt>
      <trkpt lat="49.05923" lon="6.93719">
        <ele>244.7</ele>
        <time>2013-04-24T06:35:28Z</time>
      </trkpt>
      <trkpt lat="49.05928" lon="6.93725">
        <ele>246.1</ele>
        <time>2013-04-24T06:35:33Z</time>
      </trkpt>
      <trkpt lat="49.05931" lon="6.93732">
        <ele>245.8</ele>
        <time>2013-04-24T06:35:38Z</time>
      </trkpt>
      <trkpt lat="49.05935" lon="6.93738">
        <ele>246.4</ele>
        <time>2013-04-24T06:35:43Z</time>
      </trkpt>
      <trkpt lat="49.05939" lon="6.93744">
        <ele>246.9</ele>
        <time>2013-04-24T06:35:48Z</time>
      </trkpt>
      <trkpt lat="49.05943" lon="6.93748">
        <ele>247.7</ele>
        <time>2013-04-24T06:35:53Z</time>
      </trkpt>
      <trkpt lat="49.05946" lon="6.93752">
        <ele>247.5</ele>
        <time>2013-04-24T06:35:58Z</time>
      </trkpt>
      <trkpt lat="49.05949" lon="6.93758">
        <ele>248</ele>
        <time>2013-04-24T06:36:03Z</time>
      </trkpt>
      <trkpt lat="49.0595" lon="6.93759">
        <ele>248.1</ele>
        <time>2013-04-24T06:36:04Z</time>
      </trkpt>
      <trkpt lat="49.05958" lon="6.93771">
        <ele>249.3</ele>
        <time>2013-04-24T06:36:13Z</time>
      </trkpt>
      <trkpt lat="49.05962" lon="6.93778">
        <ele>249.2</ele>
        <time>2013-04-24T06:36:18Z</time>
      </trkpt>
      <trkpt lat="49.05966" lon="6.93785">
        <ele>250.2</ele>
        <time>2013-04-24T06:36:23Z</time>
      </trkpt>
      <trkpt lat="49.05971" lon="6.93791">
        <ele>250.5</ele>
        <time>2013-04-24T06:36:28Z</time>
      </trkpt>
      <trkpt lat="49.05976" lon="6.93798">
        <ele>250.8</ele>
        <time>2013-04-24T06:36:33Z</time>
      </trkpt>
      <trkpt lat="49.0598" lon="6.93805">
        <ele>251.1</ele>
        <time>2013-04-24T06:36:38Z</time>
      </trkpt>
      <trkpt lat="49.05985" lon="6.93811">
        <ele>251.1</ele>
        <time>2013-04-24T06:36:43Z</time>
      </trkpt>
      <trkpt lat="49.05989" lon="6.93816">
        <ele>252.6</ele>
        <time>2013-04-24T06:36:48Z</time>
      </trkpt>
      <trkpt lat="49.05993" lon="6.93822">
        <ele>252.8</ele>
        <time>2013-04-24T06:36:53Z</time>
      </trkpt>
      <trkpt lat="49.05997" lon="6.93829">
        <ele>253.3</ele>
        <time>2013-04-24T06:36:58Z</time>
      </trkpt>
      <trkpt lat="49.06002" lon="6.93835">
        <ele>253.7</ele>
        <time>2013-04-24T06:37:03Z</time>
      </trkpt>
      <trkpt lat="49.06007" lon="6.93842">
        <ele>254.9</ele>
        <time>2013-04-24T06:37:08Z</time>
      </trkpt>
      <trkpt lat="49.06007" lon="6.93844">
        <ele>255.1</ele>
        <time>2013-04-24T06:37:09Z</time>
      </trkpt>
      <trkpt lat="49.06016" lon="6.93856">
        <ele>254.9</ele>
        <time>2013-04-24T06:37:18Z</time>
      </trkpt>
      <trkpt lat="49.06021" lon="6.93862">
        <ele>255.3</ele>
        <time>2013-04-24T06:37:23Z</time>
      </trkpt>
      <trkpt lat="49.06026" lon="6.93869">
        <ele>255.9</ele>
        <time>2013-04-24T06:37:28Z</time>
      </trkpt>
      <trkpt lat="49.0603" lon="6.93877">
        <ele>256.2</ele>
        <time>2013-04-24T06:37:33Z</time>
      </trkpt>
      <trkpt lat="49.06035" lon="6.93883">
        <ele>257.3</ele>
        <time>2013-04-24T06:37:38Z</time>
      </trkpt>
      <trkpt lat="49.06039" lon="6.93889">
        <ele>257.7</ele>
        <time>2013-04-24T06:37:43Z</time>
      </trkpt>
      <trkpt lat="49.06043" lon="6.93896">
        <ele>257.4</ele>
        <time>2013-04-24T06:37:48Z</time>
      </trkpt>
      <trkpt lat="49.06048" lon="6.93904">
        <ele>257.5</ele>
        <time>2013-04-24T06:37:53Z</time>
      </trkpt>
      <trkpt lat="49.06052" lon="6.93911">
        <ele>258.4</ele>
        <time>2013-04-24T06:37:58Z</time>
      </trkpt>
      <trkpt lat="49.06057" lon="6.93918">
        <ele>258.7</ele>
        <time>2013-04-24T06:38:03Z</time>
      </trkpt>
      <trkpt lat="49.06061" lon="6.93925">
        <ele>259</ele>
        <time>2013-04-24T06:38:08Z</time>
      </trkpt>
      <trkpt lat="49.06065" lon="6.93933">
        <ele>259.6</ele>
        <time>2013-04-24T06:38:13Z</time>
      </trkpt>
      <trkpt lat="49.06066" lon="6.93934">
        <ele>259.7</ele>
        <time>2013-04-24T06:38:14Z</time>
      </trkpt>
      <trkpt lat="49.06074" lon="6.93946">
        <ele>260.7</ele>
        <time>2013-04-24T06:38:23Z</time>
      </trkpt>
      <trkpt lat="49.06078" lon="6.93953">
        <ele>260.9</ele>
        <time>2013-04-24T06:38:28Z</time>
      </trkpt>
      <trkpt lat="49.06082" lon="6.9396">
        <ele>261.3</ele>
        <time>2013-04-24T06:38:33Z</time>
      </trkpt>
      <trkpt lat="49.06086" lon="6.93968">
        <ele>260.6</ele>
        <time>2013-04-24T06:38:38Z</time>
      </trkpt>
      <trkpt lat="49.0609" lon="6.93976">
        <ele>261.5</ele>
        <time>2013-04-24T06:38:43Z</time>
      </trkpt>
      <trkpt lat="49.06094" lon="6.93984">
        <ele>261.4</ele>
        <time>2013-04-24T06:38:48Z</time>
      </trkpt>
      <trkpt lat="49.06098" lon="6.93991">
        <ele>261.6</ele>
        <time>2013-04-24T06:38:53Z</time>
      </trkpt>
      <trkpt lat="49.06102" lon="6.93999">
        <ele>262.1</ele>
        <time>2013-04-24T06:38:58Z</time>
      </trkpt>
      <trkpt lat="49.06105" lon="6.94008">
        <ele>262.3</ele>
        <time>2013-04-24T06:39:03Z</time>
      </trkpt>
      <trkpt lat="49.06108" lon="6.94016">
        <ele>262.1</ele>
        <time>2013-04-24T06:39:08Z</time>
      </trkpt>
      <trkpt lat="49.06109" lon="6.94019">
        <ele>262.3</ele>
        <time>2013-04-24T06:39:13Z</time>
      </trkpt>
      <trkpt lat="49.0611" lon="6.94027">
        <ele>262.3</ele>
        <time>2013-04-24T06:39:18Z</time>
      </trkpt>
      <trkpt lat="49.06111" lon="6.94028">
        <ele>262.5</ele>
        <time>2013-04-24T06:39:19Z</time>
      </trkpt>
      <trkpt lat="49.06116" lon="6.94044">
        <ele>262.9</ele>
        <time>2013-04-24T06:39:28Z</time>
      </trkpt>
      <trkpt lat="49.06118" lon="6.94052">
        <ele>262.9</ele>
        <time>2013-04-24T06:39:33Z</time>
      </trkpt>
      <trkpt lat="49.06121" lon="6.9406">
        <ele>262.4</ele>
        <time>2013-04-24T06:39:38Z</time>
      </trkpt>
      <trkpt lat="49.06124" lon="6.94067">
        <ele>262.1</ele>
        <time>2013-04-24T06:39:43Z</time>
      </trkpt>
      <trkpt lat="49.06127" lon="6.94075">
        <ele>261.8</ele>
        <time>2013-04-24T06:39:48Z</time>
      </trkpt>
      <trkpt lat="49.0613" lon="6.94082">
        <ele>262.4</ele>
        <time>2013-04-24T06:39:53Z</time>
      </trkpt>
      <trkpt lat="49.06134" lon="6.94089">
        <ele>262.6</ele>
        <time>2013-04-24T06:39:58Z</time>
      </trkpt>
      <trkpt lat="49.06139" lon="6.94092">
        <ele>262.1</ele>
        <time>2013-04-24T06:40:03Z</time>
      </trkpt>
      <trkpt lat="49.06145" lon="6.94093">
        <ele>262</ele>
        <time>2013-04-24T06:40:08Z</time>
      </trkpt>
      <trkpt lat="49.0615" lon="6.94094">
        <ele>261.6</ele>
        <time>2013-04-24T06:40:13Z</time>
      </trkpt>
      <trkpt lat="49.06156" lon="6.94095">
        <ele>261.8</ele>
        <time>2013-04-24T06:40:18Z</time>
      </trkpt>
      <trkpt lat="49.06161" lon="6.94096">
        <ele>262.1</ele>
        <time>2013-04-24T06:40:23Z</time>
      </trkpt>
      <trkpt lat="49.06163" lon="6.94096">
        <ele>261.8</ele>
        <time>2013-04-24T06:40:24Z</time>
      </trkpt>
      <trkpt lat="49.06173" lon="6.94097">
        <ele>261</ele>
        <time>2013-04-24T06:40:33Z</time>
      </trkpt>
      <trkpt lat="49.06178" lon="6.94098">
        <ele>261.4</ele>
        <time>2013-04-24T06:40:38Z</time>
      </trkpt>
      <trkpt lat="49.06183" lon="6.94098">
        <ele>261.4</ele>
        <time>2013-04-24T06:40:43Z</time>
      </trkpt>
      <trkpt lat="49.06188" lon="6.94099">
        <ele>261.2</ele>
        <time>2013-04-24T06:40:48Z</time>
      </trkpt>
      <trkpt lat="49.06193" lon="6.941">
        <ele>262.1</ele>
        <time>2013-04-24T06:40:53Z</time>
      </trkpt>
      <trkpt lat="49.06197" lon="6.94101">
        <ele>262.4</ele>
        <time>2013-04-24T06:40:58Z</time>
      </trkpt>
      <trkpt lat="49.06202" lon="6.94101">
        <ele>261.7</ele>
        <time>2013-04-24T06:41:03Z</time>
      </trkpt>
      <trkpt lat="49.06206" lon="6.94101">
        <ele>261.5</ele>
        <time>2013-04-24T06:41:08Z</time>
      </trkpt>
      <trkpt lat="49.06212" lon="6.94104">
        <ele>261.2</ele>
        <time>2013-04-24T06:41:13Z</time>
      </trkpt>
      <trkpt lat="49.06217" lon="6.94103">
        <ele>261.2</ele>
        <time>2013-04-24T06:41:18Z</time>
      </trkpt>
      <trkpt lat="49.06222" lon="6.94102">
        <ele>261.2</ele>
        <time>2013-04-24T06:41:23Z</time>
      </trkpt>
      <trkpt lat="49.06228" lon="6.94103">
        <ele>261.1</ele>
        <time>2013-04-24T06:41:28Z</time>
      </trkpt>
      <trkpt lat="49.0623" lon="6.94103">
        <ele>261.1</ele>
        <time>2013-04-24T06:41:29Z</time>
      </trkpt>
      <trkpt lat="49.06239" lon="6.94102">
        <ele>261.4</ele>
        <time>2013-04-24T06:41:38Z</time>
      </trkpt>
      <trkpt lat="49.06247" lon="6.94103">
        <ele>261.4</ele>
        <time>2013-04-24T06:41:43Z</time>
      </trkpt>
      <trkpt lat="49.06256" lon="6.94105">
        <ele>260.9</ele>
        <time>2013-04-24T06:41:48Z</time>
      </trkpt>
      <trkpt lat="49.06265" lon="6.94105">
        <ele>260.1</ele>
        <time>2013-04-24T06:41:53Z</time>
      </trkpt>
      <trkpt lat="49.06272" lon="6.941">
        <ele>261</ele>
        <time>2013-04-24T06:41:58Z</time>
      </trkpt>
      <trkpt lat="49.06278" lon="6.94094">
        <ele>261.4</ele>
        <time>2013-04-24T06:42:03Z</time>
      </trkpt>
      <trkpt lat="49.06283" lon="6.94087">
        <ele>261.5</ele>
        <time>2013-04-24T06:42:08Z</time>
      </trkpt>
      <trkpt lat="49.06287" lon="6.9408">
        <ele>262.2</ele>
        <time>2013-04-24T06:42:13Z</time>
      </trkpt>
      <trkpt lat="49.06292" lon="6.94073">
        <ele>262.9</ele>
        <time>2013-04-24T06:42:18Z</time>
      </trkpt>
      <trkpt lat="49.06296" lon="6.94066">
        <ele>263.7</ele>
        <time>2013-04-24T06:42:23Z</time>
      </trkpt>
      <trkpt lat="49.063" lon="6.94059">
        <ele>263.1</ele>
        <time>2013-04-24T06:42:28Z</time>
      </trkpt>
      <trkpt lat="49.06304" lon="6.94051">
        <ele>263.6</ele>
        <time>2013-04-24T06:42:33Z</time>
      </trkpt>
      <trkpt lat="49.06305" lon="6.9405">
        <ele>263.5</ele>
        <time>2013-04-24T06:42:34Z</time>
      </trkpt>
      <trkpt lat="49.06313" lon="6.94036">
        <ele>264.5</ele>
        <time>2013-04-24T06:42:43Z</time>
      </trkpt>
      <trkpt lat="49.06317" lon="6.94028">
        <ele>264.9</ele>
        <time>2013-04-24T06:42:48Z</time>
      </trkpt>
      <trkpt lat="49.06321" lon="6.9402">
        <ele>264.7</ele>
        <time>2013-04-24T06:42:53Z</time>
      </trkpt>
      <trkpt lat="49.06325" lon="6.94013">
        <ele>265.6</ele>
        <time>2013-04-24T06:42:58Z</time>
      </trkpt>
      <trkpt lat="49.06329" lon="6.94005">
        <ele>265.4</ele>
        <time>2013-04-24T06:43:03Z</time>
      </trkpt>
      <trkpt lat="49.06333" lon="6.93997">
        <ele>265.8</ele>
        <time>2013-04-24T06:43:08Z</time>
      </trkpt>
      <trkpt lat="49.06337" lon="6.9399">
        <ele>266.2</ele>
        <time>2013-04-24T06:43:13Z</time>
      </trkpt>
      <trkpt lat="49.06342" lon="6.93982">
        <ele>266.7</ele>
        <time>2013-04-24T06:43:18Z</time>
      </trkpt>
      <trkpt lat="49.06346" lon="6.93974">
        <ele>267.6</ele>
        <time>2013-04-24T06:43:23Z</time>
      </trkpt>
      <trkpt lat="49.06351" lon="6.93967">
        <ele>267.6</ele>
        <time>2013-04-24T06:43:28Z</time>
      </trkpt>
      <trkpt lat="49.06356" lon="6.93959">
        <ele>267.7</ele>
        <time>2013-04-24T06:43:33Z</time>
      </trkpt>
      <trkpt lat="49.06361" lon="6.93952">
        <ele>267.5</ele>
        <time>2013-04-24T06:43:38Z</time>
      </trkpt>
      <trkpt lat="49.06362" lon="6.93951">
        <ele>267.6</ele>
        <time>2013-04-24T06:43:39Z</time>
      </trkpt>
      <trkpt lat="49.06371" lon="6.93939">
        <ele>267.6</ele>
        <time>2013-04-24T06:43:48Z</time>
      </trkpt>
      <trkpt lat="49.06376" lon="6.93932">
        <ele>267</ele>
        <time>2013-04-24T06:43:53Z</time>
      </trkpt>
      <trkpt lat="49.06381" lon="6.93925">
        <ele>267</ele>
        <time>2013-04-24T06:43:58Z</time>
      </trkpt>
      <trkpt lat="49.06386" lon="6.93918">
        <ele>267.1</ele>
        <time>2013-04-24T06:44:03Z</time>
      </trkpt>
      <trkpt lat="49.06391" lon="6.93912">
        <ele>266.9</ele>
        <time>2013-04-24T06:44:08Z</time>
      </trkpt>
      <trkpt lat="49.06396" lon="6.93905">
        <ele>265.7</ele>
        <time>2013-04-24T06:44:13Z</time>
      </trkpt>
      <trkpt lat="49.06401" lon="6.93898">
        <ele>266.3</ele>
        <time>2013-04-24T06:44:18Z</time>
      </trkpt>
      <trkpt lat="49.06405" lon="6.9389">
        <ele>266.6</ele>
        <time>2013-04-24T06:44:23Z</time>
      </trkpt>
      <trkpt lat="49.0641" lon="6.93883">
        <ele>267.1</ele>
        <time>2013-04-24T06:44:28Z</time>
      </trkpt>
      <trkpt lat="49.06415" lon="6.93876">
        <ele>266.4</ele>
        <time>2013-04-24T06:44:33Z</time>
      </trkpt>
      <trkpt lat="49.0642" lon="6.93869">
        <ele>266.7</ele>
        <time>2013-04-24T06:44:38Z</time>
      </trkpt>
      <trkpt lat="49.06424" lon="6.93862">
        <ele>266.9</ele>
        <time>2013-04-24T06:44:43Z</time>
      </trkpt>
      <trkpt lat="49.06425" lon="6.9386">
        <ele>266.9</ele>
        <time>2013-04-24T06:44:44Z</time>
      </trkpt>
      <trkpt lat="49.06433" lon="6.93848">
        <ele>266.9</ele>
        <time>2013-04-24T06:44:53Z</time>
      </trkpt>
      <trkpt lat="49.06438" lon="6.93841">
        <ele>267.9</ele>
        <time>2013-04-24T06:44:58Z</time>
      </trkpt>
      <trkpt lat="49.06442" lon="6.93834">
        <ele>267.3</ele>
        <time>2013-04-24T06:45:03Z</time>
      </trkpt>
      <trkpt lat="49.06447" lon="6.93827">
        <ele>266.9</ele>
        <time>2013-04-24T06:45:08Z</time>
      </trkpt>
      <trkpt lat="49.06451" lon="6.9382">
        <ele>267.4</ele>
        <time>2013-04-24T06:45:13Z</time>
      </trkpt>
      <trkpt lat="49.06456" lon="6.93813">
        <ele>266.9</ele>
        <time>2013-04-24T06:45:18Z</time>
      </trkpt>
      <trkpt lat="49.0646" lon="6.93806">
        <ele>267.3</ele>
        <time>2013-04-24T06:45:23Z</time>
      </trkpt>
      <trkpt lat="49.06465" lon="6.93799">
        <ele>268.4</ele>
        <time>2013-04-24T06:45:28Z</time>
      </trkpt>
      <trkpt lat="49.06469" lon="6.93792">
        <ele>268.6</ele>
        <time>2013-04-24T06:45:33Z</time>
      </trkpt>
      <trkpt lat="49.06473" lon="6.93785">
        <ele>268.1</ele>
        <time>2013-04-24T06:45:38Z</time>
      </trkpt>
      <trkpt lat="49.06478" lon="6.93778">
        <ele>267.4</ele>
        <time>2013-04-24T06:45:43Z</time>
      </trkpt>
      <trkpt lat="49.06482" lon="6.93771">
        <ele>268.3</ele>
        <time>2013-04-24T06:45:48Z</time>
      </trkpt>
      <trkpt lat="49.06483" lon="6.93769">
        <ele>268.4</ele>
        <time>2013-04-24T06:45:49Z</time>
      </trkpt>
      <trkpt lat="49.06492" lon="6.93757">
        <ele>268</ele>
        <time>2013-04-24T06:45:58Z</time>
      </trkpt>
      <trkpt lat="49.06492" lon="6.93757">
        <ele>268</ele>
        <time>2013-04-24T06:45:58Z</time>
      </trkpt>
      <trkpt lat="49.06496" lon="6.9375">
        <ele>268.5</ele>
        <time>2013-04-24T06:46:03Z</time>
      </trkpt>
      <trkpt lat="49.06501" lon="6.93744">
        <ele>267.9</ele>
        <time>2013-04-24T06:46:08Z</time>
      </trkpt>
      <trkpt lat="49.06506" lon="6.93737">
        <ele>267.1</ele>
        <time>2013-04-24T06:46:13Z</time>
      </trkpt>
      <trkpt lat="49.06511" lon="6.93731">
        <ele>267.3</ele>
        <time>2013-04-24T06:46:18Z</time>
      </trkpt>
      <trkpt lat="49.06516" lon="6.93725">
        <ele>267.2</ele>
        <time>2013-04-24T06:46:23Z</time>
      </trkpt>
      <trkpt lat="49.06521" lon="6.93719">
        <ele>267.9</ele>
        <time>2013-04-24T06:46:28Z</time>
      </trkpt>
      <trkpt lat="49.06525" lon="6.93713">
        <ele>266.3</ele>
        <time>2013-04-24T06:46:33Z</time>
      </trkpt>
      <trkpt lat="49.0653" lon="6.93707">
        <ele>266.2</ele>
        <time>2013-04-24T06:46:38Z</time>
      </trkpt>
      <trkpt lat="49.06535" lon="6.937">
        <ele>265.4</ele>
        <time>2013-04-24T06:46:43Z</time>
      </trkpt>
      <trkpt lat="49.06539" lon="6.93693">
        <ele>265.3</ele>
        <time>2013-04-24T06:46:48Z</time>
      </trkpt>
      <trkpt lat="49.06543" lon="6.93686">
        <ele>264.8</ele>
        <time>2013-04-24T06:46:53Z</time>
      </trkpt>
      <trkpt lat="49.06544" lon="6.93684">
        <ele>264.5</ele>
        <time>2013-04-24T06:46:54Z</time>
      </trkpt>
      <trkpt lat="49.0655" lon="6.9367">
        <ele>263</ele>
        <time>2013-04-24T06:47:03Z</time>
      </trkpt>
      <trkpt lat="49.06553" lon="6.93661">
        <ele>261.9</ele>
        <time>2013-04-24T06:47:08Z</time>
      </trkpt>
      <trkpt lat="49.06556" lon="6.93653">
        <ele>261.5</ele>
        <time>2013-04-24T06:47:13Z</time>
      </trkpt>
      <trkpt lat="49.06559" lon="6.93646">
        <ele>261.4</ele>
        <time>2013-04-24T06:47:18Z</time>
      </trkpt>
      <trkpt lat="49.06563" lon="6.93638">
        <ele>260.2</ele>
        <time>2013-04-24T06:47:23Z</time>
      </trkpt>
      <trkpt lat="49.06565" lon="6.9363">
        <ele>259.4</ele>
        <time>2013-04-24T06:47:28Z</time>
      </trkpt>
      <trkpt lat="49.06568" lon="6.93622">
        <ele>258.9</ele>
        <time>2013-04-24T06:47:33Z</time>
      </trkpt>
      <trkpt lat="49.06571" lon="6.93615">
        <ele>258.4</ele>
        <time>2013-04-24T06:47:38Z</time>
      </trkpt>
      <trkpt lat="49.06573" lon="6.93607">
        <ele>257.7</ele>
        <time>2013-04-24T06:47:43Z</time>
      </trkpt>
      <trkpt lat="49.06576" lon="6.93599">
        <ele>257.1</ele>
        <time>2013-04-24T06:47:48Z</time>
      </trkpt>
      <trkpt lat="49.06578" lon="6.93591">
        <ele>256.3</ele>
        <time>2013-04-24T06:47:53Z</time>
      </trkpt>
      <trkpt lat="49.06581" lon="6.93583">
        <ele>256.6</ele>
        <time>2013-04-24T06:47:58Z</time>
      </trkpt>
      <trkpt lat="49.06581" lon="6.93582">
        <ele>256.3</ele>
        <time>2013-04-24T06:47:59Z</time>
      </trkpt>
      <trkpt lat="49.06588" lon="6.93568">
        <ele>255.3</ele>
        <time>2013-04-24T06:48:08Z</time>
      </trkpt>
      <trkpt lat="49.06591" lon="6.9356">
        <ele>255.1</ele>
        <time>2013-04-24T06:48:13Z</time>
      </trkpt>
      <trkpt lat="49.06595" lon="6.93552">
        <ele>255.7</ele>
        <time>2013-04-24T06:48:18Z</time>
      </trkpt>
      <trkpt lat="49.06599" lon="6.93544">
        <ele>255.8</ele>
        <time>2013-04-24T06:48:23Z</time>
      </trkpt>
      <trkpt lat="49.06603" lon="6.93537">
        <ele>255.7</ele>
        <time>2013-04-24T06:48:28Z</time>
      </trkpt>
      <trkpt lat="49.06607" lon="6.93529">
        <ele>255.8</ele>
        <time>2013-04-24T06:48:33Z</time>
      </trkpt>
      <trkpt lat="49.06611" lon="6.9352">
        <ele>255.3</ele>
        <time>2013-04-24T06:48:38Z</time>
      </trkpt>
      <trkpt lat="49.06615" lon="6.93512">
        <ele>256.6</ele>
        <time>2013-04-24T06:48:43Z</time>
      </trkpt>
      <trkpt lat="49.06619" lon="6.93504">
        <ele>256.7</ele>
        <time>2013-04-24T06:48:48Z</time>
      </trkpt>
      <trkpt lat="49.06623" lon="6.93496">
        <ele>256.6</ele>
        <time>2013-04-24T06:48:53Z</time>
      </trkpt>
      <trkpt lat="49.06627" lon="6.93488">
        <ele>257</ele>
        <time>2013-04-24T06:48:58Z</time>
      </trkpt>
      <trkpt lat="49.06631" lon="6.9348">
        <ele>257.4</ele>
        <time>2013-04-24T06:49:03Z</time>
      </trkpt>
      <trkpt lat="49.06631" lon="6.93479">
        <ele>257.5</ele>
        <time>2013-04-24T06:49:04Z</time>
      </trkpt>
      <trkpt lat="49.06639" lon="6.93463">
        <ele>258.1</ele>
        <time>2013-04-24T06:49:13Z</time>
      </trkpt>
      <trkpt lat="49.06643" lon="6.93455">
        <ele>258.5</ele>
        <time>2013-04-24T06:49:18Z</time>
      </trkpt>
      <trkpt lat="49.06646" lon="6.93448">
        <ele>258.4</ele>
        <time>2013-04-24T06:49:23Z</time>
      </trkpt>
      <trkpt lat="49.0665" lon="6.9344">
        <ele>259.2</ele>
        <time>2013-04-24T06:49:28Z</time>
      </trkpt>
      <trkpt lat="49.06654" lon="6.93432">
        <ele>259.8</ele>
        <time>2013-04-24T06:49:33Z</time>
      </trkpt>
      <trkpt lat="49.06658" lon="6.93431">
        <ele>260</ele>
        <time>2013-04-24T06:49:38Z</time>
      </trkpt>
      <trkpt lat="49.06661" lon="6.93432">
        <ele>260.2</ele>
        <time>2013-04-24T06:49:43Z</time>
      </trkpt>
      <trkpt lat="49.06663" lon="6.93432">
        <ele>260.7</ele>
        <time>2013-04-24T06:49:48Z</time>
      </trkpt>
      <trkpt lat="49.06665" lon="6.93432">
        <ele>260.3</ele>
        <time>2013-04-24T06:49:53Z</time>
      </trkpt>
      <trkpt lat="49.06666" lon="6.93432">
        <ele>259.8</ele>
        <time>2013-04-24T06:49:58Z</time>
      </trkpt>
      <trkpt lat="49.06666" lon="6.93431">
        <ele>260.4</ele>
        <time>2013-04-24T06:50:03Z</time>
      </trkpt>
      <trkpt lat="49.06668" lon="6.93429">
        <ele>260.3</ele>
        <time>2013-04-24T06:50:08Z</time>
      </trkpt>
      <trkpt lat="49.06668" lon="6.9343">
        <ele>260.3</ele>
        <time>2013-04-24T06:50:09Z</time>
      </trkpt>
      <trkpt lat="49.06671" lon="6.93438">
        <ele>260.4</ele>
        <time>2013-04-24T06:50:18Z</time>
      </trkpt>
      <trkpt lat="49.0667" lon="6.93439">
        <ele>260</ele>
        <time>2013-04-24T06:50:26Z</time>
      </trkpt>
      <trkpt lat="49.0667" lon="6.93438">
        <ele>260.3</ele>
        <time>2013-04-24T06:50:31Z</time>
      </trkpt>
      <trkpt lat="49.06669" lon="6.93438">
        <ele>260</ele>
        <time>2013-04-24T06:50:36Z</time>
      </trkpt>
      <trkpt lat="49.06669" lon="6.93438">
        <ele>259.8</ele>
        <time>2013-04-24T06:50:41Z</time>
      </trkpt>
      <trkpt lat="49.06669" lon="6.93438">
        <ele>260.4</ele>
        <time>2013-04-24T06:50:46Z</time>
      </trkpt>
      <trkpt lat="49.06671" lon="6.93437">
        <ele>259</ele>
        <time>2013-04-24T06:50:53Z</time>
      </trkpt>
      <trkpt lat="49.06679" lon="6.93447">
        <ele>260</ele>
        <time>2013-04-24T06:51:00Z</time>
      </trkpt>
      <trkpt lat="49.0671" lon="6.9348">
        <ele>260.3</ele>
        <time>2013-04-24T06:51:16Z</time>
      </trkpt>
      <trkpt lat="49.06703" lon="6.93479">
        <ele>261.7</ele>
        <time>2013-04-24T06:51:27Z</time>
      </trkpt>
      <trkpt lat="49.06708" lon="6.93474">
        <ele>262.2</ele>
        <time>2013-04-24T06:51:32Z</time>
      </trkpt>
      <trkpt lat="49.06712" lon="6.93464">
        <ele>262.2</ele>
        <time>2013-04-24T06:51:37Z</time>
      </trkpt>
      <trkpt lat="49.06715" lon="6.93454">
        <ele>262.5</ele>
        <time>2013-04-24T06:51:42Z</time>
      </trkpt>
      <trkpt lat="49.06717" lon="6.93444">
        <ele>262.9</ele>
        <time>2013-04-24T06:51:47Z</time>
      </trkpt>
      <trkpt lat="49.06719" lon="6.93435">
        <ele>262.9</ele>
        <time>2013-04-24T06:51:52Z</time>
      </trkpt>
      <trkpt lat="49.06722" lon="6.93426">
        <ele>263.8</ele>
        <time>2013-04-24T06:51:57Z</time>
      </trkpt>
      <trkpt lat="49.06724" lon="6.93417">
        <ele>264.2</ele>
        <time>2013-04-24T06:52:02Z</time>
      </trkpt>
      <trkpt lat="49.06726" lon="6.93408">
        <ele>264.7</ele>
        <time>2013-04-24T06:52:07Z</time>
      </trkpt>
      <trkpt lat="49.06729" lon="6.93401">
        <ele>264.5</ele>
        <time>2013-04-24T06:52:12Z</time>
      </trkpt>
      <trkpt lat="49.06731" lon="6.93393">
        <ele>265</ele>
        <time>2013-04-24T06:52:17Z</time>
      </trkpt>
      <trkpt lat="49.06732" lon="6.93391">
        <ele>265</ele>
        <time>2013-04-24T06:52:18Z</time>
      </trkpt>
      <trkpt lat="49.06737" lon="6.93377">
        <ele>265.6</ele>
        <time>2013-04-24T06:52:27Z</time>
      </trkpt>
      <trkpt lat="49.06739" lon="6.93369">
        <ele>264.9</ele>
        <time>2013-04-24T06:52:32Z</time>
      </trkpt>
      <trkpt lat="49.06742" lon="6.93362">
        <ele>265.9</ele>
        <time>2013-04-24T06:52:37Z</time>
      </trkpt>
      <trkpt lat="49.06745" lon="6.93355">
        <ele>266.9</ele>
        <time>2013-04-24T06:52:42Z</time>
      </trkpt>
      <trkpt lat="49.06748" lon="6.93346">
        <ele>267.9</ele>
        <time>2013-04-24T06:52:47Z</time>
      </trkpt>
      <trkpt lat="49.06752" lon="6.93338">
        <ele>267.9</ele>
        <time>2013-04-24T06:52:52Z</time>
      </trkpt>
      <trkpt lat="49.06755" lon="6.9333">
        <ele>268.3</ele>
        <time>2013-04-24T06:52:57Z</time>
      </trkpt>
      <trkpt lat="49.06758" lon="6.93322">
        <ele>267.8</ele>
        <time>2013-04-24T06:53:02Z</time>
      </trkpt>
      <trkpt lat="49.06761" lon="6.93314">
        <ele>267.9</ele>
        <time>2013-04-24T06:53:07Z</time>
      </trkpt>
      <trkpt lat="49.06764" lon="6.93305">
        <ele>268.8</ele>
        <time>2013-04-24T06:53:12Z</time>
      </trkpt>
      <trkpt lat="49.06768" lon="6.93297">
        <ele>268.8</ele>
        <time>2013-04-24T06:53:17Z</time>
      </trkpt>
      <trkpt lat="49.06771" lon="6.93289">
        <ele>268.2</ele>
        <time>2013-04-24T06:53:22Z</time>
      </trkpt>
      <trkpt lat="49.06772" lon="6.93287">
        <ele>268.5</ele>
        <time>2013-04-24T06:53:23Z</time>
      </trkpt>
      <trkpt lat="49.06777" lon="6.93272">
        <ele>269.5</ele>
        <time>2013-04-24T06:53:32Z</time>
      </trkpt>
      <trkpt lat="49.0678" lon="6.93263">
        <ele>270.4</ele>
        <time>2013-04-24T06:53:37Z</time>
      </trkpt>
      <trkpt lat="49.06783" lon="6.93255">
        <ele>270.2</ele>
        <time>2013-04-24T06:53:42Z</time>
      </trkpt>
      <trkpt lat="49.06786" lon="6.93246">
        <ele>270.4</ele>
        <time>2013-04-24T06:53:47Z</time>
      </trkpt>
      <trkpt lat="49.06789" lon="6.93238">
        <ele>270.9</ele>
        <time>2013-04-24T06:53:52Z</time>
      </trkpt>
      <trkpt lat="49.06792" lon="6.93229">
        <ele>270.7</ele>
        <time>2013-04-24T06:53:57Z</time>
      </trkpt>
      <trkpt lat="49.06794" lon="6.9322">
        <ele>270.5</ele>
        <time>2013-04-24T06:54:02Z</time>
      </trkpt>
      <trkpt lat="49.06797" lon="6.93212">
        <ele>270.5</ele>
        <time>2013-04-24T06:54:07Z</time>
      </trkpt>
      <trkpt lat="49.068" lon="6.93204">
        <ele>270.8</ele>
        <time>2013-04-24T06:54:12Z</time>
      </trkpt>
      <trkpt lat="49.06803" lon="6.93195">
        <ele>270.1</ele>
        <time>2013-04-24T06:54:17Z</time>
      </trkpt>
      <trkpt lat="49.06805" lon="6.93187">
        <ele>270.4</ele>
        <time>2013-04-24T06:54:22Z</time>
      </trkpt>
      <trkpt lat="49.06808" lon="6.93179">
        <ele>270.1</ele>
        <time>2013-04-24T06:54:27Z</time>
      </trkpt>
      <trkpt lat="49.06809" lon="6.93177">
        <ele>270.7</ele>
        <time>2013-04-24T06:54:28Z</time>
      </trkpt>
      <trkpt lat="49.06813" lon="6.93161">
        <ele>270.6</ele>
        <time>2013-04-24T06:54:37Z</time>
      </trkpt>
      <trkpt lat="49.06816" lon="6.93152">
        <ele>270.2</ele>
        <time>2013-04-24T06:54:42Z</time>
      </trkpt>
      <trkpt lat="49.06819" lon="6.93144">
        <ele>270.3</ele>
        <time>2013-04-24T06:54:47Z</time>
      </trkpt>
      <trkpt lat="49.06822" lon="6.93135">
        <ele>270.6</ele>
        <time>2013-04-24T06:54:52Z</time>
      </trkpt>
      <trkpt lat="49.06825" lon="6.93127">
        <ele>271.1</ele>
        <time>2013-04-24T06:54:57Z</time>
      </trkpt>
      <trkpt lat="49.06828" lon="6.93117">
        <ele>271.8</ele>
        <time>2013-04-24T06:55:02Z</time>
      </trkpt>
      <trkpt lat="49.0683" lon="6.93108">
        <ele>271.1</ele>
        <time>2013-04-24T06:55:07Z</time>
      </trkpt>
      <trkpt lat="49.06832" lon="6.93098">
        <ele>271.2</ele>
        <time>2013-04-24T06:55:12Z</time>
      </trkpt>
      <trkpt lat="49.06834" lon="6.93089">
        <ele>271</ele>
        <time>2013-04-24T06:55:17Z</time>
      </trkpt>
      <trkpt lat="49.06836" lon="6.9308">
        <ele>271.3</ele>
        <time>2013-04-24T06:55:22Z</time>
      </trkpt>
      <trkpt lat="49.06838" lon="6.93071">
        <ele>271.1</ele>
        <time>2013-04-24T06:55:27Z</time>
      </trkpt>
      <trkpt lat="49.0684" lon="6.93062">
        <ele>270.1</ele>
        <time>2013-04-24T06:55:32Z</time>
      </trkpt>
      <trkpt lat="49.0684" lon="6.93061">
        <ele>270</ele>
        <time>2013-04-24T06:55:33Z</time>
      </trkpt>
      <trkpt lat="49.06844" lon="6.93044">
        <ele>269.9</ele>
        <time>2013-04-24T06:55:42Z</time>
      </trkpt>
      <trkpt lat="49.06846" lon="6.93035">
        <ele>269.5</ele>
        <time>2013-04-24T06:55:47Z</time>
      </trkpt>
      <trkpt lat="49.06847" lon="6.93026">
        <ele>269.4</ele>
        <time>2013-04-24T06:55:52Z</time>
      </trkpt>
      <trkpt lat="49.06848" lon="6.93017">
        <ele>268.7</ele>
        <time>2013-04-24T06:55:57Z</time>
      </trkpt>
      <trkpt lat="49.0685" lon="6.93009">
        <ele>268.4</ele>
        <time>2013-04-24T06:56:02Z</time>
      </trkpt>
      <trkpt lat="49.06851" lon="6.93">
        <ele>267.5</ele>
        <time>2013-04-24T06:56:07Z</time>
      </trkpt>
      <trkpt lat="49.06852" lon="6.92992">
        <ele>266.4</ele>
        <time>2013-04-24T06:56:12Z</time>
      </trkpt>
      <trkpt lat="49.06853" lon="6.92984">
        <ele>266.5</ele>
        <time>2013-04-24T06:56:17Z</time>
      </trkpt>
      <trkpt lat="49.06855" lon="6.92974">
        <ele>265.8</ele>
        <time>2013-04-24T06:56:22Z</time>
      </trkpt>
      <trkpt lat="49.06855" lon="6.92966">
        <ele>264.8</ele>
        <time>2013-04-24T06:56:27Z</time>
      </trkpt>
      <trkpt lat="49.06856" lon="6.92958">
        <ele>264.3</ele>
        <time>2013-04-24T06:56:32Z</time>
      </trkpt>
      <trkpt lat="49.06857" lon="6.9295">
        <ele>263.5</ele>
        <time>2013-04-24T06:56:37Z</time>
      </trkpt>
      <trkpt lat="49.06858" lon="6.92948">
        <ele>263.4</ele>
        <time>2013-04-24T06:56:38Z</time>
      </trkpt>
      <trkpt lat="49.0686" lon="6.92932">
        <ele>262.9</ele>
        <time>2013-04-24T06:56:47Z</time>
      </trkpt>
      <trkpt lat="49.06863" lon="6.92923">
        <ele>262.1</ele>
        <time>2013-04-24T06:56:52Z</time>
      </trkpt>
      <trkpt lat="49.06868" lon="6.92916">
        <ele>261.8</ele>
        <time>2013-04-24T06:56:57Z</time>
      </trkpt>
      <trkpt lat="49.06873" lon="6.92911">
        <ele>261.1</ele>
        <time>2013-04-24T06:57:02Z</time>
      </trkpt>
      <trkpt lat="49.06879" lon="6.92907">
        <ele>260.6</ele>
        <time>2013-04-24T06:57:07Z</time>
      </trkpt>
      <trkpt lat="49.06885" lon="6.92902">
        <ele>260</ele>
        <time>2013-04-24T06:57:12Z</time>
      </trkpt>
      <trkpt lat="49.06891" lon="6.92898">
        <ele>260</ele>
        <time>2013-04-24T06:57:17Z</time>
      </trkpt>
      <trkpt lat="49.06897" lon="6.92894">
        <ele>259.2</ele>
        <time>2013-04-24T06:57:22Z</time>
      </trkpt>
      <trkpt lat="49.06903" lon="6.92889">
        <ele>259</ele>
        <time>2013-04-24T06:57:27Z</time>
      </trkpt>
      <trkpt lat="49.06909" lon="6.92884">
        <ele>259.3</ele>
        <time>2013-04-24T06:57:32Z</time>
      </trkpt>
      <trkpt lat="49.06914" lon="6.9288">
        <ele>259.7</ele>
        <time>2013-04-24T06:57:37Z</time>
      </trkpt>
      <trkpt lat="49.06919" lon="6.92875">
        <ele>259.6</ele>
        <time>2013-04-24T06:57:42Z</time>
      </trkpt>
      <trkpt lat="49.06921" lon="6.92874">
        <ele>259.7</ele>
        <time>2013-04-24T06:57:43Z</time>
      </trkpt>
      <trkpt lat="49.06929" lon="6.92865">
        <ele>259.8</ele>
        <time>2013-04-24T06:57:52Z</time>
      </trkpt>
      <trkpt lat="49.06935" lon="6.92861">
        <ele>260.3</ele>
        <time>2013-04-24T06:57:57Z</time>
      </trkpt>
      <trkpt lat="49.06939" lon="6.92855">
        <ele>260.4</ele>
        <time>2013-04-24T06:58:02Z</time>
      </trkpt>
      <trkpt lat="49.06943" lon="6.9285">
        <ele>260.5</ele>
        <time>2013-04-24T06:58:07Z</time>
      </trkpt>
      <trkpt lat="49.06948" lon="6.92844">
        <ele>260.9</ele>
        <time>2013-04-24T06:58:12Z</time>
      </trkpt>
      <trkpt lat="49.06952" lon="6.92838">
        <ele>261.1</ele>
        <time>2013-04-24T06:58:17Z</time>
      </trkpt>
      <trkpt lat="49.06954" lon="6.92833">
        <ele>261.8</ele>
        <time>2013-04-24T06:58:22Z</time>
      </trkpt>
      <trkpt lat="49.06955" lon="6.92824">
        <ele>262.1</ele>
        <time>2013-04-24T06:58:27Z</time>
      </trkpt>
      <trkpt lat="49.06955" lon="6.92816">
        <ele>261.8</ele>
        <time>2013-04-24T06:58:32Z</time>
      </trkpt>
      <trkpt lat="49.06954" lon="6.92807">
        <ele>261</ele>
        <time>2013-04-24T06:58:37Z</time>
      </trkpt>
      <trkpt lat="49.06952" lon="6.92799">
        <ele>261.7</ele>
        <time>2013-04-24T06:58:42Z</time>
      </trkpt>
      <trkpt lat="49.06951" lon="6.92789">
        <ele>261.8</ele>
        <time>2013-04-24T06:58:48Z</time>
      </trkpt>
      <trkpt lat="49.06944" lon="6.92744">
        <ele>266</ele>
        <time>2013-04-24T06:58:57Z</time>
      </trkpt>
      <trkpt lat="49.06944" lon="6.92744">
        <ele>266</ele>
        <time>2013-04-24T06:58:57Z</time>
      </trkpt>
      <trkpt lat="49.06941" lon="6.92688">
        <ele>261.3</ele>
        <time>2013-04-24T06:59:37Z</time>
      </trkpt>
      <trkpt lat="49.0694" lon="6.92677">
        <ele>260.6</ele>
        <time>2013-04-24T06:59:42Z</time>
      </trkpt>
      <trkpt lat="49.0694" lon="6.92666">
        <ele>260.6</ele>
        <time>2013-04-24T06:59:47Z</time>
      </trkpt>
      <trkpt lat="49.06939" lon="6.92656">
        <ele>260.1</ele>
        <time>2013-04-24T06:59:52Z</time>
      </trkpt>
      <trkpt lat="49.06939" lon="6.92653">
        <ele>260</ele>
        <time>2013-04-24T06:59:53Z</time>
      </trkpt>
      <trkpt lat="49.06938" lon="6.92634">
        <ele>259.9</ele>
        <time>2013-04-24T07:00:02Z</time>
      </trkpt>
      <trkpt lat="49.06938" lon="6.92624">
        <ele>259.5</ele>
        <time>2013-04-24T07:00:07Z</time>
      </trkpt>
      <trkpt lat="49.06937" lon="6.92614">
        <ele>259.4</ele>
        <time>2013-04-24T07:00:12Z</time>
      </trkpt>
      <trkpt lat="49.06937" lon="6.92604">
        <ele>259.1</ele>
        <time>2013-04-24T07:00:17Z</time>
      </trkpt>
      <trkpt lat="49.06937" lon="6.92594">
        <ele>259</ele>
        <time>2013-04-24T07:00:22Z</time>
      </trkpt>
      <trkpt lat="49.06937" lon="6.92585">
        <ele>258.4</ele>
        <time>2013-04-24T07:00:27Z</time>
      </trkpt>
      <trkpt lat="49.06937" lon="6.92575">
        <ele>258.3</ele>
        <time>2013-04-24T07:00:32Z</time>
      </trkpt>
      <trkpt lat="49.06937" lon="6.92565">
        <ele>258.4</ele>
        <time>2013-04-24T07:00:37Z</time>
      </trkpt>
      <trkpt lat="49.06937" lon="6.92556">
        <ele>258.2</ele>
        <time>2013-04-24T07:00:42Z</time>
      </trkpt>
      <trkpt lat="49.06937" lon="6.92547">
        <ele>257.6</ele>
        <time>2013-04-24T07:00:47Z</time>
      </trkpt>
      <trkpt lat="49.06938" lon="6.92537">
        <ele>257.5</ele>
        <time>2013-04-24T07:00:52Z</time>
      </trkpt>
      <trkpt lat="49.06938" lon="6.92527">
        <ele>257</ele>
        <time>2013-04-24T07:00:57Z</time>
      </trkpt>
      <trkpt lat="49.06938" lon="6.92525">
        <ele>257</ele>
        <time>2013-04-24T07:00:58Z</time>
      </trkpt>
      <trkpt lat="49.06939" lon="6.92509">
        <ele>256.1</ele>
        <time>2013-04-24T07:01:07Z</time>
      </trkpt>
      <trkpt lat="49.06939" lon="6.92501">
        <ele>256</ele>
        <time>2013-04-24T07:01:12Z</time>
      </trkpt>
      <trkpt lat="49.0694" lon="6.92492">
        <ele>255.3</ele>
        <time>2013-04-24T07:01:17Z</time>
      </trkpt>
      <trkpt lat="49.0694" lon="6.92481">
        <ele>255</ele>
        <time>2013-04-24T07:01:22Z</time>
      </trkpt>
      <trkpt lat="49.0694" lon="6.92471">
        <ele>254.3</ele>
        <time>2013-04-24T07:01:27Z</time>
      </trkpt>
      <trkpt lat="49.06941" lon="6.92462">
        <ele>253.8</ele>
        <time>2013-04-24T07:01:32Z</time>
      </trkpt>
      <trkpt lat="49.06942" lon="6.92453">
        <ele>253.4</ele>
        <time>2013-04-24T07:01:37Z</time>
      </trkpt>
      <trkpt lat="49.06944" lon="6.92446">
        <ele>252.9</ele>
        <time>2013-04-24T07:01:42Z</time>
      </trkpt>
      <trkpt lat="49.06947" lon="6.92447">
        <ele>253.2</ele>
        <time>2013-04-24T07:01:47Z</time>
      </trkpt>
      <trkpt lat="49.06951" lon="6.92453">
        <ele>253.5</ele>
        <time>2013-04-24T07:01:52Z</time>
      </trkpt>
      <trkpt lat="49.06953" lon="6.9246">
        <ele>254.1</ele>
        <time>2013-04-24T07:01:57Z</time>
      </trkpt>
      <trkpt lat="49.06955" lon="6.92465">
        <ele>254.5</ele>
        <time>2013-04-24T07:02:02Z</time>
      </trkpt>
      <trkpt lat="49.06955" lon="6.92466">
        <ele>254.7</ele>
        <time>2013-04-24T07:02:03Z</time>
      </trkpt>
      <trkpt lat="49.06956" lon="6.92474">
        <ele>255.3</ele>
        <time>2013-04-24T07:02:12Z</time>
      </trkpt>
      <trkpt lat="49.06955" lon="6.92476">
        <ele>255.7</ele>
        <time>2013-04-24T07:02:17Z</time>
      </trkpt>
      <trkpt lat="49.06953" lon="6.92478">
        <ele>255.9</ele>
        <time>2013-04-24T07:02:22Z</time>
      </trkpt>
      <trkpt lat="49.06954" lon="6.92481">
        <ele>257</ele>
        <time>2013-04-24T07:02:27Z</time>
      </trkpt>
      <trkpt lat="49.06955" lon="6.92486">
        <ele>257.2</ele>
        <time>2013-04-24T07:02:32Z</time>
      </trkpt>
      <trkpt lat="49.06956" lon="6.92491">
        <ele>257.9</ele>
        <time>2013-04-24T07:02:37Z</time>
      </trkpt>
      <trkpt lat="49.06958" lon="6.92497">
        <ele>259.5</ele>
        <time>2013-04-24T07:02:42Z</time>
      </trkpt>
      <trkpt lat="49.06958" lon="6.92503">
        <ele>259.5</ele>
        <time>2013-04-24T07:02:47Z</time>
      </trkpt>
      <trkpt lat="49.06958" lon="6.92508">
        <ele>260.4</ele>
        <time>2013-04-24T07:02:52Z</time>
      </trkpt>
      <trkpt lat="49.06959" lon="6.92511">
        <ele>261.4</ele>
        <time>2013-04-24T07:02:57Z</time>
      </trkpt>
      <trkpt lat="49.0696" lon="6.92519">
        <ele>260.3</ele>
        <time>2013-04-24T07:03:02Z</time>
      </trkpt>
      <trkpt lat="49.06961" lon="6.92524">
        <ele>261.1</ele>
        <time>2013-04-24T07:03:07Z</time>
      </trkpt>
      <trkpt lat="49.06961" lon="6.92525">
        <ele>260.9</ele>
        <time>2013-04-24T07:03:08Z</time>
      </trkpt>
      <trkpt lat="49.06963" lon="6.92541">
        <ele>262</ele>
        <time>2013-04-24T07:03:17Z</time>
      </trkpt>
      <trkpt lat="49.06965" lon="6.92549">
        <ele>262.9</ele>
        <time>2013-04-24T07:03:22Z</time>
      </trkpt>
      <trkpt lat="49.06967" lon="6.92559">
        <ele>262.7</ele>
        <time>2013-04-24T07:03:27Z</time>
      </trkpt>
      <trkpt lat="49.0697" lon="6.92568">
        <ele>263.3</ele>
        <time>2013-04-24T07:03:32Z</time>
      </trkpt>
      <trkpt lat="49.06972" lon="6.92576">
        <ele>263.9</ele>
        <time>2013-04-24T07:03:37Z</time>
      </trkpt>
      <trkpt lat="49.06976" lon="6.92584">
        <ele>264.7</ele>
        <time>2013-04-24T07:03:42Z</time>
      </trkpt>
      <trkpt lat="49.06978" lon="6.92592">
        <ele>265.6</ele>
        <time>2013-04-24T07:03:47Z</time>
      </trkpt>
      <trkpt lat="49.06978" lon="6.92597">
        <ele>265.5</ele>
        <time>2013-04-24T07:03:52Z</time>
      </trkpt>
      <trkpt lat="49.06979" lon="6.92606">
        <ele>265.4</ele>
        <time>2013-04-24T07:03:57Z</time>
      </trkpt>
      <trkpt lat="49.06981" lon="6.92613">
        <ele>265.7</ele>
        <time>2013-04-24T07:04:02Z</time>
      </trkpt>
      <trkpt lat="49.06983" lon="6.92622">
        <ele>265.7</ele>
        <time>2013-04-24T07:04:07Z</time>
      </trkpt>
      <trkpt lat="49.06986" lon="6.9263">
        <ele>265.9</ele>
        <time>2013-04-24T07:04:12Z</time>
      </trkpt>
      <trkpt lat="49.06986" lon="6.92632">
        <ele>266</ele>
        <time>2013-04-24T07:04:13Z</time>
      </trkpt>
      <trkpt lat="49.06992" lon="6.92647">
        <ele>265.3</ele>
        <time>2013-04-24T07:04:22Z</time>
      </trkpt>
      <trkpt lat="49.06994" lon="6.92657">
        <ele>265.9</ele>
        <time>2013-04-24T07:04:27Z</time>
      </trkpt>
      <trkpt lat="49.06996" lon="6.92668">
        <ele>266.2</ele>
        <time>2013-04-24T07:04:32Z</time>
      </trkpt>
      <trkpt lat="49.06999" lon="6.92678">
        <ele>266.8</ele>
        <time>2013-04-24T07:04:37Z</time>
      </trkpt>
      <trkpt lat="49.07001" lon="6.92689">
        <ele>267.3</ele>
        <time>2013-04-24T07:04:42Z</time>
      </trkpt>
      <trkpt lat="49.07004" lon="6.92697">
        <ele>267.7</ele>
        <time>2013-04-24T07:04:47Z</time>
      </trkpt>
      <trkpt lat="49.07008" lon="6.92705">
        <ele>268.2</ele>
        <time>2013-04-24T07:04:52Z</time>
      </trkpt>
      <trkpt lat="49.07013" lon="6.92711">
        <ele>268.3</ele>
        <time>2013-04-24T07:04:57Z</time>
      </trkpt>
      <trkpt lat="49.07019" lon="6.92714">
        <ele>268.8</ele>
        <time>2013-04-24T07:05:02Z</time>
      </trkpt>
      <trkpt lat="49.07022" lon="6.92713">
        <ele>269.2</ele>
        <time>2013-04-24T07:05:07Z</time>
      </trkpt>
      <trkpt lat="49.07026" lon="6.92713">
        <ele>268.8</ele>
        <time>2013-04-24T07:05:12Z</time>
      </trkpt>
      <trkpt lat="49.0703" lon="6.92713">
        <ele>269.1</ele>
        <time>2013-04-24T07:05:17Z</time>
      </trkpt>
      <trkpt lat="49.07031" lon="6.92714">
        <ele>269</ele>
        <time>2013-04-24T07:05:18Z</time>
      </trkpt>
      <trkpt lat="49.07042" lon="6.92717">
        <ele>268.6</ele>
        <time>2013-04-24T07:05:27Z</time>
      </trkpt>
      <trkpt lat="49.07048" lon="6.9272">
        <ele>268.9</ele>
        <time>2013-04-24T07:05:32Z</time>
      </trkpt>
      <trkpt lat="49.07054" lon="6.92723">
        <ele>270.9</ele>
        <time>2013-04-24T07:05:37Z</time>
      </trkpt>
      <trkpt lat="49.07058" lon="6.92729">
        <ele>271.2</ele>
        <time>2013-04-24T07:05:42Z</time>
      </trkpt>
      <trkpt lat="49.07062" lon="6.92734">
        <ele>271.6</ele>
        <time>2013-04-24T07:05:47Z</time>
      </trkpt>
      <trkpt lat="49.07066" lon="6.92738">
        <ele>271.8</ele>
        <time>2013-04-24T07:05:52Z</time>
      </trkpt>
      <trkpt lat="49.07072" lon="6.92743">
        <ele>272.6</ele>
        <time>2013-04-24T07:05:57Z</time>
      </trkpt>
      <trkpt lat="49.07077" lon="6.92749">
        <ele>272.8</ele>
        <time>2013-04-24T07:06:02Z</time>
      </trkpt>
      <trkpt lat="49.07081" lon="6.92756">
        <ele>273.1</ele>
        <time>2013-04-24T07:06:07Z</time>
      </trkpt>
      <trkpt lat="49.07085" lon="6.92763">
        <ele>273.3</ele>
        <time>2013-04-24T07:06:12Z</time>
      </trkpt>
      <trkpt lat="49.0709" lon="6.92769">
        <ele>273.4</ele>
        <time>2013-04-24T07:06:17Z</time>
      </trkpt>
      <trkpt lat="49.07094" lon="6.92774">
        <ele>274.8</ele>
        <time>2013-04-24T07:06:22Z</time>
      </trkpt>
      <trkpt lat="49.07095" lon="6.92775">
        <ele>274.8</ele>
        <time>2013-04-24T07:06:23Z</time>
      </trkpt>
      <trkpt lat="49.07102" lon="6.92785">
        <ele>275.3</ele>
        <time>2013-04-24T07:06:32Z</time>
      </trkpt>
      <trkpt lat="49.07107" lon="6.92789">
        <ele>275.8</ele>
        <time>2013-04-24T07:06:37Z</time>
      </trkpt>
      <trkpt lat="49.07112" lon="6.92793">
        <ele>275.5</ele>
        <time>2013-04-24T07:06:42Z</time>
      </trkpt>
      <trkpt lat="49.07118" lon="6.92796">
        <ele>275.6</ele>
        <time>2013-04-24T07:06:47Z</time>
      </trkpt>
      <trkpt lat="49.07124" lon="6.92799">
        <ele>276</ele>
        <time>2013-04-24T07:06:52Z</time>
      </trkpt>
      <trkpt lat="49.07129" lon="6.92803">
        <ele>276.1</ele>
        <time>2013-04-24T07:06:57Z</time>
      </trkpt>
      <trkpt lat="49.07134" lon="6.92808">
        <ele>276.7</ele>
        <time>2013-04-24T07:07:02Z</time>
      </trkpt>
      <trkpt lat="49.07138" lon="6.92813">
        <ele>277.4</ele>
        <time>2013-04-24T07:07:07Z</time>
      </trkpt>
      <trkpt lat="49.07142" lon="6.92818">
        <ele>277.7</ele>
        <time>2013-04-24T07:07:12Z</time>
      </trkpt>
      <trkpt lat="49.07145" lon="6.92825">
        <ele>278.2</ele>
        <time>2013-04-24T07:07:17Z</time>
      </trkpt>
      <trkpt lat="49.0715" lon="6.9283">
        <ele>278.1</ele>
        <time>2013-04-24T07:07:22Z</time>
      </trkpt>
      <trkpt lat="49.07155" lon="6.92835">
        <ele>278.1</ele>
        <time>2013-04-24T07:07:27Z</time>
      </trkpt>
      <trkpt lat="49.07156" lon="6.92836">
        <ele>278.3</ele>
        <time>2013-04-24T07:07:28Z</time>
      </trkpt>
      <trkpt lat="49.07164" lon="6.92841">
        <ele>279.1</ele>
        <time>2013-04-24T07:07:37Z</time>
      </trkpt>
      <trkpt lat="49.07169" lon="6.92845">
        <ele>279.6</ele>
        <time>2013-04-24T07:07:42Z</time>
      </trkpt>
      <trkpt lat="49.07174" lon="6.92851">
        <ele>280.5</ele>
        <time>2013-04-24T07:07:47Z</time>
      </trkpt>
      <trkpt lat="49.0718" lon="6.92857">
        <ele>281</ele>
        <time>2013-04-24T07:07:52Z</time>
      </trkpt>
      <trkpt lat="49.07186" lon="6.92864">
        <ele>282.6</ele>
        <time>2013-04-24T07:07:57Z</time>
      </trkpt>
      <trkpt lat="49.07191" lon="6.92871">
        <ele>281</ele>
        <time>2013-04-24T07:08:02Z</time>
      </trkpt>
      <trkpt lat="49.07195" lon="6.92877">
        <ele>280.9</ele>
        <time>2013-04-24T07:08:07Z</time>
      </trkpt>
      <trkpt lat="49.072" lon="6.92883">
        <ele>280.7</ele>
        <time>2013-04-24T07:08:12Z</time>
      </trkpt>
      <trkpt lat="49.07206" lon="6.92888">
        <ele>281</ele>
        <time>2013-04-24T07:08:17Z</time>
      </trkpt>
      <trkpt lat="49.0721" lon="6.92891">
        <ele>281.3</ele>
        <time>2013-04-24T07:08:22Z</time>
      </trkpt>
      <trkpt lat="49.07216" lon="6.92894">
        <ele>281.2</ele>
        <time>2013-04-24T07:08:27Z</time>
      </trkpt>
      <trkpt lat="49.07221" lon="6.92896">
        <ele>281.1</ele>
        <time>2013-04-24T07:08:32Z</time>
      </trkpt>
      <trkpt lat="49.07222" lon="6.92897">
        <ele>281.3</ele>
        <time>2013-04-24T07:08:33Z</time>
      </trkpt>
      <trkpt lat="49.0723" lon="6.92906">
        <ele>282</ele>
        <time>2013-04-24T07:08:42Z</time>
      </trkpt>
      <trkpt lat="49.07234" lon="6.92911">
        <ele>281.7</ele>
        <time>2013-04-24T07:08:47Z</time>
      </trkpt>
      <trkpt lat="49.07238" lon="6.92917">
        <ele>282</ele>
        <time>2013-04-24T07:08:52Z</time>
      </trkpt>
      <trkpt lat="49.07242" lon="6.92923">
        <ele>281.5</ele>
        <time>2013-04-24T07:08:57Z</time>
      </trkpt>
      <trkpt lat="49.07247" lon="6.92926">
        <ele>281</ele>
        <time>2013-04-24T07:09:02Z</time>
      </trkpt>
      <trkpt lat="49.07252" lon="6.92927">
        <ele>281</ele>
        <time>2013-04-24T07:09:07Z</time>
      </trkpt>
      <trkpt lat="49.07256" lon="6.92932">
        <ele>281.2</ele>
        <time>2013-04-24T07:09:12Z</time>
      </trkpt>
      <trkpt lat="49.07259" lon="6.92936">
        <ele>281.5</ele>
        <time>2013-04-24T07:09:17Z</time>
      </trkpt>
      <trkpt lat="49.07264" lon="6.92941">
        <ele>280.6</ele>
        <time>2013-04-24T07:09:22Z</time>
      </trkpt>
      <trkpt lat="49.07269" lon="6.9295">
        <ele>280.6</ele>
        <time>2013-04-24T07:09:27Z</time>
      </trkpt>
      <trkpt lat="49.07273" lon="6.92957">
        <ele>280.6</ele>
        <time>2013-04-24T07:09:32Z</time>
      </trkpt>
      <trkpt lat="49.07276" lon="6.92965">
        <ele>281.8</ele>
        <time>2013-04-24T07:09:37Z</time>
      </trkpt>
      <trkpt lat="49.07277" lon="6.92967">
        <ele>281.8</ele>
        <time>2013-04-24T07:09:38Z</time>
      </trkpt>
      <trkpt lat="49.07285" lon="6.92979">
        <ele>281.7</ele>
        <time>2013-04-24T07:09:47Z</time>
      </trkpt>
      <trkpt lat="49.07287" lon="6.92985">
        <ele>282.2</ele>
        <time>2013-04-24T07:09:52Z</time>
      </trkpt>
      <trkpt lat="49.07291" lon="6.92991">
        <ele>282.1</ele>
        <time>2013-04-24T07:09:57Z</time>
      </trkpt>
      <trkpt lat="49.07294" lon="6.92997">
        <ele>282.6</ele>
        <time>2013-04-24T07:10:02Z</time>
      </trkpt>
      <trkpt lat="49.07297" lon="6.93004">
        <ele>282.2</ele>
        <time>2013-04-24T07:10:07Z</time>
      </trkpt>
      <trkpt lat="49.07301" lon="6.9301">
        <ele>281.7</ele>
        <time>2013-04-24T07:10:12Z</time>
      </trkpt>
      <trkpt lat="49.07305" lon="6.93016">
        <ele>281.8</ele>
        <time>2013-04-24T07:10:17Z</time>
      </trkpt>
      <trkpt lat="49.07308" lon="6.93024">
        <ele>282.4</ele>
        <time>2013-04-24T07:10:22Z</time>
      </trkpt>
      <trkpt lat="49.07312" lon="6.93033">
        <ele>282.7</ele>
        <time>2013-04-24T07:10:27Z</time>
      </trkpt>
      <trkpt lat="49.07316" lon="6.93041">
        <ele>282.5</ele>
        <time>2013-04-24T07:10:32Z</time>
      </trkpt>
      <trkpt lat="49.07319" lon="6.93048">
        <ele>283.7</ele>
        <time>2013-04-24T07:10:37Z</time>
      </trkpt>
      <trkpt lat="49.07323" lon="6.93056">
        <ele>282.9</ele>
        <time>2013-04-24T07:10:42Z</time>
      </trkpt>
      <trkpt lat="49.07324" lon="6.93058">
        <ele>282.9</ele>
        <time>2013-04-24T07:10:43Z</time>
      </trkpt>
      <trkpt lat="49.0733" lon="6.93072">
        <ele>283.5</ele>
        <time>2013-04-24T07:10:52Z</time>
      </trkpt>
      <trkpt lat="49.07333" lon="6.93079">
        <ele>283</ele>
        <time>2013-04-24T07:10:57Z</time>
      </trkpt>
      <trkpt lat="49.07336" lon="6.93086">
        <ele>282.1</ele>
        <time>2013-04-24T07:11:02Z</time>
      </trkpt>
      <trkpt lat="49.0734" lon="6.93092">
        <ele>283</ele>
        <time>2013-04-24T07:11:07Z</time>
      </trkpt>
      <trkpt lat="49.07343" lon="6.93098">
        <ele>282.8</ele>
        <time>2013-04-24T07:11:12Z</time>
      </trkpt>
      <trkpt lat="49.07347" lon="6.93107">
        <ele>282.9</ele>
        <time>2013-04-24T07:11:17Z</time>
      </trkpt>
      <trkpt lat="49.07352" lon="6.93114">
        <ele>283.1</ele>
        <time>2013-04-24T07:11:22Z</time>
      </trkpt>
      <trkpt lat="49.07356" lon="6.9312">
        <ele>283.2</ele>
        <time>2013-04-24T07:11:27Z</time>
      </trkpt>
      <trkpt lat="49.07362" lon="6.93126">
        <ele>282.4</ele>
        <time>2013-04-24T07:11:32Z</time>
      </trkpt>
      <trkpt lat="49.07366" lon="6.93132">
        <ele>283.2</ele>
        <time>2013-04-24T07:11:37Z</time>
      </trkpt>
      <trkpt lat="49.0737" lon="6.9314">
        <ele>283</ele>
        <time>2013-04-24T07:11:42Z</time>
      </trkpt>
      <trkpt lat="49.07373" lon="6.93145">
        <ele>283.3</ele>
        <time>2013-04-24T07:11:47Z</time>
      </trkpt>
      <trkpt lat="49.07374" lon="6.93146">
        <ele>283.2</ele>
        <time>2013-04-24T07:11:48Z</time>
      </trkpt>
      <trkpt lat="49.07381" lon="6.93157">
        <ele>282.9</ele>
        <time>2013-04-24T07:11:57Z</time>
      </trkpt>
      <trkpt lat="49.07381" lon="6.93157">
        <ele>282.9</ele>
        <time>2013-04-24T07:11:57Z</time>
      </trkpt>
      <trkpt lat="49.07385" lon="6.93162">
        <ele>282.8</ele>
        <time>2013-04-24T07:12:02Z</time>
      </trkpt>
      <trkpt lat="49.0739" lon="6.93168">
        <ele>283.1</ele>
        <time>2013-04-24T07:12:07Z</time>
      </trkpt>
      <trkpt lat="49.07396" lon="6.93173">
        <ele>282.8</ele>
        <time>2013-04-24T07:12:12Z</time>
      </trkpt>
      <trkpt lat="49.07401" lon="6.93179">
        <ele>282.2</ele>
        <time>2013-04-24T07:12:17Z</time>
      </trkpt>
      <trkpt lat="49.07406" lon="6.93186">
        <ele>283.2</ele>
        <time>2013-04-24T07:12:22Z</time>
      </trkpt>
      <trkpt lat="49.0741" lon="6.93195">
        <ele>283.3</ele>
        <time>2013-04-24T07:12:27Z</time>
      </trkpt>
      <trkpt lat="49.07415" lon="6.93202">
        <ele>283.6</ele>
        <time>2013-04-24T07:12:32Z</time>
      </trkpt>
      <trkpt lat="49.07418" lon="6.93209">
        <ele>283.5</ele>
        <time>2013-04-24T07:12:37Z</time>
      </trkpt>
      <trkpt lat="49.07424" lon="6.93216">
        <ele>284.5</ele>
        <time>2013-04-24T07:12:42Z</time>
      </trkpt>
      <trkpt lat="49.07428" lon="6.93224">
        <ele>284.8</ele>
        <time>2013-04-24T07:12:47Z</time>
      </trkpt>
      <trkpt lat="49.07432" lon="6.93232">
        <ele>285</ele>
        <time>2013-04-24T07:12:52Z</time>
      </trkpt>
      <trkpt lat="49.07433" lon="6.93234">
        <ele>284.9</ele>
        <time>2013-04-24T07:12:53Z</time>
      </trkpt>
      <trkpt lat="49.07439" lon="6.93249">
        <ele>285.4</ele>
        <time>2013-04-24T07:13:02Z</time>
      </trkpt>
      <trkpt lat="49.07442" lon="6.93256">
        <ele>286.1</ele>
        <time>2013-04-24T07:13:07Z</time>
      </trkpt>
      <trkpt lat="49.07446" lon="6.93262">
        <ele>286.4</ele>
        <time>2013-04-24T07:13:12Z</time>
      </trkpt>
      <trkpt lat="49.0745" lon="6.93269">
        <ele>286</ele>
        <time>2013-04-24T07:13:17Z</time>
      </trkpt>
      <trkpt lat="49.07455" lon="6.93275">
        <ele>286.1</ele>
        <time>2013-04-24T07:13:22Z</time>
      </trkpt>
      <trkpt lat="49.07458" lon="6.93282">
        <ele>287.5</ele>
        <time>2013-04-24T07:13:27Z</time>
      </trkpt>
      <trkpt lat="49.07461" lon="6.93289">
        <ele>287.4</ele>
        <time>2013-04-24T07:13:32Z</time>
      </trkpt>
      <trkpt lat="49.07464" lon="6.93296">
        <ele>287.8</ele>
        <time>2013-04-24T07:13:37Z</time>
      </trkpt>
      <trkpt lat="49.07469" lon="6.93304">
        <ele>287.2</ele>
        <time>2013-04-24T07:13:42Z</time>
      </trkpt>
      <trkpt lat="49.07473" lon="6.93312">
        <ele>287.9</ele>
        <time>2013-04-24T07:13:47Z</time>
      </trkpt>
      <trkpt lat="49.07477" lon="6.93321">
        <ele>287.4</ele>
        <time>2013-04-24T07:13:52Z</time>
      </trkpt>
      <trkpt lat="49.07479" lon="6.93329">
        <ele>288.2</ele>
        <time>2013-04-24T07:13:57Z</time>
      </trkpt>
      <trkpt lat="49.07479" lon="6.9333">
        <ele>288.3</ele>
        <time>2013-04-24T07:13:58Z</time>
      </trkpt>
      <trkpt lat="49.0748" lon="6.93347">
        <ele>288.7</ele>
        <time>2013-04-24T07:14:07Z</time>
      </trkpt>
      <trkpt lat="49.07484" lon="6.93353">
        <ele>288.6</ele>
        <time>2013-04-24T07:14:12Z</time>
      </trkpt>
      <trkpt lat="49.07488" lon="6.93355">
        <ele>288.9</ele>
        <time>2013-04-24T07:14:17Z</time>
      </trkpt>
      <trkpt lat="49.07492" lon="6.93357">
        <ele>288.2</ele>
        <time>2013-04-24T07:14:22Z</time>
      </trkpt>
      <trkpt lat="49.07496" lon="6.93358">
        <ele>287.9</ele>
        <time>2013-04-24T07:14:27Z</time>
      </trkpt>
      <trkpt lat="49.07499" lon="6.93357">
        <ele>287</ele>
        <time>2013-04-24T07:14:32Z</time>
      </trkpt>
      <trkpt lat="49.07504" lon="6.93357">
        <ele>287.8</ele>
        <time>2013-04-24T07:14:37Z</time>
      </trkpt>
      <trkpt lat="49.07509" lon="6.93355">
        <ele>285.9</ele>
        <time>2013-04-24T07:14:42Z</time>
      </trkpt>
      <trkpt lat="49.07514" lon="6.93354">
        <ele>285.2</ele>
        <time>2013-04-24T07:14:47Z</time>
      </trkpt>
      <trkpt lat="49.07519" lon="6.93352">
        <ele>286</ele>
        <time>2013-04-24T07:14:52Z</time>
      </trkpt>
      <trkpt lat="49.07524" lon="6.9335">
        <ele>287.5</ele>
        <time>2013-04-24T07:14:57Z</time>
      </trkpt>
      <trkpt lat="49.0753" lon="6.9335">
        <ele>286.4</ele>
        <time>2013-04-24T07:15:02Z</time>
      </trkpt>
      <trkpt lat="49.07531" lon="6.9335">
        <ele>286.3</ele>
        <time>2013-04-24T07:15:03Z</time>
      </trkpt>
      <trkpt lat="49.07543" lon="6.93349">
        <ele>286.8</ele>
        <time>2013-04-24T07:15:12Z</time>
      </trkpt>
      <trkpt lat="49.07549" lon="6.93348">
        <ele>286.3</ele>
        <time>2013-04-24T07:15:17Z</time>
      </trkpt>
      <trkpt lat="49.07554" lon="6.93347">
        <ele>286.3</ele>
        <time>2013-04-24T07:15:22Z</time>
      </trkpt>
      <trkpt lat="49.0756" lon="6.93346">
        <ele>285.8</ele>
        <time>2013-04-24T07:15:27Z</time>
      </trkpt>
      <trkpt lat="49.07566" lon="6.93345">
        <ele>286.2</ele>
        <time>2013-04-24T07:15:32Z</time>
      </trkpt>
      <trkpt lat="49.07573" lon="6.93344">
        <ele>286.2</ele>
        <time>2013-04-24T07:15:37Z</time>
      </trkpt>
      <trkpt lat="49.0758" lon="6.93344">
        <ele>286.1</ele>
        <time>2013-04-24T07:15:42Z</time>
      </trkpt>
      <trkpt lat="49.07587" lon="6.93344">
        <ele>285.7</ele>
        <time>2013-04-24T07:15:47Z</time>
      </trkpt>
      <trkpt lat="49.07594" lon="6.93346">
        <ele>286.5</ele>
        <time>2013-04-24T07:15:52Z</time>
      </trkpt>
      <trkpt lat="49.07601" lon="6.93347">
        <ele>285.3</ele>
        <time>2013-04-24T07:15:57Z</time>
      </trkpt>
      <trkpt lat="49.07608" lon="6.93349">
        <ele>285.1</ele>
        <time>2013-04-24T07:16:02Z</time>
      </trkpt>
      <trkpt lat="49.07615" lon="6.93351">
        <ele>284.1</ele>
        <time>2013-04-24T07:16:07Z</time>
      </trkpt>
      <trkpt lat="49.07615" lon="6.93351">
        <ele>283.8</ele>
        <time>2013-04-24T07:16:08Z</time>
      </trkpt>
      <trkpt lat="49.07625" lon="6.93353">
        <ele>282</ele>
        <time>2013-04-24T07:16:17Z</time>
      </trkpt>
      <trkpt lat="49.07631" lon="6.93351">
        <ele>281.2</ele>
        <time>2013-04-24T07:16:22Z</time>
      </trkpt>
      <trkpt lat="49.07636" lon="6.9335">
        <ele>280.8</ele>
        <time>2013-04-24T07:16:27Z</time>
      </trkpt>
      <trkpt lat="49.07642" lon="6.93349">
        <ele>280.2</ele>
        <time>2013-04-24T07:16:32Z</time>
      </trkpt>
      <trkpt lat="49.07647" lon="6.93348">
        <ele>279</ele>
        <time>2013-04-24T07:16:37Z</time>
      </trkpt>
      <trkpt lat="49.07652" lon="6.93348">
        <ele>277.7</ele>
        <time>2013-04-24T07:16:42Z</time>
      </trkpt>
      <trkpt lat="49.07657" lon="6.93346">
        <ele>276.4</ele>
        <time>2013-04-24T07:16:47Z</time>
      </trkpt>
      <trkpt lat="49.07663" lon="6.93346">
        <ele>276</ele>
        <time>2013-04-24T07:16:52Z</time>
      </trkpt>
      <trkpt lat="49.07669" lon="6.93344">
        <ele>275.7</ele>
        <time>2013-04-24T07:16:57Z</time>
      </trkpt>
      <trkpt lat="49.07674" lon="6.9334">
        <ele>273.7</ele>
        <time>2013-04-24T07:17:02Z</time>
      </trkpt>
      <trkpt lat="49.07678" lon="6.93337">
        <ele>272.9</ele>
        <time>2013-04-24T07:17:07Z</time>
      </trkpt>
      <trkpt lat="49.07683" lon="6.93336">
        <ele>271.9</ele>
        <time>2013-04-24T07:17:12Z</time>
      </trkpt>
      <trkpt lat="49.07684" lon="6.93335">
        <ele>271.7</ele>
        <time>2013-04-24T07:17:13Z</time>
      </trkpt>
      <trkpt lat="49.07692" lon="6.93334">
        <ele>269.7</ele>
        <time>2013-04-24T07:17:22Z</time>
      </trkpt>
      <trkpt lat="49.07697" lon="6.93333">
        <ele>269.6</ele>
        <time>2013-04-24T07:17:27Z</time>
      </trkpt>
      <trkpt lat="49.07703" lon="6.93332">
        <ele>268.3</ele>
        <time>2013-04-24T07:17:32Z</time>
      </trkpt>
      <trkpt lat="49.07708" lon="6.93331">
        <ele>268.5</ele>
        <time>2013-04-24T07:17:37Z</time>
      </trkpt>
      <trkpt lat="49.07712" lon="6.93332">
        <ele>269</ele>
        <time>2013-04-24T07:17:42Z</time>
      </trkpt>
      <trkpt lat="49.07718" lon="6.93333">
        <ele>269.1</ele>
        <time>2013-04-24T07:17:47Z</time>
      </trkpt>
      <trkpt lat="49.07723" lon="6.93334">
        <ele>268.8</ele>
        <time>2013-04-24T07:17:52Z</time>
      </trkpt>
      <trkpt lat="49.07729" lon="6.93335">
        <ele>268.4</ele>
        <time>2013-04-24T07:17:57Z</time>
      </trkpt>
      <trkpt lat="49.07736" lon="6.93336">
        <ele>268.7</ele>
        <time>2013-04-24T07:18:02Z</time>
      </trkpt>
      <trkpt lat="49.07744" lon="6.93338">
        <ele>267.2</ele>
        <time>2013-04-24T07:18:07Z</time>
      </trkpt>
      <trkpt lat="49.07751" lon="6.9334">
        <ele>267.5</ele>
        <time>2013-04-24T07:18:12Z</time>
      </trkpt>
      <trkpt lat="49.07757" lon="6.93343">
        <ele>266.4</ele>
        <time>2013-04-24T07:18:17Z</time>
      </trkpt>
      <trkpt lat="49.07759" lon="6.93343">
        <ele>266.5</ele>
        <time>2013-04-24T07:18:18Z</time>
      </trkpt>
      <trkpt lat="49.07771" lon="6.93343">
        <ele>265.7</ele>
        <time>2013-04-24T07:18:27Z</time>
      </trkpt>
      <trkpt lat="49.07778" lon="6.93343">
        <ele>265.5</ele>
        <time>2013-04-24T07:18:32Z</time>
      </trkpt>
      <trkpt lat="49.07784" lon="6.93343">
        <ele>264.9</ele>
        <time>2013-04-24T07:18:37Z</time>
      </trkpt>
      <trkpt lat="49.07789" lon="6.93343">
        <ele>265.7</ele>
        <time>2013-04-24T07:18:42Z</time>
      </trkpt>
      <trkpt lat="49.07795" lon="6.93341">
        <ele>265.5</ele>
        <time>2013-04-24T07:18:47Z</time>
      </trkpt>
      <trkpt lat="49.078" lon="6.93339">
        <ele>265.5</ele>
        <time>2013-04-24T07:18:52Z</time>
      </trkpt>
      <trkpt lat="49.07806" lon="6.93337">
        <ele>264.5</ele>
        <time>2013-04-24T07:18:57Z</time>
      </trkpt>
      <trkpt lat="49.07811" lon="6.93334">
        <ele>264.4</ele>
        <time>2013-04-24T07:19:02Z</time>
      </trkpt>
      <trkpt lat="49.07815" lon="6.93335">
        <ele>264.3</ele>
        <time>2013-04-24T07:19:07Z</time>
      </trkpt>
      <trkpt lat="49.07819" lon="6.93341">
        <ele>265</ele>
        <time>2013-04-24T07:19:12Z</time>
      </trkpt>
      <trkpt lat="49.07819" lon="6.93346">
        <ele>264.6</ele>
        <time>2013-04-24T07:19:17Z</time>
      </trkpt>
      <trkpt lat="49.07818" lon="6.93353">
        <ele>264</ele>
        <time>2013-04-24T07:19:22Z</time>
      </trkpt>
      <trkpt lat="49.07818" lon="6.93354">
        <ele>264.1</ele>
        <time>2013-04-24T07:19:23Z</time>
      </trkpt>
      <trkpt lat="49.07817" lon="6.93365">
        <ele>264</ele>
        <time>2013-04-24T07:19:32Z</time>
      </trkpt>
      <trkpt lat="49.07816" lon="6.9337">
        <ele>263.9</ele>
        <time>2013-04-24T07:19:37Z</time>
      </trkpt>
      <trkpt lat="49.07815" lon="6.93374">
        <ele>263.7</ele>
        <time>2013-04-24T07:19:42Z</time>
      </trkpt>
      <trkpt lat="49.07814" lon="6.9338">
        <ele>263.5</ele>
        <time>2013-04-24T07:19:47Z</time>
      </trkpt>
      <trkpt lat="49.07811" lon="6.93387">
        <ele>264.2</ele>
        <time>2013-04-24T07:19:52Z</time>
      </trkpt>
      <trkpt lat="49.07809" lon="6.93394">
        <ele>264.6</ele>
        <time>2013-04-24T07:19:57Z</time>
      </trkpt>
      <trkpt lat="49.07807" lon="6.93402">
        <ele>264.4</ele>
        <time>2013-04-24T07:20:02Z</time>
      </trkpt>
      <trkpt lat="49.07804" lon="6.93409">
        <ele>265.9</ele>
        <time>2013-04-24T07:20:07Z</time>
      </trkpt>
      <trkpt lat="49.07802" lon="6.93417">
        <ele>265.3</ele>
        <time>2013-04-24T07:20:12Z</time>
      </trkpt>
      <trkpt lat="49.07797" lon="6.93423">
        <ele>266.2</ele>
        <time>2013-04-24T07:20:17Z</time>
      </trkpt>
      <trkpt lat="49.07793" lon="6.9343">
        <ele>266.6</ele>
        <time>2013-04-24T07:20:22Z</time>
      </trkpt>
      <trkpt lat="49.07788" lon="6.93436">
        <ele>267.9</ele>
        <time>2013-04-24T07:20:27Z</time>
      </trkpt>
      <trkpt lat="49.07787" lon="6.93437">
        <ele>267.9</ele>
        <time>2013-04-24T07:20:28Z</time>
      </trkpt>
      <trkpt lat="49.07785" lon="6.93451">
        <ele>268.2</ele>
        <time>2013-04-24T07:20:37Z</time>
      </trkpt>
      <trkpt lat="49.07785" lon="6.9346">
        <ele>268.5</ele>
        <time>2013-04-24T07:20:42Z</time>
      </trkpt>
      <trkpt lat="49.07785" lon="6.9347">
        <ele>267.8</ele>
        <time>2013-04-24T07:20:47Z</time>
      </trkpt>
      <trkpt lat="49.07786" lon="6.9348">
        <ele>268.8</ele>
        <time>2013-04-24T07:20:52Z</time>
      </trkpt>
      <trkpt lat="49.07786" lon="6.9349">
        <ele>268.5</ele>
        <time>2013-04-24T07:20:57Z</time>
      </trkpt>
      <trkpt lat="49.07786" lon="6.935">
        <ele>268.8</ele>
        <time>2013-04-24T07:21:02Z</time>
      </trkpt>
      <trkpt lat="49.07785" lon="6.9351">
        <ele>269</ele>
        <time>2013-04-24T07:21:07Z</time>
      </trkpt>
      <trkpt lat="49.07783" lon="6.9352">
        <ele>268.6</ele>
        <time>2013-04-24T07:21:12Z</time>
      </trkpt>
      <trkpt lat="49.07783" lon="6.9353">
        <ele>270.2</ele>
        <time>2013-04-24T07:21:17Z</time>
      </trkpt>
      <trkpt lat="49.07784" lon="6.9354">
        <ele>269.9</ele>
        <time>2013-04-24T07:21:22Z</time>
      </trkpt>
      <trkpt lat="49.07784" lon="6.9355">
        <ele>269.9</ele>
        <time>2013-04-24T07:21:27Z</time>
      </trkpt>
      <trkpt lat="49.07784" lon="6.93561">
        <ele>270.4</ele>
        <time>2013-04-24T07:21:32Z</time>
      </trkpt>
      <trkpt lat="49.07784" lon="6.93564">
        <ele>270.7</ele>
        <time>2013-04-24T07:21:33Z</time>
      </trkpt>
      <trkpt lat="49.07781" lon="6.93584">
        <ele>271.4</ele>
        <time>2013-04-24T07:21:42Z</time>
      </trkpt>
      <trkpt lat="49.0778" lon="6.93596">
        <ele>270.8</ele>
        <time>2013-04-24T07:21:47Z</time>
      </trkpt>
      <trkpt lat="49.0778" lon="6.93607">
        <ele>271.3</ele>
        <time>2013-04-24T07:21:52Z</time>
      </trkpt>
      <trkpt lat="49.07779" lon="6.93617">
        <ele>272.4</ele>
        <time>2013-04-24T07:21:57Z</time>
      </trkpt>
      <trkpt lat="49.07777" lon="6.93628">
        <ele>273.1</ele>
        <time>2013-04-24T07:22:02Z</time>
      </trkpt>
      <trkpt lat="49.07776" lon="6.93637">
        <ele>273.7</ele>
        <time>2013-04-24T07:22:07Z</time>
      </trkpt>
      <trkpt lat="49.07772" lon="6.93645">
        <ele>273.6</ele>
        <time>2013-04-24T07:22:12Z</time>
      </trkpt>
      <trkpt lat="49.07767" lon="6.93652">
        <ele>274.7</ele>
        <time>2013-04-24T07:22:17Z</time>
      </trkpt>
      <trkpt lat="49.07762" lon="6.93658">
        <ele>274.9</ele>
        <time>2013-04-24T07:22:22Z</time>
      </trkpt>
      <trkpt lat="49.07756" lon="6.93665">
        <ele>275.4</ele>
        <time>2013-04-24T07:22:27Z</time>
      </trkpt>
      <trkpt lat="49.07751" lon="6.93671">
        <ele>275.8</ele>
        <time>2013-04-24T07:22:32Z</time>
      </trkpt>
      <trkpt lat="49.07744" lon="6.93677">
        <ele>276.4</ele>
        <time>2013-04-24T07:22:37Z</time>
      </trkpt>
      <trkpt lat="49.07743" lon="6.93678">
        <ele>276.6</ele>
        <time>2013-04-24T07:22:38Z</time>
      </trkpt>
      <trkpt lat="49.07733" lon="6.93687">
        <ele>277</ele>
        <time>2013-04-24T07:22:47Z</time>
      </trkpt>
      <trkpt lat="49.07727" lon="6.93692">
        <ele>278.1</ele>
        <time>2013-04-24T07:22:52Z</time>
      </trkpt>
      <trkpt lat="49.07721" lon="6.93697">
        <ele>278.8</ele>
        <time>2013-04-24T07:22:57Z</time>
      </trkpt>
      <trkpt lat="49.07715" lon="6.93701">
        <ele>278.9</ele>
        <time>2013-04-24T07:23:02Z</time>
      </trkpt>
      <trkpt lat="49.07709" lon="6.93705">
        <ele>279.5</ele>
        <time>2013-04-24T07:23:07Z</time>
      </trkpt>
      <trkpt lat="49.07703" lon="6.93709">
        <ele>279.8</ele>
        <time>2013-04-24T07:23:12Z</time>
      </trkpt>
      <trkpt lat="49.07697" lon="6.93713">
        <ele>280.1</ele>
        <time>2013-04-24T07:23:17Z</time>
      </trkpt>
      <trkpt lat="49.07691" lon="6.93717">
        <ele>281.5</ele>
        <time>2013-04-24T07:23:22Z</time>
      </trkpt>
      <trkpt lat="49.07685" lon="6.93721">
        <ele>282</ele>
        <time>2013-04-24T07:23:27Z</time>
      </trkpt>
      <trkpt lat="49.07679" lon="6.93725">
        <ele>282.8</ele>
        <time>2013-04-24T07:23:32Z</time>
      </trkpt>
      <trkpt lat="49.07673" lon="6.93729">
        <ele>283.3</ele>
        <time>2013-04-24T07:23:37Z</time>
      </trkpt>
      <trkpt lat="49.07668" lon="6.93732">
        <ele>282.8</ele>
        <time>2013-04-24T07:23:42Z</time>
      </trkpt>
      <trkpt lat="49.07667" lon="6.93733">
        <ele>283.5</ele>
        <time>2013-04-24T07:23:43Z</time>
      </trkpt>
      <trkpt lat="49.07667" lon="6.93748">
        <ele>285.4</ele>
        <time>2013-04-24T07:23:52Z</time>
      </trkpt>
      <trkpt lat="49.07671" lon="6.93755">
        <ele>284.9</ele>
        <time>2013-04-24T07:23:57Z</time>
      </trkpt>
      <trkpt lat="49.07674" lon="6.93762">
        <ele>284.7</ele>
        <time>2013-04-24T07:24:02Z</time>
      </trkpt>
      <trkpt lat="49.07678" lon="6.93767">
        <ele>284.8</ele>
        <time>2013-04-24T07:24:07Z</time>
      </trkpt>
      <trkpt lat="49.0768" lon="6.93771">
        <ele>284.9</ele>
        <time>2013-04-24T07:24:12Z</time>
      </trkpt>
      <trkpt lat="49.07681" lon="6.93771">
        <ele>284.4</ele>
        <time>2013-04-24T07:24:17Z</time>
      </trkpt>
      <trkpt lat="49.07681" lon="6.93772">
        <ele>284.7</ele>
        <time>2013-04-24T07:24:22Z</time>
      </trkpt>
      <trkpt lat="49.07681" lon="6.93772">
        <ele>284.9</ele>
        <time>2013-04-24T07:24:27Z</time>
      </trkpt>
      <trkpt lat="49.07681" lon="6.93772">
        <ele>284.3</ele>
        <time>2013-04-24T07:24:32Z</time>
      </trkpt>
      <trkpt lat="49.0768" lon="6.93772">
        <ele>284</ele>
        <time>2013-04-24T07:24:37Z</time>
      </trkpt>
      <trkpt lat="49.0768" lon="6.93771">
        <ele>284.1</ele>
        <time>2013-04-24T07:24:42Z</time>
      </trkpt>
      <trkpt lat="49.07679" lon="6.9377">
        <ele>284.7</ele>
        <time>2013-04-24T07:24:47Z</time>
      </trkpt>
      <trkpt lat="49.07679" lon="6.9377">
        <ele>284.5</ele>
        <time>2013-04-24T07:24:48Z</time>
      </trkpt>
      <trkpt lat="49.07678" lon="6.93769">
        <ele>284.8</ele>
        <time>2013-04-24T07:24:57Z</time>
      </trkpt>
      <trkpt lat="49.07678" lon="6.93768">
        <ele>283.9</ele>
        <time>2013-04-24T07:25:02Z</time>
      </trkpt>
      <trkpt lat="49.07677" lon="6.93767">
        <ele>283.9</ele>
        <time>2013-04-24T07:25:07Z</time>
      </trkpt>
      <trkpt lat="49.07677" lon="6.93766">
        <ele>284.1</ele>
        <time>2013-04-24T07:25:12Z</time>
      </trkpt>
      <trkpt lat="49.07677" lon="6.93766">
        <ele>284.5</ele>
        <time>2013-04-24T07:25:17Z</time>
      </trkpt>
      <trkpt lat="49.07677" lon="6.93766">
        <ele>284.5</ele>
        <time>2013-04-24T07:25:22Z</time>
      </trkpt>
      <trkpt lat="49.07677" lon="6.93767">
        <ele>283.9</ele>
        <time>2013-04-24T07:25:27Z</time>
      </trkpt>
      <trkpt lat="49.07678" lon="6.93768">
        <ele>283.7</ele>
        <time>2013-04-24T07:25:32Z</time>
      </trkpt>
      <trkpt lat="49.07678" lon="6.93768">
        <ele>284.6</ele>
        <time>2013-04-24T07:25:37Z</time>
      </trkpt>
      <trkpt lat="49.07678" lon="6.93769">
        <ele>284.5</ele>
        <time>2013-04-24T07:25:42Z</time>
      </trkpt>
      <trkpt lat="49.07678" lon="6.93769">
        <ele>284.5</ele>
        <time>2013-04-24T07:25:47Z</time>
      </trkpt>
      <trkpt lat="49.07678" lon="6.93768">
        <ele>283.4</ele>
        <time>2013-04-24T07:25:52Z</time>
      </trkpt>
      <trkpt lat="49.07678" lon="6.93768">
        <ele>283.7</ele>
        <time>2013-04-24T07:25:53Z</time>
      </trkpt>
      <trkpt lat="49.07677" lon="6.93766">
        <ele>283</ele>
        <time>2013-04-24T07:26:02Z</time>
      </trkpt>
      <trkpt lat="49.07677" lon="6.93765">
        <ele>283.3</ele>
        <time>2013-04-24T07:26:07Z</time>
      </trkpt>
      <trkpt lat="49.07677" lon="6.93766">
        <ele>283.5</ele>
        <time>2013-04-24T07:26:12Z</time>
      </trkpt>
      <trkpt lat="49.0768" lon="6.93771">
        <ele>285</ele>
        <time>2013-04-24T07:26:17Z</time>
      </trkpt>
      <trkpt lat="49.07684" lon="6.9378">
        <ele>284.2</ele>
        <time>2013-04-24T07:26:22Z</time>
      </trkpt>
      <trkpt lat="49.07684" lon="6.9378">
        <ele>284.2</ele>
        <time>2013-04-24T07:26:22Z</time>
      </trkpt>
      <trkpt lat="49.07687" lon="6.93789">
        <ele>283.4</ele>
        <time>2013-04-24T07:26:27Z</time>
      </trkpt>
      <trkpt lat="49.0769" lon="6.93798">
        <ele>284.4</ele>
        <time>2013-04-24T07:26:32Z</time>
      </trkpt>
      <trkpt lat="49.07692" lon="6.93808">
        <ele>284.3</ele>
        <time>2013-04-24T07:26:37Z</time>
      </trkpt>
      <trkpt lat="49.07695" lon="6.93818">
        <ele>284.5</ele>
        <time>2013-04-24T07:26:42Z</time>
      </trkpt>
      <trkpt lat="49.07698" lon="6.93828">
        <ele>282.6</ele>
        <time>2013-04-24T07:26:47Z</time>
      </trkpt>
      <trkpt lat="49.07701" lon="6.93837">
        <ele>282.9</ele>
        <time>2013-04-24T07:26:52Z</time>
      </trkpt>
      <trkpt lat="49.07703" lon="6.93846">
        <ele>283.1</ele>
        <time>2013-04-24T07:26:57Z</time>
      </trkpt>
      <trkpt lat="49.07704" lon="6.93848">
        <ele>283.4</ele>
        <time>2013-04-24T07:26:58Z</time>
      </trkpt>
      <trkpt lat="49.07707" lon="6.93866">
        <ele>282.2</ele>
        <time>2013-04-24T07:27:07Z</time>
      </trkpt>
      <trkpt lat="49.07709" lon="6.93876">
        <ele>282.1</ele>
        <time>2013-04-24T07:27:12Z</time>
      </trkpt>
      <trkpt lat="49.07711" lon="6.93886">
        <ele>281.4</ele>
        <time>2013-04-24T07:27:17Z</time>
      </trkpt>
      <trkpt lat="49.07712" lon="6.93895">
        <ele>282</ele>
        <time>2013-04-24T07:27:22Z</time>
      </trkpt>
      <trkpt lat="49.07713" lon="6.93905">
        <ele>281.7</ele>
        <time>2013-04-24T07:27:27Z</time>
      </trkpt>
      <trkpt lat="49.07715" lon="6.93913">
        <ele>281.2</ele>
        <time>2013-04-24T07:27:32Z</time>
      </trkpt>
      <trkpt lat="49.07716" lon="6.93921">
        <ele>283.2</ele>
        <time>2013-04-24T07:27:37Z</time>
      </trkpt>
      <trkpt lat="49.07717" lon="6.93931">
        <ele>282.8</ele>
        <time>2013-04-24T07:27:42Z</time>
      </trkpt>
      <trkpt lat="49.07719" lon="6.93942">
        <ele>282.4</ele>
        <time>2013-04-24T07:27:47Z</time>
      </trkpt>
      <trkpt lat="49.07721" lon="6.93952">
        <ele>281.8</ele>
        <time>2013-04-24T07:27:52Z</time>
      </trkpt>
      <trkpt lat="49.07723" lon="6.93962">
        <ele>282.3</ele>
        <time>2013-04-24T07:27:57Z</time>
      </trkpt>
      <trkpt lat="49.07725" lon="6.93971">
        <ele>282</ele>
        <time>2013-04-24T07:28:02Z</time>
      </trkpt>
      <trkpt lat="49.07725" lon="6.93973">
        <ele>281.9</ele>
        <time>2013-04-24T07:28:03Z</time>
      </trkpt>
      <trkpt lat="49.07725" lon="6.93985">
        <ele>282</ele>
        <time>2013-04-24T07:28:12Z</time>
      </trkpt>
      <trkpt lat="49.07726" lon="6.93993">
        <ele>281.7</ele>
        <time>2013-04-24T07:28:17Z</time>
      </trkpt>
      <trkpt lat="49.07729" lon="6.94">
        <ele>280.3</ele>
        <time>2013-04-24T07:28:22Z</time>
      </trkpt>
      <trkpt lat="49.07733" lon="6.94008">
        <ele>280.9</ele>
        <time>2013-04-24T07:28:27Z</time>
      </trkpt>
      <trkpt lat="49.07736" lon="6.94015">
        <ele>280.2</ele>
        <time>2013-04-24T07:28:32Z</time>
      </trkpt>
      <trkpt lat="49.0774" lon="6.94023">
        <ele>280.8</ele>
        <time>2013-04-24T07:28:37Z</time>
      </trkpt>
      <trkpt lat="49.07745" lon="6.94031">
        <ele>281.2</ele>
        <time>2013-04-24T07:28:42Z</time>
      </trkpt>
      <trkpt lat="49.07748" lon="6.94038">
        <ele>281.1</ele>
        <time>2013-04-24T07:28:47Z</time>
      </trkpt>
      <trkpt lat="49.07752" lon="6.94047">
        <ele>280.5</ele>
        <time>2013-04-24T07:28:52Z</time>
      </trkpt>
      <trkpt lat="49.07754" lon="6.94056">
        <ele>279.9</ele>
        <time>2013-04-24T07:28:57Z</time>
      </trkpt>
      <trkpt lat="49.07758" lon="6.94066">
        <ele>280.1</ele>
        <time>2013-04-24T07:29:02Z</time>
      </trkpt>
      <trkpt lat="49.07761" lon="6.94073">
        <ele>280.8</ele>
        <time>2013-04-24T07:29:07Z</time>
      </trkpt>
      <trkpt lat="49.07761" lon="6.94074">
        <ele>280.9</ele>
        <time>2013-04-24T07:29:08Z</time>
      </trkpt>
      <trkpt lat="49.07767" lon="6.94088">
        <ele>279.8</ele>
        <time>2013-04-24T07:29:17Z</time>
      </trkpt>
      <trkpt lat="49.0777" lon="6.94097">
        <ele>279.9</ele>
        <time>2013-04-24T07:29:22Z</time>
      </trkpt>
      <trkpt lat="49.07774" lon="6.94106">
        <ele>279.8</ele>
        <time>2013-04-24T07:29:27Z</time>
      </trkpt>
      <trkpt lat="49.07778" lon="6.94115">
        <ele>280.1</ele>
        <time>2013-04-24T07:29:32Z</time>
      </trkpt>
      <trkpt lat="49.07782" lon="6.94124">
        <ele>280.6</ele>
        <time>2013-04-24T07:29:37Z</time>
      </trkpt>
      <trkpt lat="49.07786" lon="6.94132">
        <ele>279</ele>
        <time>2013-04-24T07:29:42Z</time>
      </trkpt>
      <trkpt lat="49.07789" lon="6.9414">
        <ele>279.2</ele>
        <time>2013-04-24T07:29:47Z</time>
      </trkpt>
      <trkpt lat="49.07792" lon="6.94148">
        <ele>279</ele>
        <time>2013-04-24T07:29:52Z</time>
      </trkpt>
      <trkpt lat="49.07796" lon="6.94156">
        <ele>279.1</ele>
        <time>2013-04-24T07:29:57Z</time>
      </trkpt>
      <trkpt lat="49.078" lon="6.94165">
        <ele>279.4</ele>
        <time>2013-04-24T07:30:02Z</time>
      </trkpt>
      <trkpt lat="49.07803" lon="6.94172">
        <ele>278.8</ele>
        <time>2013-04-24T07:30:07Z</time>
      </trkpt>
      <trkpt lat="49.07806" lon="6.9418">
        <ele>278</ele>
        <time>2013-04-24T07:30:12Z</time>
      </trkpt>
      <trkpt lat="49.07806" lon="6.94181">
        <ele>278</ele>
        <time>2013-04-24T07:30:13Z</time>
      </trkpt>
      <trkpt lat="49.07813" lon="6.94197">
        <ele>278.9</ele>
        <time>2013-04-24T07:30:22Z</time>
      </trkpt>
      <trkpt lat="49.07816" lon="6.94205">
        <ele>278.4</ele>
        <time>2013-04-24T07:30:27Z</time>
      </trkpt>
      <trkpt lat="49.0782" lon="6.94213">
        <ele>278.1</ele>
        <time>2013-04-24T07:30:32Z</time>
      </trkpt>
      <trkpt lat="49.07824" lon="6.94222">
        <ele>278.5</ele>
        <time>2013-04-24T07:30:37Z</time>
      </trkpt>
      <trkpt lat="49.07827" lon="6.9423">
        <ele>277.3</ele>
        <time>2013-04-24T07:30:42Z</time>
      </trkpt>
      <trkpt lat="49.07831" lon="6.94238">
        <ele>277.6</ele>
        <time>2013-04-24T07:30:47Z</time>
      </trkpt>
      <trkpt lat="49.07835" lon="6.94245">
        <ele>277.8</ele>
        <time>2013-04-24T07:30:52Z</time>
      </trkpt>
      <trkpt lat="49.07839" lon="6.94254">
        <ele>277.7</ele>
        <time>2013-04-24T07:30:57Z</time>
      </trkpt>
      <trkpt lat="49.07841" lon="6.94261">
        <ele>277.6</ele>
        <time>2013-04-24T07:31:02Z</time>
      </trkpt>
      <trkpt lat="49.07845" lon="6.94269">
        <ele>276</ele>
        <time>2013-04-24T07:31:07Z</time>
      </trkpt>
      <trkpt lat="49.07848" lon="6.94278">
        <ele>277</ele>
        <time>2013-04-24T07:31:12Z</time>
      </trkpt>
      <trkpt lat="49.07853" lon="6.94284">
        <ele>277.7</ele>
        <time>2013-04-24T07:31:17Z</time>
      </trkpt>
      <trkpt lat="49.07854" lon="6.94284">
        <ele>277.6</ele>
        <time>2013-04-24T07:31:18Z</time>
      </trkpt>
      <trkpt lat="49.07863" lon="6.94281">
        <ele>275.7</ele>
        <time>2013-04-24T07:31:27Z</time>
      </trkpt>
      <trkpt lat="49.07865" lon="6.94278">
        <ele>277.4</ele>
        <time>2013-04-24T07:31:32Z</time>
      </trkpt>
      <trkpt lat="49.07869" lon="6.94275">
        <ele>276.8</ele>
        <time>2013-04-24T07:31:37Z</time>
      </trkpt>
      <trkpt lat="49.07873" lon="6.94271">
        <ele>276.5</ele>
        <time>2013-04-24T07:31:42Z</time>
      </trkpt>
      <trkpt lat="49.07877" lon="6.94266">
        <ele>275.4</ele>
        <time>2013-04-24T07:31:47Z</time>
      </trkpt>
      <trkpt lat="49.07882" lon="6.94262">
        <ele>274.3</ele>
        <time>2013-04-24T07:31:52Z</time>
      </trkpt>
      <trkpt lat="49.07886" lon="6.94258">
        <ele>273.8</ele>
        <time>2013-04-24T07:31:57Z</time>
      </trkpt>
      <trkpt lat="49.0789" lon="6.94254">
        <ele>272.8</ele>
        <time>2013-04-24T07:32:02Z</time>
      </trkpt>
      <trkpt lat="49.07895" lon="6.94249">
        <ele>272.6</ele>
        <time>2013-04-24T07:32:07Z</time>
      </trkpt>
      <trkpt lat="49.079" lon="6.94244">
        <ele>271.7</ele>
        <time>2013-04-24T07:32:12Z</time>
      </trkpt>
      <trkpt lat="49.07904" lon="6.9424">
        <ele>270.5</ele>
        <time>2013-04-24T07:32:17Z</time>
      </trkpt>
      <trkpt lat="49.07909" lon="6.94236">
        <ele>269.9</ele>
        <time>2013-04-24T07:32:22Z</time>
      </trkpt>
      <trkpt lat="49.0791" lon="6.94235">
        <ele>270.2</ele>
        <time>2013-04-24T07:32:23Z</time>
      </trkpt>
      <trkpt lat="49.07918" lon="6.94226">
        <ele>268</ele>
        <time>2013-04-24T07:32:32Z</time>
      </trkpt>
      <trkpt lat="49.07923" lon="6.94221">
        <ele>267.1</ele>
        <time>2013-04-24T07:32:37Z</time>
      </trkpt>
      <trkpt lat="49.07928" lon="6.94216">
        <ele>266.8</ele>
        <time>2013-04-24T07:32:42Z</time>
      </trkpt>
      <trkpt lat="49.07932" lon="6.94211">
        <ele>265.9</ele>
        <time>2013-04-24T07:32:47Z</time>
      </trkpt>
      <trkpt lat="49.07937" lon="6.94206">
        <ele>265.5</ele>
        <time>2013-04-24T07:32:52Z</time>
      </trkpt>
      <trkpt lat="49.07942" lon="6.94201">
        <ele>264.4</ele>
        <time>2013-04-24T07:32:57Z</time>
      </trkpt>
      <trkpt lat="49.07947" lon="6.94196">
        <ele>263.6</ele>
        <time>2013-04-24T07:33:02Z</time>
      </trkpt>
      <trkpt lat="49.07952" lon="6.94191">
        <ele>264.2</ele>
        <time>2013-04-24T07:33:07Z</time>
      </trkpt>
      <trkpt lat="49.07957" lon="6.94186">
        <ele>262.5</ele>
        <time>2013-04-24T07:33:12Z</time>
      </trkpt>
      <trkpt lat="49.07962" lon="6.94181">
        <ele>262.1</ele>
        <time>2013-04-24T07:33:17Z</time>
      </trkpt>
      <trkpt lat="49.07966" lon="6.94177">
        <ele>262.6</ele>
        <time>2013-04-24T07:33:22Z</time>
      </trkpt>
      <trkpt lat="49.0797" lon="6.94172">
        <ele>262</ele>
        <time>2013-04-24T07:33:27Z</time>
      </trkpt>
      <trkpt lat="49.07971" lon="6.9417">
        <ele>262.2</ele>
        <time>2013-04-24T07:33:28Z</time>
      </trkpt>
      <trkpt lat="49.07977" lon="6.94161">
        <ele>261.6</ele>
        <time>2013-04-24T07:33:37Z</time>
      </trkpt>
      <trkpt lat="49.07982" lon="6.94158">
        <ele>260.9</ele>
        <time>2013-04-24T07:33:42Z</time>
      </trkpt>
      <trkpt lat="49.07987" lon="6.94155">
        <ele>261.4</ele>
        <time>2013-04-24T07:33:47Z</time>
      </trkpt>
      <trkpt lat="49.07992" lon="6.94152">
        <ele>260.8</ele>
        <time>2013-04-24T07:33:52Z</time>
      </trkpt>
      <trkpt lat="49.07997" lon="6.94149">
        <ele>261.3</ele>
        <time>2013-04-24T07:33:57Z</time>
      </trkpt>
      <trkpt lat="49.08001" lon="6.94148">
        <ele>261.1</ele>
        <time>2013-04-24T07:34:02Z</time>
      </trkpt>
      <trkpt lat="49.08006" lon="6.94148">
        <ele>261</ele>
        <time>2013-04-24T07:34:07Z</time>
      </trkpt>
      <trkpt lat="49.08009" lon="6.94148">
        <ele>260.9</ele>
        <time>2013-04-24T07:34:12Z</time>
      </trkpt>
      <trkpt lat="49.0801" lon="6.94148">
        <ele>260.8</ele>
        <time>2013-04-24T07:34:17Z</time>
      </trkpt>
      <trkpt lat="49.0801" lon="6.94148">
        <ele>260.7</ele>
        <time>2013-04-24T07:34:22Z</time>
      </trkpt>
      <trkpt lat="49.08009" lon="6.94146">
        <ele>260.8</ele>
        <time>2013-04-24T07:34:27Z</time>
      </trkpt>
      <trkpt lat="49.08007" lon="6.94145">
        <ele>260.9</ele>
        <time>2013-04-24T07:34:32Z</time>
      </trkpt>
      <trkpt lat="49.08007" lon="6.94145">
        <ele>260.8</ele>
        <time>2013-04-24T07:34:33Z</time>
      </trkpt>
      <trkpt lat="49.08011" lon="6.94145">
        <ele>260.3</ele>
        <time>2013-04-24T07:34:42Z</time>
      </trkpt>
      <trkpt lat="49.08017" lon="6.94145">
        <ele>261</ele>
        <time>2013-04-24T07:34:47Z</time>
      </trkpt>
      <trkpt lat="49.08022" lon="6.94146">
        <ele>260.5</ele>
        <time>2013-04-24T07:34:52Z</time>
      </trkpt>
      <trkpt lat="49.08028" lon="6.94147">
        <ele>261</ele>
        <time>2013-04-24T07:34:57Z</time>
      </trkpt>
      <trkpt lat="49.08036" lon="6.94148">
        <ele>260.8</ele>
        <time>2013-04-24T07:35:02Z</time>
      </trkpt>
      <trkpt lat="49.08042" lon="6.94148">
        <ele>261.3</ele>
        <time>2013-04-24T07:35:07Z</time>
      </trkpt>
      <trkpt lat="49.0805" lon="6.94149">
        <ele>261.8</ele>
        <time>2013-04-24T07:35:12Z</time>
      </trkpt>
      <trkpt lat="49.08058" lon="6.94149">
        <ele>261.7</ele>
        <time>2013-04-24T07:35:17Z</time>
      </trkpt>
      <trkpt lat="49.08067" lon="6.94149">
        <ele>262.3</ele>
        <time>2013-04-24T07:35:22Z</time>
      </trkpt>
      <trkpt lat="49.08073" lon="6.94148">
        <ele>261.9</ele>
        <time>2013-04-24T07:35:27Z</time>
      </trkpt>
      <trkpt lat="49.08081" lon="6.94146">
        <ele>263.4</ele>
        <time>2013-04-24T07:35:32Z</time>
      </trkpt>
      <trkpt lat="49.08087" lon="6.94144">
        <ele>262.6</ele>
        <time>2013-04-24T07:35:37Z</time>
      </trkpt>
      <trkpt lat="49.08088" lon="6.94144">
        <ele>262.5</ele>
        <time>2013-04-24T07:35:38Z</time>
      </trkpt>
      <trkpt lat="49.08104" lon="6.94143">
        <ele>262.4</ele>
        <time>2013-04-24T07:35:47Z</time>
      </trkpt>
      <trkpt lat="49.08112" lon="6.94144">
        <ele>261.7</ele>
        <time>2013-04-24T07:35:52Z</time>
      </trkpt>
      <trkpt lat="49.08119" lon="6.94144">
        <ele>261.6</ele>
        <time>2013-04-24T07:35:57Z</time>
      </trkpt>
      <trkpt lat="49.08126" lon="6.94142">
        <ele>261.6</ele>
        <time>2013-04-24T07:36:02Z</time>
      </trkpt>
      <trkpt lat="49.08133" lon="6.94141">
        <ele>261.1</ele>
        <time>2013-04-24T07:36:07Z</time>
      </trkpt>
      <trkpt lat="49.08139" lon="6.9414">
        <ele>262</ele>
        <time>2013-04-24T07:36:12Z</time>
      </trkpt>
      <trkpt lat="49.08146" lon="6.9414">
        <ele>262</ele>
        <time>2013-04-24T07:36:17Z</time>
      </trkpt>
      <trkpt lat="49.08154" lon="6.94141">
        <ele>262.5</ele>
        <time>2013-04-24T07:36:22Z</time>
      </trkpt>
      <trkpt lat="49.08162" lon="6.94141">
        <ele>262</ele>
        <time>2013-04-24T07:36:27Z</time>
      </trkpt>
      <trkpt lat="49.08169" lon="6.9414">
        <ele>262.4</ele>
        <time>2013-04-24T07:36:32Z</time>
      </trkpt>
      <trkpt lat="49.08176" lon="6.94139">
        <ele>262.1</ele>
        <time>2013-04-24T07:36:37Z</time>
      </trkpt>
      <trkpt lat="49.08184" lon="6.94138">
        <ele>262.3</ele>
        <time>2013-04-24T07:36:42Z</time>
      </trkpt>
      <trkpt lat="49.08185" lon="6.94138">
        <ele>262.4</ele>
        <time>2013-04-24T07:36:43Z</time>
      </trkpt>
      <trkpt lat="49.08199" lon="6.94138">
        <ele>263.6</ele>
        <time>2013-04-24T07:36:52Z</time>
      </trkpt>
      <trkpt lat="49.08204" lon="6.94137">
        <ele>264</ele>
        <time>2013-04-24T07:36:57Z</time>
      </trkpt>
      <trkpt lat="49.08211" lon="6.94138">
        <ele>263.2</ele>
        <time>2013-04-24T07:37:02Z</time>
      </trkpt>
      <trkpt lat="49.08218" lon="6.9414">
        <ele>263.4</ele>
        <time>2013-04-24T07:37:07Z</time>
      </trkpt>
      <trkpt lat="49.08223" lon="6.94142">
        <ele>263.9</ele>
        <time>2013-04-24T07:37:12Z</time>
      </trkpt>
      <trkpt lat="49.08229" lon="6.94144">
        <ele>263.1</ele>
        <time>2013-04-24T07:37:17Z</time>
      </trkpt>
      <trkpt lat="49.08234" lon="6.94146">
        <ele>263.1</ele>
        <time>2013-04-24T07:37:22Z</time>
      </trkpt>
      <trkpt lat="49.0824" lon="6.9415">
        <ele>263.2</ele>
        <time>2013-04-24T07:37:27Z</time>
      </trkpt>
      <trkpt lat="49.08246" lon="6.94153">
        <ele>263.3</ele>
        <time>2013-04-24T07:37:32Z</time>
      </trkpt>
      <trkpt lat="49.08253" lon="6.94158">
        <ele>263.5</ele>
        <time>2013-04-24T07:37:37Z</time>
      </trkpt>
      <trkpt lat="49.0826" lon="6.94164">
        <ele>262.8</ele>
        <time>2013-04-24T07:37:42Z</time>
      </trkpt>
      <trkpt lat="49.08267" lon="6.94168">
        <ele>261.1</ele>
        <time>2013-04-24T07:37:47Z</time>
      </trkpt>
      <trkpt lat="49.08268" lon="6.94169">
        <ele>261.1</ele>
        <time>2013-04-24T07:37:48Z</time>
      </trkpt>
      <trkpt lat="49.08279" lon="6.94179">
        <ele>262</ele>
        <time>2013-04-24T07:37:57Z</time>
      </trkpt>
      <trkpt lat="49.08286" lon="6.94186">
        <ele>262.3</ele>
        <time>2013-04-24T07:38:02Z</time>
      </trkpt>
      <trkpt lat="49.0829" lon="6.94191">
        <ele>261.7</ele>
        <time>2013-04-24T07:38:07Z</time>
      </trkpt>
      <trkpt lat="49.08295" lon="6.94198">
        <ele>260.3</ele>
        <time>2013-04-24T07:38:12Z</time>
      </trkpt>
      <trkpt lat="49.083" lon="6.94204">
        <ele>260.4</ele>
        <time>2013-04-24T07:38:17Z</time>
      </trkpt>
      <trkpt lat="49.08306" lon="6.94211">
        <ele>259.8</ele>
        <time>2013-04-24T07:38:22Z</time>
      </trkpt>
      <trkpt lat="49.08312" lon="6.94218">
        <ele>259.1</ele>
        <time>2013-04-24T07:38:27Z</time>
      </trkpt>
      <trkpt lat="49.08317" lon="6.94224">
        <ele>258.8</ele>
        <time>2013-04-24T07:38:32Z</time>
      </trkpt>
      <trkpt lat="49.08324" lon="6.94231">
        <ele>259</ele>
        <time>2013-04-24T07:38:37Z</time>
      </trkpt>
      <trkpt lat="49.08324" lon="6.94231">
        <ele>259</ele>
        <time>2013-04-24T07:38:37Z</time>
      </trkpt>
      <trkpt lat="49.08329" lon="6.94237">
        <ele>258.9</ele>
        <time>2013-04-24T07:38:42Z</time>
      </trkpt>
      <trkpt lat="49.08334" lon="6.94244">
        <ele>258.4</ele>
        <time>2013-04-24T07:38:47Z</time>
      </trkpt>
      <trkpt lat="49.08338" lon="6.94249">
        <ele>258.1</ele>
        <time>2013-04-24T07:38:52Z</time>
      </trkpt>
      <trkpt lat="49.08339" lon="6.9425">
        <ele>257.9</ele>
        <time>2013-04-24T07:38:53Z</time>
      </trkpt>
      <trkpt lat="49.08349" lon="6.94263">
        <ele>257.9</ele>
        <time>2013-04-24T07:39:02Z</time>
      </trkpt>
      <trkpt lat="49.08354" lon="6.9427">
        <ele>258.1</ele>
        <time>2013-04-24T07:39:07Z</time>
      </trkpt>
      <trkpt lat="49.08359" lon="6.94276">
        <ele>257.6</ele>
        <time>2013-04-24T07:39:12Z</time>
      </trkpt>
      <trkpt lat="49.08363" lon="6.94281">
        <ele>257.8</ele>
        <time>2013-04-24T07:39:17Z</time>
      </trkpt>
      <trkpt lat="49.08367" lon="6.94286">
        <ele>256.7</ele>
        <time>2013-04-24T07:39:22Z</time>
      </trkpt>
      <trkpt lat="49.08373" lon="6.94293">
        <ele>257.4</ele>
        <time>2013-04-24T07:39:27Z</time>
      </trkpt>
      <trkpt lat="49.08379" lon="6.94298">
        <ele>256.9</ele>
        <time>2013-04-24T07:39:32Z</time>
      </trkpt>
      <trkpt lat="49.08383" lon="6.94304">
        <ele>256.9</ele>
        <time>2013-04-24T07:39:37Z</time>
      </trkpt>
      <trkpt lat="49.08387" lon="6.94309">
        <ele>256.7</ele>
        <time>2013-04-24T07:39:42Z</time>
      </trkpt>
      <trkpt lat="49.08391" lon="6.94315">
        <ele>256.4</ele>
        <time>2013-04-24T07:39:47Z</time>
      </trkpt>
      <trkpt lat="49.08394" lon="6.94321">
        <ele>256.4</ele>
        <time>2013-04-24T07:39:52Z</time>
      </trkpt>
      <trkpt lat="49.08399" lon="6.94327">
        <ele>255.5</ele>
        <time>2013-04-24T07:39:57Z</time>
      </trkpt>
      <trkpt lat="49.084" lon="6.94329">
        <ele>256</ele>
        <time>2013-04-24T07:39:58Z</time>
      </trkpt>
      <trkpt lat="49.08407" lon="6.94341">
        <ele>255.4</ele>
        <time>2013-04-24T07:40:07Z</time>
      </trkpt>
      <trkpt lat="49.08411" lon="6.94347">
        <ele>255.7</ele>
        <time>2013-04-24T07:40:12Z</time>
      </trkpt>
      <trkpt lat="49.08416" lon="6.94354">
        <ele>255.9</ele>
        <time>2013-04-24T07:40:17Z</time>
      </trkpt>
      <trkpt lat="49.08419" lon="6.94361">
        <ele>255.5</ele>
        <time>2013-04-24T07:40:22Z</time>
      </trkpt>
      <trkpt lat="49.08424" lon="6.94368">
        <ele>256.1</ele>
        <time>2013-04-24T07:40:27Z</time>
      </trkpt>
      <trkpt lat="49.08428" lon="6.94375">
        <ele>256.7</ele>
        <time>2013-04-24T07:40:32Z</time>
      </trkpt>
      <trkpt lat="49.08433" lon="6.94381">
        <ele>255.7</ele>
        <time>2013-04-24T07:40:37Z</time>
      </trkpt>
      <trkpt lat="49.08436" lon="6.94387">
        <ele>255.5</ele>
        <time>2013-04-24T07:40:42Z</time>
      </trkpt>
      <trkpt lat="49.0844" lon="6.94394">
        <ele>255.7</ele>
        <time>2013-04-24T07:40:47Z</time>
      </trkpt>
      <trkpt lat="49.08445" lon="6.944">
        <ele>253.8</ele>
        <time>2013-04-24T07:40:52Z</time>
      </trkpt>
      <trkpt lat="49.08449" lon="6.94408">
        <ele>255.2</ele>
        <time>2013-04-24T07:40:57Z</time>
      </trkpt>
      <trkpt lat="49.08453" lon="6.94415">
        <ele>254</ele>
        <time>2013-04-24T07:41:02Z</time>
      </trkpt>
      <trkpt lat="49.08454" lon="6.94417">
        <ele>254.4</ele>
        <time>2013-04-24T07:41:03Z</time>
      </trkpt>
      <trkpt lat="49.08462" lon="6.94432">
        <ele>255.2</ele>
        <time>2013-04-24T07:41:12Z</time>
      </trkpt>
      <trkpt lat="49.08467" lon="6.94439">
        <ele>253.7</ele>
        <time>2013-04-24T07:41:17Z</time>
      </trkpt>
      <trkpt lat="49.08471" lon="6.94447">
        <ele>254.1</ele>
        <time>2013-04-24T07:41:22Z</time>
      </trkpt>
      <trkpt lat="49.08476" lon="6.94456">
        <ele>253.7</ele>
        <time>2013-04-24T07:41:27Z</time>
      </trkpt>
      <trkpt lat="49.0848" lon="6.94463">
        <ele>253.9</ele>
        <time>2013-04-24T07:41:32Z</time>
      </trkpt>
      <trkpt lat="49.08485" lon="6.94471">
        <ele>253.3</ele>
        <time>2013-04-24T07:41:37Z</time>
      </trkpt>
      <trkpt lat="49.0849" lon="6.94479">
        <ele>253.6</ele>
        <time>2013-04-24T07:41:42Z</time>
      </trkpt>
      <trkpt lat="49.08494" lon="6.94486">
        <ele>253.4</ele>
        <time>2013-04-24T07:41:47Z</time>
      </trkpt>
      <trkpt lat="49.08497" lon="6.94493">
        <ele>253.6</ele>
        <time>2013-04-24T07:41:52Z</time>
      </trkpt>
      <trkpt lat="49.08501" lon="6.94501">
        <ele>253.9</ele>
        <time>2013-04-24T07:41:57Z</time>
      </trkpt>
      <trkpt lat="49.08505" lon="6.94509">
        <ele>253.1</ele>
        <time>2013-04-24T07:42:02Z</time>
      </trkpt>
      <trkpt lat="49.08509" lon="6.94518">
        <ele>253.3</ele>
        <time>2013-04-24T07:42:07Z</time>
      </trkpt>
      <trkpt lat="49.08509" lon="6.94519">
        <ele>253.3</ele>
        <time>2013-04-24T07:42:08Z</time>
      </trkpt>
      <trkpt lat="49.08516" lon="6.94534">
        <ele>253.7</ele>
        <time>2013-04-24T07:42:17Z</time>
      </trkpt>
      <trkpt lat="49.08519" lon="6.94541">
        <ele>254</ele>
        <time>2013-04-24T07:42:22Z</time>
      </trkpt>
      <trkpt lat="49.08523" lon="6.94549">
        <ele>254.2</ele>
        <time>2013-04-24T07:42:27Z</time>
      </trkpt>
      <trkpt lat="49.08527" lon="6.94556">
        <ele>253.7</ele>
        <time>2013-04-24T07:42:32Z</time>
      </trkpt>
      <trkpt lat="49.08531" lon="6.94563">
        <ele>253.7</ele>
        <time>2013-04-24T07:42:37Z</time>
      </trkpt>
      <trkpt lat="49.08536" lon="6.9457">
        <ele>254.3</ele>
        <time>2013-04-24T07:42:42Z</time>
      </trkpt>
      <trkpt lat="49.08541" lon="6.94577">
        <ele>254.8</ele>
        <time>2013-04-24T07:42:47Z</time>
      </trkpt>
      <trkpt lat="49.08546" lon="6.94584">
        <ele>253.8</ele>
        <time>2013-04-24T07:42:52Z</time>
      </trkpt>
      <trkpt lat="49.08551" lon="6.94592">
        <ele>253.8</ele>
        <time>2013-04-24T07:42:57Z</time>
      </trkpt>
      <trkpt lat="49.08555" lon="6.94598">
        <ele>253.6</ele>
        <time>2013-04-24T07:43:02Z</time>
      </trkpt>
      <trkpt lat="49.0856" lon="6.94605">
        <ele>254.3</ele>
        <time>2013-04-24T07:43:07Z</time>
      </trkpt>
      <trkpt lat="49.08564" lon="6.94612">
        <ele>253.6</ele>
        <time>2013-04-24T07:43:12Z</time>
      </trkpt>
      <trkpt lat="49.08565" lon="6.94613">
        <ele>254.1</ele>
        <time>2013-04-24T07:43:13Z</time>
      </trkpt>
      <trkpt lat="49.08573" lon="6.94627">
        <ele>253.9</ele>
        <time>2013-04-24T07:43:22Z</time>
      </trkpt>
      <trkpt lat="49.08578" lon="6.94634">
        <ele>253.8</ele>
        <time>2013-04-24T07:43:27Z</time>
      </trkpt>
      <trkpt lat="49.08582" lon="6.94642">
        <ele>254</ele>
        <time>2013-04-24T07:43:32Z</time>
      </trkpt>
      <trkpt lat="49.08587" lon="6.9465">
        <ele>253.8</ele>
        <time>2013-04-24T07:43:37Z</time>
      </trkpt>
      <trkpt lat="49.08591" lon="6.94658">
        <ele>253.7</ele>
        <time>2013-04-24T07:43:42Z</time>
      </trkpt>
      <trkpt lat="49.08596" lon="6.94666">
        <ele>254</ele>
        <time>2013-04-24T07:43:47Z</time>
      </trkpt>
      <trkpt lat="49.086" lon="6.94673">
        <ele>253</ele>
        <time>2013-04-24T07:43:52Z</time>
      </trkpt>
      <trkpt lat="49.08605" lon="6.94681">
        <ele>253.2</ele>
        <time>2013-04-24T07:43:57Z</time>
      </trkpt>
      <trkpt lat="49.08609" lon="6.94689">
        <ele>254.1</ele>
        <time>2013-04-24T07:44:02Z</time>
      </trkpt>
      <trkpt lat="49.08614" lon="6.94695">
        <ele>253.3</ele>
        <time>2013-04-24T07:44:07Z</time>
      </trkpt>
      <trkpt lat="49.08619" lon="6.94703">
        <ele>253.5</ele>
        <time>2013-04-24T07:44:12Z</time>
      </trkpt>
      <trkpt lat="49.08623" lon="6.94711">
        <ele>254.7</ele>
        <time>2013-04-24T07:44:17Z</time>
      </trkpt>
      <trkpt lat="49.08624" lon="6.94713">
        <ele>254.8</ele>
        <time>2013-04-24T07:44:18Z</time>
      </trkpt>
      <trkpt lat="49.08632" lon="6.94725">
        <ele>254.6</ele>
        <time>2013-04-24T07:44:27Z</time>
      </trkpt>
      <trkpt lat="49.08636" lon="6.94731">
        <ele>254.9</ele>
        <time>2013-04-24T07:44:32Z</time>
      </trkpt>
      <trkpt lat="49.0864" lon="6.94736">
        <ele>256.1</ele>
        <time>2013-04-24T07:44:37Z</time>
      </trkpt>
      <trkpt lat="49.08644" lon="6.94741">
        <ele>254.2</ele>
        <time>2013-04-24T07:44:42Z</time>
      </trkpt>
      <trkpt lat="49.08648" lon="6.94746">
        <ele>254.4</ele>
        <time>2013-04-24T07:44:47Z</time>
      </trkpt>
      <trkpt lat="49.08653" lon="6.94751">
        <ele>252.9</ele>
        <time>2013-04-24T07:44:52Z</time>
      </trkpt>
      <trkpt lat="49.08657" lon="6.94754">
        <ele>253.9</ele>
        <time>2013-04-24T07:44:57Z</time>
      </trkpt>
      <trkpt lat="49.08663" lon="6.94757">
        <ele>254.1</ele>
        <time>2013-04-24T07:45:02Z</time>
      </trkpt>
      <trkpt lat="49.08668" lon="6.9476">
        <ele>254.1</ele>
        <time>2013-04-24T07:45:07Z</time>
      </trkpt>
      <trkpt lat="49.08673" lon="6.94766">
        <ele>253.3</ele>
        <time>2013-04-24T07:45:12Z</time>
      </trkpt>
      <trkpt lat="49.08678" lon="6.9477">
        <ele>253.5</ele>
        <time>2013-04-24T07:45:17Z</time>
      </trkpt>
      <trkpt lat="49.08681" lon="6.94776">
        <ele>253.3</ele>
        <time>2013-04-24T07:45:22Z</time>
      </trkpt>
      <trkpt lat="49.08682" lon="6.94777">
        <ele>253.1</ele>
        <time>2013-04-24T07:45:23Z</time>
      </trkpt>
      <trkpt lat="49.0869" lon="6.94787">
        <ele>253.5</ele>
        <time>2013-04-24T07:45:32Z</time>
      </trkpt>
      <trkpt lat="49.08693" lon="6.94793">
        <ele>252.6</ele>
        <time>2013-04-24T07:45:37Z</time>
      </trkpt>
      <trkpt lat="49.08697" lon="6.948">
        <ele>253.4</ele>
        <time>2013-04-24T07:45:42Z</time>
      </trkpt>
      <trkpt lat="49.087" lon="6.94805">
        <ele>252.4</ele>
        <time>2013-04-24T07:45:47Z</time>
      </trkpt>
      <trkpt lat="49.08704" lon="6.94812">
        <ele>252</ele>
        <time>2013-04-24T07:45:52Z</time>
      </trkpt>
      <trkpt lat="49.08707" lon="6.94818">
        <ele>253.2</ele>
        <time>2013-04-24T07:45:57Z</time>
      </trkpt>
      <trkpt lat="49.08712" lon="6.94824">
        <ele>254.2</ele>
        <time>2013-04-24T07:46:02Z</time>
      </trkpt>
      <trkpt lat="49.08715" lon="6.94828">
        <ele>253.5</ele>
        <time>2013-04-24T07:46:07Z</time>
      </trkpt>
      <trkpt lat="49.08719" lon="6.94834">
        <ele>254</ele>
        <time>2013-04-24T07:46:12Z</time>
      </trkpt>
      <trkpt lat="49.08723" lon="6.9484">
        <ele>252.8</ele>
        <time>2013-04-24T07:46:17Z</time>
      </trkpt>
      <trkpt lat="49.08728" lon="6.94846">
        <ele>253.8</ele>
        <time>2013-04-24T07:46:22Z</time>
      </trkpt>
      <trkpt lat="49.08732" lon="6.94853">
        <ele>254.1</ele>
        <time>2013-04-24T07:46:27Z</time>
      </trkpt>
      <trkpt lat="49.08733" lon="6.94854">
        <ele>254.3</ele>
        <time>2013-04-24T07:46:28Z</time>
      </trkpt>
      <trkpt lat="49.08742" lon="6.94867">
        <ele>253.9</ele>
        <time>2013-04-24T07:46:37Z</time>
      </trkpt>
      <trkpt lat="49.08747" lon="6.94874">
        <ele>254</ele>
        <time>2013-04-24T07:46:42Z</time>
      </trkpt>
      <trkpt lat="49.08752" lon="6.94879">
        <ele>254.6</ele>
        <time>2013-04-24T07:46:47Z</time>
      </trkpt>
      <trkpt lat="49.08757" lon="6.94882">
        <ele>254.3</ele>
        <time>2013-04-24T07:46:52Z</time>
      </trkpt>
      <trkpt lat="49.08762" lon="6.94886">
        <ele>254.2</ele>
        <time>2013-04-24T07:46:57Z</time>
      </trkpt>
      <trkpt lat="49.08767" lon="6.94891">
        <ele>253.7</ele>
        <time>2013-04-24T07:47:02Z</time>
      </trkpt>
      <trkpt lat="49.08772" lon="6.94897">
        <ele>253.9</ele>
        <time>2013-04-24T07:47:07Z</time>
      </trkpt>
      <trkpt lat="49.08776" lon="6.94903">
        <ele>253.5</ele>
        <time>2013-04-24T07:47:12Z</time>
      </trkpt>
      <trkpt lat="49.08782" lon="6.94911">
        <ele>253.8</ele>
        <time>2013-04-24T07:47:17Z</time>
      </trkpt>
      <trkpt lat="49.08787" lon="6.94916">
        <ele>254.2</ele>
        <time>2013-04-24T07:47:22Z</time>
      </trkpt>
      <trkpt lat="49.08791" lon="6.94922">
        <ele>254.3</ele>
        <time>2013-04-24T07:47:27Z</time>
      </trkpt>
      <trkpt lat="49.08795" lon="6.94928">
        <ele>253.9</ele>
        <time>2013-04-24T07:47:32Z</time>
      </trkpt>
      <trkpt lat="49.08795" lon="6.9493">
        <ele>253.6</ele>
        <time>2013-04-24T07:47:33Z</time>
      </trkpt>
      <trkpt lat="49.08797" lon="6.94943">
        <ele>253.6</ele>
        <time>2013-04-24T07:47:42Z</time>
      </trkpt>
      <trkpt lat="49.08798" lon="6.94951">
        <ele>254</ele>
        <time>2013-04-24T07:47:47Z</time>
      </trkpt>
      <trkpt lat="49.088" lon="6.94958">
        <ele>253.5</ele>
        <time>2013-04-24T07:47:52Z</time>
      </trkpt>
      <trkpt lat="49.08804" lon="6.94966">
        <ele>254.2</ele>
        <time>2013-04-24T07:47:57Z</time>
      </trkpt>
      <trkpt lat="49.08808" lon="6.94974">
        <ele>254.2</ele>
        <time>2013-04-24T07:48:02Z</time>
      </trkpt>
      <trkpt lat="49.08811" lon="6.94982">
        <ele>253.6</ele>
        <time>2013-04-24T07:48:07Z</time>
      </trkpt>
      <trkpt lat="49.08814" lon="6.94991">
        <ele>252.7</ele>
        <time>2013-04-24T07:48:12Z</time>
      </trkpt>
      <trkpt lat="49.08817" lon="6.94997">
        <ele>253.5</ele>
        <time>2013-04-24T07:48:17Z</time>
      </trkpt>
      <trkpt lat="49.0882" lon="6.95002">
        <ele>253</ele>
        <time>2013-04-24T07:48:22Z</time>
      </trkpt>
      <trkpt lat="49.08821" lon="6.95005">
        <ele>253.3</ele>
        <time>2013-04-24T07:48:27Z</time>
      </trkpt>
      <trkpt lat="49.08824" lon="6.95012">
        <ele>253.5</ele>
        <time>2013-04-24T07:48:32Z</time>
      </trkpt>
      <trkpt lat="49.08827" lon="6.95019">
        <ele>254</ele>
        <time>2013-04-24T07:48:37Z</time>
      </trkpt>
      <trkpt lat="49.08828" lon="6.95021">
        <ele>253.7</ele>
        <time>2013-04-24T07:48:38Z</time>
      </trkpt>
      <trkpt lat="49.08834" lon="6.95035">
        <ele>252.5</ele>
        <time>2013-04-24T07:48:47Z</time>
      </trkpt>
      <trkpt lat="49.08836" lon="6.95044">
        <ele>253.1</ele>
        <time>2013-04-24T07:48:52Z</time>
      </trkpt>
      <trkpt lat="49.08838" lon="6.9505">
        <ele>252.8</ele>
        <time>2013-04-24T07:48:57Z</time>
      </trkpt>
      <trkpt lat="49.0884" lon="6.95055">
        <ele>252.6</ele>
        <time>2013-04-24T07:49:02Z</time>
      </trkpt>
      <trkpt lat="49.08844" lon="6.95059">
        <ele>252.4</ele>
        <time>2013-04-24T07:49:07Z</time>
      </trkpt>
      <trkpt lat="49.08848" lon="6.95065">
        <ele>252.4</ele>
        <time>2013-04-24T07:49:12Z</time>
      </trkpt>
      <trkpt lat="49.08852" lon="6.95073">
        <ele>252.8</ele>
        <time>2013-04-24T07:49:17Z</time>
      </trkpt>
      <trkpt lat="49.08855" lon="6.9508">
        <ele>253.1</ele>
        <time>2013-04-24T07:49:22Z</time>
      </trkpt>
      <trkpt lat="49.08859" lon="6.95086">
        <ele>252.8</ele>
        <time>2013-04-24T07:49:27Z</time>
      </trkpt>
      <trkpt lat="49.08863" lon="6.95094">
        <ele>253.9</ele>
        <time>2013-04-24T07:49:32Z</time>
      </trkpt>
      <trkpt lat="49.08867" lon="6.95102">
        <ele>252.7</ele>
        <time>2013-04-24T07:49:37Z</time>
      </trkpt>
      <trkpt lat="49.0887" lon="6.9511">
        <ele>252.6</ele>
        <time>2013-04-24T07:49:42Z</time>
      </trkpt>
      <trkpt lat="49.08871" lon="6.95112">
        <ele>252.3</ele>
        <time>2013-04-24T07:49:43Z</time>
      </trkpt>
      <trkpt lat="49.08878" lon="6.95127">
        <ele>251.9</ele>
        <time>2013-04-24T07:49:52Z</time>
      </trkpt>
      <trkpt lat="49.08882" lon="6.95136">
        <ele>252.2</ele>
        <time>2013-04-24T07:49:57Z</time>
      </trkpt>
      <trkpt lat="49.08885" lon="6.95143">
        <ele>251.8</ele>
        <time>2013-04-24T07:50:02Z</time>
      </trkpt>
      <trkpt lat="49.08889" lon="6.95152">
        <ele>251.2</ele>
        <time>2013-04-24T07:50:07Z</time>
      </trkpt>
      <trkpt lat="49.08892" lon="6.95161">
        <ele>251.2</ele>
        <time>2013-04-24T07:50:12Z</time>
      </trkpt>
      <trkpt lat="49.08894" lon="6.9517">
        <ele>251.3</ele>
        <time>2013-04-24T07:50:17Z</time>
      </trkpt>
      <trkpt lat="49.08897" lon="6.95177">
        <ele>251.2</ele>
        <time>2013-04-24T07:50:22Z</time>
      </trkpt>
      <trkpt lat="49.08901" lon="6.95183">
        <ele>250.5</ele>
        <time>2013-04-24T07:50:27Z</time>
      </trkpt>
      <trkpt lat="49.08904" lon="6.9519">
        <ele>251.5</ele>
        <time>2013-04-24T07:50:32Z</time>
      </trkpt>
      <trkpt lat="49.08908" lon="6.95197">
        <ele>250.9</ele>
        <time>2013-04-24T07:50:37Z</time>
      </trkpt>
      <trkpt lat="49.08912" lon="6.95204">
        <ele>250.6</ele>
        <time>2013-04-24T07:50:42Z</time>
      </trkpt>
      <trkpt lat="49.08916" lon="6.95209">
        <ele>249.6</ele>
        <time>2013-04-24T07:50:47Z</time>
      </trkpt>
      <trkpt lat="49.08917" lon="6.9521">
        <ele>249.6</ele>
        <time>2013-04-24T07:50:48Z</time>
      </trkpt>
      <trkpt lat="49.08924" lon="6.9522">
        <ele>250.1</ele>
        <time>2013-04-24T07:50:57Z</time>
      </trkpt>
      <trkpt lat="49.08924" lon="6.9522">
        <ele>250.1</ele>
        <time>2013-04-24T07:50:57Z</time>
      </trkpt>
      <trkpt lat="49.08928" lon="6.95226">
        <ele>250.8</ele>
        <time>2013-04-24T07:51:02Z</time>
      </trkpt>
      <trkpt lat="49.0893" lon="6.95233">
        <ele>250.6</ele>
        <time>2013-04-24T07:51:07Z</time>
      </trkpt>
      <trkpt lat="49.08931" lon="6.9524">
        <ele>250.1</ele>
        <time>2013-04-24T07:51:12Z</time>
      </trkpt>
      <trkpt lat="49.08932" lon="6.95248">
        <ele>250.6</ele>
        <time>2013-04-24T07:51:17Z</time>
      </trkpt>
      <trkpt lat="49.08934" lon="6.95256">
        <ele>250.6</ele>
        <time>2013-04-24T07:51:22Z</time>
      </trkpt>
      <trkpt lat="49.08936" lon="6.95265">
        <ele>249.5</ele>
        <time>2013-04-24T07:51:27Z</time>
      </trkpt>
      <trkpt lat="49.08939" lon="6.95273">
        <ele>248.2</ele>
        <time>2013-04-24T07:51:32Z</time>
      </trkpt>
      <trkpt lat="49.08942" lon="6.95282">
        <ele>248</ele>
        <time>2013-04-24T07:51:37Z</time>
      </trkpt>
      <trkpt lat="49.08945" lon="6.9529">
        <ele>247.5</ele>
        <time>2013-04-24T07:51:42Z</time>
      </trkpt>
      <trkpt lat="49.08948" lon="6.95297">
        <ele>247.3</ele>
        <time>2013-04-24T07:51:47Z</time>
      </trkpt>
      <trkpt lat="49.08951" lon="6.95305">
        <ele>247.3</ele>
        <time>2013-04-24T07:51:52Z</time>
      </trkpt>
      <trkpt lat="49.08952" lon="6.95307">
        <ele>247.4</ele>
        <time>2013-04-24T07:51:53Z</time>
      </trkpt>
      <trkpt lat="49.08958" lon="6.95323">
        <ele>247.4</ele>
        <time>2013-04-24T07:52:02Z</time>
      </trkpt>
      <trkpt lat="49.08961" lon="6.95331">
        <ele>246.2</ele>
        <time>2013-04-24T07:52:07Z</time>
      </trkpt>
      <trkpt lat="49.08963" lon="6.95339">
        <ele>245</ele>
        <time>2013-04-24T07:52:12Z</time>
      </trkpt>
      <trkpt lat="49.08966" lon="6.95347">
        <ele>245.4</ele>
        <time>2013-04-24T07:52:17Z</time>
      </trkpt>
      <trkpt lat="49.08967" lon="6.95355">
        <ele>244.7</ele>
        <time>2013-04-24T07:52:22Z</time>
      </trkpt>
      <trkpt lat="49.0897" lon="6.95364">
        <ele>244.3</ele>
        <time>2013-04-24T07:52:27Z</time>
      </trkpt>
      <trkpt lat="49.08974" lon="6.95373">
        <ele>244.3</ele>
        <time>2013-04-24T07:52:32Z</time>
      </trkpt>
      <trkpt lat="49.08977" lon="6.95381">
        <ele>244.1</ele>
        <time>2013-04-24T07:52:37Z</time>
      </trkpt>
      <trkpt lat="49.0898" lon="6.95389">
        <ele>243.5</ele>
        <time>2013-04-24T07:52:42Z</time>
      </trkpt>
      <trkpt lat="49.08984" lon="6.95396">
        <ele>243.1</ele>
        <time>2013-04-24T07:52:47Z</time>
      </trkpt>
      <trkpt lat="49.08988" lon="6.95404">
        <ele>243.3</ele>
        <time>2013-04-24T07:52:52Z</time>
      </trkpt>
      <trkpt lat="49.08992" lon="6.95411">
        <ele>242.9</ele>
        <time>2013-04-24T07:52:57Z</time>
      </trkpt>
      <trkpt lat="49.08993" lon="6.95413">
        <ele>242.9</ele>
        <time>2013-04-24T07:52:58Z</time>
      </trkpt>
      <trkpt lat="49.08999" lon="6.95427">
        <ele>242.8</ele>
        <time>2013-04-24T07:53:07Z</time>
      </trkpt>
      <trkpt lat="49.09003" lon="6.95434">
        <ele>242.7</ele>
        <time>2013-04-24T07:53:12Z</time>
      </trkpt>
      <trkpt lat="49.09008" lon="6.95442">
        <ele>242.3</ele>
        <time>2013-04-24T07:53:17Z</time>
      </trkpt>
      <trkpt lat="49.09012" lon="6.9545">
        <ele>242.4</ele>
        <time>2013-04-24T07:53:22Z</time>
      </trkpt>
      <trkpt lat="49.09015" lon="6.95459">
        <ele>242</ele>
        <time>2013-04-24T07:53:27Z</time>
      </trkpt>
      <trkpt lat="49.09019" lon="6.95468">
        <ele>243</ele>
        <time>2013-04-24T07:53:32Z</time>
      </trkpt>
      <trkpt lat="49.09023" lon="6.95475">
        <ele>243.4</ele>
        <time>2013-04-24T07:53:37Z</time>
      </trkpt>
      <trkpt lat="49.09028" lon="6.95482">
        <ele>243.6</ele>
        <time>2013-04-24T07:53:42Z</time>
      </trkpt>
      <trkpt lat="49.09032" lon="6.9549">
        <ele>244.1</ele>
        <time>2013-04-24T07:53:47Z</time>
      </trkpt>
      <trkpt lat="49.09036" lon="6.95499">
        <ele>243.8</ele>
        <time>2013-04-24T07:53:52Z</time>
      </trkpt>
      <trkpt lat="49.0904" lon="6.95508">
        <ele>244.4</ele>
        <time>2013-04-24T07:53:57Z</time>
      </trkpt>
      <trkpt lat="49.09045" lon="6.95516">
        <ele>243.8</ele>
        <time>2013-04-24T07:54:02Z</time>
      </trkpt>
      <trkpt lat="49.09046" lon="6.95518">
        <ele>243.4</ele>
        <time>2013-04-24T07:54:03Z</time>
      </trkpt>
      <trkpt lat="49.09054" lon="6.95534">
        <ele>242.3</ele>
        <time>2013-04-24T07:54:12Z</time>
      </trkpt>
      <trkpt lat="49.09056" lon="6.95544">
        <ele>241.8</ele>
        <time>2013-04-24T07:54:17Z</time>
      </trkpt>
      <trkpt lat="49.09055" lon="6.95553">
        <ele>243</ele>
        <time>2013-04-24T07:54:22Z</time>
      </trkpt>
      <trkpt lat="49.09051" lon="6.95559">
        <ele>243.2</ele>
        <time>2013-04-24T07:54:27Z</time>
      </trkpt>
      <trkpt lat="49.09047" lon="6.95564">
        <ele>244.2</ele>
        <time>2013-04-24T07:54:32Z</time>
      </trkpt>
      <trkpt lat="49.09041" lon="6.9557">
        <ele>244.8</ele>
        <time>2013-04-24T07:54:37Z</time>
      </trkpt>
      <trkpt lat="49.09036" lon="6.95575">
        <ele>244.1</ele>
        <time>2013-04-24T07:54:42Z</time>
      </trkpt>
      <trkpt lat="49.09032" lon="6.95579">
        <ele>243.1</ele>
        <time>2013-04-24T07:54:47Z</time>
      </trkpt>
      <trkpt lat="49.09027" lon="6.95582">
        <ele>242.3</ele>
        <time>2013-04-24T07:54:52Z</time>
      </trkpt>
      <trkpt lat="49.09022" lon="6.95587">
        <ele>242.4</ele>
        <time>2013-04-24T07:54:57Z</time>
      </trkpt>
      <trkpt lat="49.09016" lon="6.95589">
        <ele>241.1</ele>
        <time>2013-04-24T07:55:02Z</time>
      </trkpt>
      <trkpt lat="49.09011" lon="6.95592">
        <ele>240.3</ele>
        <time>2013-04-24T07:55:07Z</time>
      </trkpt>
      <trkpt lat="49.0901" lon="6.95593">
        <ele>239.9</ele>
        <time>2013-04-24T07:55:08Z</time>
      </trkpt>
      <trkpt lat="49.09" lon="6.95597">
        <ele>239.1</ele>
        <time>2013-04-24T07:55:17Z</time>
      </trkpt>
      <trkpt lat="49.08995" lon="6.95598">
        <ele>239.1</ele>
        <time>2013-04-24T07:55:22Z</time>
      </trkpt>
      <trkpt lat="49.08989" lon="6.95602">
        <ele>238.5</ele>
        <time>2013-04-24T07:55:27Z</time>
      </trkpt>
      <trkpt lat="49.08983" lon="6.95606">
        <ele>237.4</ele>
        <time>2013-04-24T07:55:32Z</time>
      </trkpt>
      <trkpt lat="49.08976" lon="6.95609">
        <ele>236.2</ele>
        <time>2013-04-24T07:55:37Z</time>
      </trkpt>
      <trkpt lat="49.0897" lon="6.95613">
        <ele>236.4</ele>
        <time>2013-04-24T07:55:42Z</time>
      </trkpt>
      <trkpt lat="49.08963" lon="6.95615">
        <ele>235.9</ele>
        <time>2013-04-24T07:55:47Z</time>
      </trkpt>
      <trkpt lat="49.08957" lon="6.95617">
        <ele>235.3</ele>
        <time>2013-04-24T07:55:52Z</time>
      </trkpt>
      <trkpt lat="49.08951" lon="6.95619">
        <ele>234.9</ele>
        <time>2013-04-24T07:55:57Z</time>
      </trkpt>
      <trkpt lat="49.08944" lon="6.9562">
        <ele>234.4</ele>
        <time>2013-04-24T07:56:02Z</time>
      </trkpt>
      <trkpt lat="49.08938" lon="6.95623">
        <ele>234.2</ele>
        <time>2013-04-24T07:56:07Z</time>
      </trkpt>
      <trkpt lat="49.08932" lon="6.95625">
        <ele>232.8</ele>
        <time>2013-04-24T07:56:12Z</time>
      </trkpt>
      <trkpt lat="49.0893" lon="6.95625">
        <ele>232.8</ele>
        <time>2013-04-24T07:56:13Z</time>
      </trkpt>
      <trkpt lat="49.08918" lon="6.95629">
        <ele>232.6</ele>
        <time>2013-04-24T07:56:22Z</time>
      </trkpt>
      <trkpt lat="49.08912" lon="6.95629">
        <ele>231.5</ele>
        <time>2013-04-24T07:56:27Z</time>
      </trkpt>
      <trkpt lat="49.08906" lon="6.9563">
        <ele>231.1</ele>
        <time>2013-04-24T07:56:32Z</time>
      </trkpt>
      <trkpt lat="49.089" lon="6.95634">
        <ele>231.2</ele>
        <time>2013-04-24T07:56:37Z</time>
      </trkpt>
      <trkpt lat="49.08895" lon="6.95637">
        <ele>232</ele>
        <time>2013-04-24T07:56:42Z</time>
      </trkpt>
      <trkpt lat="49.08889" lon="6.95637">
        <ele>231.8</ele>
        <time>2013-04-24T07:56:47Z</time>
      </trkpt>
      <trkpt lat="49.08883" lon="6.95634">
        <ele>231.8</ele>
        <time>2013-04-24T07:56:52Z</time>
      </trkpt>
      <trkpt lat="49.08877" lon="6.95632">
        <ele>231.5</ele>
        <time>2013-04-24T07:56:57Z</time>
      </trkpt>
      <trkpt lat="49.08871" lon="6.95629">
        <ele>231.8</ele>
        <time>2013-04-24T07:57:02Z</time>
      </trkpt>
      <trkpt lat="49.08865" lon="6.95626">
        <ele>231.5</ele>
        <time>2013-04-24T07:57:07Z</time>
      </trkpt>
      <trkpt lat="49.08862" lon="6.95624">
        <ele>231.4</ele>
        <time>2013-04-24T07:57:12Z</time>
      </trkpt>
      <trkpt lat="49.08861" lon="6.95623">
        <ele>231.8</ele>
        <time>2013-04-24T07:57:17Z</time>
      </trkpt>
      <trkpt lat="49.08861" lon="6.95623">
        <ele>231.5</ele>
        <time>2013-04-24T07:57:18Z</time>
      </trkpt>
      <trkpt lat="49.0886" lon="6.95621">
        <ele>231.1</ele>
        <time>2013-04-24T07:57:27Z</time>
      </trkpt>
      <trkpt lat="49.08859" lon="6.9562">
        <ele>232.4</ele>
        <time>2013-04-24T07:57:32Z</time>
      </trkpt>
      <trkpt lat="49.08859" lon="6.95618">
        <ele>231.6</ele>
        <time>2013-04-24T07:57:37Z</time>
      </trkpt>
      <trkpt lat="49.08859" lon="6.95617">
        <ele>231</ele>
        <time>2013-04-24T07:57:42Z</time>
      </trkpt>
      <trkpt lat="49.08858" lon="6.95615">
        <ele>230.9</ele>
        <time>2013-04-24T07:57:47Z</time>
      </trkpt>
      <trkpt lat="49.08858" lon="6.95613">
        <ele>231.1</ele>
        <time>2013-04-24T07:57:52Z</time>
      </trkpt>
      <trkpt lat="49.08858" lon="6.95613">
        <ele>231.2</ele>
        <time>2013-04-24T07:57:57Z</time>
      </trkpt>
      <trkpt lat="49.08858" lon="6.95612">
        <ele>231.2</ele>
        <time>2013-04-24T07:58:02Z</time>
      </trkpt>
      <trkpt lat="49.08857" lon="6.95611">
        <ele>231.3</ele>
        <time>2013-04-24T07:58:07Z</time>
      </trkpt>
      <trkpt lat="49.08858" lon="6.95612">
        <ele>232.3</ele>
        <time>2013-04-24T07:58:12Z</time>
      </trkpt>
      <trkpt lat="49.08858" lon="6.95613">
        <ele>230.8</ele>
        <time>2013-04-24T07:58:17Z</time>
      </trkpt>
      <trkpt lat="49.08858" lon="6.95614">
        <ele>231.7</ele>
        <time>2013-04-24T07:58:22Z</time>
      </trkpt>
      <trkpt lat="49.08858" lon="6.95614">
        <ele>232</ele>
        <time>2013-04-24T07:58:23Z</time>
      </trkpt>
      <trkpt lat="49.08855" lon="6.95619">
        <ele>231.5</ele>
        <time>2013-04-24T07:58:32Z</time>
      </trkpt>
      <trkpt lat="49.08853" lon="6.95626">
        <ele>231.5</ele>
        <time>2013-04-24T07:58:37Z</time>
      </trkpt>
      <trkpt lat="49.08852" lon="6.95632">
        <ele>231.7</ele>
        <time>2013-04-24T07:58:42Z</time>
      </trkpt>
      <trkpt lat="49.0885" lon="6.9564">
        <ele>231.3</ele>
        <time>2013-04-24T07:58:47Z</time>
      </trkpt>
      <trkpt lat="49.08848" lon="6.95649">
        <ele>231.3</ele>
        <time>2013-04-24T07:58:52Z</time>
      </trkpt>
      <trkpt lat="49.08845" lon="6.95658">
        <ele>231</ele>
        <time>2013-04-24T07:58:57Z</time>
      </trkpt>
      <trkpt lat="49.08842" lon="6.95667">
        <ele>231.4</ele>
        <time>2013-04-24T07:59:02Z</time>
      </trkpt>
      <trkpt lat="49.08839" lon="6.95676">
        <ele>232.3</ele>
        <time>2013-04-24T07:59:07Z</time>
      </trkpt>
      <trkpt lat="49.08837" lon="6.95684">
        <ele>232.2</ele>
        <time>2013-04-24T07:59:12Z</time>
      </trkpt>
      <trkpt lat="49.08834" lon="6.9569">
        <ele>231.7</ele>
        <time>2013-04-24T07:59:17Z</time>
      </trkpt>
      <trkpt lat="49.08831" lon="6.95698">
        <ele>231.8</ele>
        <time>2013-04-24T07:59:22Z</time>
      </trkpt>
      <trkpt lat="49.08828" lon="6.95706">
        <ele>231.6</ele>
        <time>2013-04-24T07:59:27Z</time>
      </trkpt>
      <trkpt lat="49.08827" lon="6.95708">
        <ele>231.3</ele>
        <time>2013-04-24T07:59:28Z</time>
      </trkpt>
      <trkpt lat="49.08821" lon="6.95724">
        <ele>232.3</ele>
        <time>2013-04-24T07:59:37Z</time>
      </trkpt>
      <trkpt lat="49.08817" lon="6.95733">
        <ele>231.7</ele>
        <time>2013-04-24T07:59:42Z</time>
      </trkpt>
      <trkpt lat="49.08813" lon="6.9574">
        <ele>231.9</ele>
        <time>2013-04-24T07:59:47Z</time>
      </trkpt>
      <trkpt lat="49.08809" lon="6.95748">
        <ele>232.7</ele>
        <time>2013-04-24T07:59:52Z</time>
      </trkpt>
      <trkpt lat="49.08805" lon="6.95756">
        <ele>232.9</ele>
        <time>2013-04-24T07:59:57Z</time>
      </trkpt>
      <trkpt lat="49.08801" lon="6.95764">
        <ele>232.8</ele>
        <time>2013-04-24T08:00:02Z</time>
      </trkpt>
      <trkpt lat="49.08799" lon="6.95771">
        <ele>232.8</ele>
        <time>2013-04-24T08:00:07Z</time>
      </trkpt>
      <trkpt lat="49.08795" lon="6.95778">
        <ele>232.4</ele>
        <time>2013-04-24T08:00:12Z</time>
      </trkpt>
      <trkpt lat="49.08791" lon="6.95787">
        <ele>233.2</ele>
        <time>2013-04-24T08:00:17Z</time>
      </trkpt>
      <trkpt lat="49.08787" lon="6.95795">
        <ele>234.3</ele>
        <time>2013-04-24T08:00:22Z</time>
      </trkpt>
      <trkpt lat="49.08784" lon="6.95803">
        <ele>233.8</ele>
        <time>2013-04-24T08:00:27Z</time>
      </trkpt>
      <trkpt lat="49.08779" lon="6.95811">
        <ele>233.8</ele>
        <time>2013-04-24T08:00:32Z</time>
      </trkpt>
      <trkpt lat="49.08779" lon="6.95813">
        <ele>234.2</ele>
        <time>2013-04-24T08:00:33Z</time>
      </trkpt>
      <trkpt lat="49.08771" lon="6.95828">
        <ele>235.4</ele>
        <time>2013-04-24T08:00:42Z</time>
      </trkpt>
      <trkpt lat="49.08766" lon="6.95836">
        <ele>235.4</ele>
        <time>2013-04-24T08:00:47Z</time>
      </trkpt>
      <trkpt lat="49.08761" lon="6.95842">
        <ele>236</ele>
        <time>2013-04-24T08:00:52Z</time>
      </trkpt>
      <trkpt lat="49.08755" lon="6.95845">
        <ele>236.4</ele>
        <time>2013-04-24T08:00:57Z</time>
      </trkpt>
      <trkpt lat="49.08748" lon="6.95844">
        <ele>238.1</ele>
        <time>2013-04-24T08:01:02Z</time>
      </trkpt>
      <trkpt lat="49.08743" lon="6.95841">
        <ele>237.2</ele>
        <time>2013-04-24T08:01:07Z</time>
      </trkpt>
      <trkpt lat="49.08737" lon="6.95836">
        <ele>237.6</ele>
        <time>2013-04-24T08:01:12Z</time>
      </trkpt>
      <trkpt lat="49.08732" lon="6.95831">
        <ele>237.8</ele>
        <time>2013-04-24T08:01:17Z</time>
      </trkpt>
      <trkpt lat="49.08726" lon="6.95826">
        <ele>237.8</ele>
        <time>2013-04-24T08:01:22Z</time>
      </trkpt>
      <trkpt lat="49.08721" lon="6.95821">
        <ele>238.7</ele>
        <time>2013-04-24T08:01:27Z</time>
      </trkpt>
      <trkpt lat="49.08716" lon="6.95817">
        <ele>238.7</ele>
        <time>2013-04-24T08:01:32Z</time>
      </trkpt>
      <trkpt lat="49.08711" lon="6.95813">
        <ele>239.9</ele>
        <time>2013-04-24T08:01:37Z</time>
      </trkpt>
      <trkpt lat="49.0871" lon="6.95812">
        <ele>240.1</ele>
        <time>2013-04-24T08:01:38Z</time>
      </trkpt>
      <trkpt lat="49.08699" lon="6.95805">
        <ele>240.3</ele>
        <time>2013-04-24T08:01:47Z</time>
      </trkpt>
      <trkpt lat="49.08695" lon="6.95804">
        <ele>240.1</ele>
        <time>2013-04-24T08:01:52Z</time>
      </trkpt>
      <trkpt lat="49.08693" lon="6.95803">
        <ele>241.4</ele>
        <time>2013-04-24T08:01:57Z</time>
      </trkpt>
      <trkpt lat="49.08689" lon="6.95802">
        <ele>240.8</ele>
        <time>2013-04-24T08:02:02Z</time>
      </trkpt>
      <trkpt lat="49.08685" lon="6.958">
        <ele>241.4</ele>
        <time>2013-04-24T08:02:07Z</time>
      </trkpt>
      <trkpt lat="49.0868" lon="6.95799">
        <ele>241.6</ele>
        <time>2013-04-24T08:02:12Z</time>
      </trkpt>
      <trkpt lat="49.08676" lon="6.95799">
        <ele>242.9</ele>
        <time>2013-04-24T08:02:17Z</time>
      </trkpt>
      <trkpt lat="49.08672" lon="6.95798">
        <ele>243.7</ele>
        <time>2013-04-24T08:02:22Z</time>
      </trkpt>
      <trkpt lat="49.08667" lon="6.95799">
        <ele>245.1</ele>
        <time>2013-04-24T08:02:27Z</time>
      </trkpt>
      <trkpt lat="49.08662" lon="6.95801">
        <ele>245.7</ele>
        <time>2013-04-24T08:02:32Z</time>
      </trkpt>
      <trkpt lat="49.08657" lon="6.95804">
        <ele>245.8</ele>
        <time>2013-04-24T08:02:37Z</time>
      </trkpt>
      <trkpt lat="49.08652" lon="6.95806">
        <ele>247</ele>
        <time>2013-04-24T08:02:42Z</time>
      </trkpt>
      <trkpt lat="49.08651" lon="6.95807">
        <ele>247</ele>
        <time>2013-04-24T08:02:43Z</time>
      </trkpt>
      <trkpt lat="49.08644" lon="6.95815">
        <ele>248.9</ele>
        <time>2013-04-24T08:02:52Z</time>
      </trkpt>
      <trkpt lat="49.08639" lon="6.95819">
        <ele>249.8</ele>
        <time>2013-04-24T08:02:57Z</time>
      </trkpt>
      <trkpt lat="49.08635" lon="6.95824">
        <ele>249.7</ele>
        <time>2013-04-24T08:03:02Z</time>
      </trkpt>
      <trkpt lat="49.0863" lon="6.95828">
        <ele>251.3</ele>
        <time>2013-04-24T08:03:07Z</time>
      </trkpt>
      <trkpt lat="49.08626" lon="6.95833">
        <ele>251.2</ele>
        <time>2013-04-24T08:03:12Z</time>
      </trkpt>
      <trkpt lat="49.08621" lon="6.95838">
        <ele>252</ele>
        <time>2013-04-24T08:03:17Z</time>
      </trkpt>
      <trkpt lat="49.08616" lon="6.95842">
        <ele>252.8</ele>
        <time>2013-04-24T08:03:22Z</time>
      </trkpt>
      <trkpt lat="49.0861" lon="6.95848">
        <ele>252</ele>
        <time>2013-04-24T08:03:27Z</time>
      </trkpt>
      <trkpt lat="49.08604" lon="6.95854">
        <ele>253</ele>
        <time>2013-04-24T08:03:32Z</time>
      </trkpt>
      <trkpt lat="49.08598" lon="6.95859">
        <ele>253.6</ele>
        <time>2013-04-24T08:03:37Z</time>
      </trkpt>
      <trkpt lat="49.08593" lon="6.95865">
        <ele>255.2</ele>
        <time>2013-04-24T08:03:42Z</time>
      </trkpt>
      <trkpt lat="49.08588" lon="6.95872">
        <ele>254.9</ele>
        <time>2013-04-24T08:03:47Z</time>
      </trkpt>
      <trkpt lat="49.08587" lon="6.95873">
        <ele>255.1</ele>
        <time>2013-04-24T08:03:48Z</time>
      </trkpt>
      <trkpt lat="49.08577" lon="6.95881">
        <ele>254.9</ele>
        <time>2013-04-24T08:03:57Z</time>
      </trkpt>
      <trkpt lat="49.08571" lon="6.95886">
        <ele>255</ele>
        <time>2013-04-24T08:04:02Z</time>
      </trkpt>
      <trkpt lat="49.08566" lon="6.95891">
        <ele>254.2</ele>
        <time>2013-04-24T08:04:07Z</time>
      </trkpt>
      <trkpt lat="49.08561" lon="6.95895">
        <ele>254.8</ele>
        <time>2013-04-24T08:04:12Z</time>
      </trkpt>
      <trkpt lat="49.08556" lon="6.95899">
        <ele>254.5</ele>
        <time>2013-04-24T08:04:17Z</time>
      </trkpt>
      <trkpt lat="49.08556" lon="6.95899">
        <ele>254.5</ele>
        <time>2013-04-24T08:04:17Z</time>
      </trkpt>
      <trkpt lat="49.08551" lon="6.95901">
        <ele>254.5</ele>
        <time>2013-04-24T08:04:22Z</time>
      </trkpt>
      <trkpt lat="49.08547" lon="6.95901">
        <ele>255.4</ele>
        <time>2013-04-24T08:04:27Z</time>
      </trkpt>
      <trkpt lat="49.08543" lon="6.95908">
        <ele>255.3</ele>
        <time>2013-04-24T08:04:32Z</time>
      </trkpt>
      <trkpt lat="49.08537" lon="6.95911">
        <ele>255.4</ele>
        <time>2013-04-24T08:04:37Z</time>
      </trkpt>
      <trkpt lat="49.08532" lon="6.95915">
        <ele>255.8</ele>
        <time>2013-04-24T08:04:42Z</time>
      </trkpt>
      <trkpt lat="49.08527" lon="6.9592">
        <ele>256.6</ele>
        <time>2013-04-24T08:04:47Z</time>
      </trkpt>
      <trkpt lat="49.08522" lon="6.95925">
        <ele>257.6</ele>
        <time>2013-04-24T08:04:52Z</time>
      </trkpt>
      <trkpt lat="49.08521" lon="6.95926">
        <ele>257.8</ele>
        <time>2013-04-24T08:04:53Z</time>
      </trkpt>
      <trkpt lat="49.08515" lon="6.95938">
        <ele>258.3</ele>
        <time>2013-04-24T08:05:02Z</time>
      </trkpt>
      <trkpt lat="49.08512" lon="6.95945">
        <ele>260.1</ele>
        <time>2013-04-24T08:05:07Z</time>
      </trkpt>
      <trkpt lat="49.0851" lon="6.95953">
        <ele>261.1</ele>
        <time>2013-04-24T08:05:12Z</time>
      </trkpt>
      <trkpt lat="49.08508" lon="6.95961">
        <ele>261</ele>
        <time>2013-04-24T08:05:17Z</time>
      </trkpt>
      <trkpt lat="49.08507" lon="6.95969">
        <ele>262.2</ele>
        <time>2013-04-24T08:05:22Z</time>
      </trkpt>
      <trkpt lat="49.08506" lon="6.95978">
        <ele>262.7</ele>
        <time>2013-04-24T08:05:27Z</time>
      </trkpt>
      <trkpt lat="49.08505" lon="6.95986">
        <ele>263.3</ele>
        <time>2013-04-24T08:05:32Z</time>
      </trkpt>
      <trkpt lat="49.08504" lon="6.95994">
        <ele>263.7</ele>
        <time>2013-04-24T08:05:37Z</time>
      </trkpt>
      <trkpt lat="49.08503" lon="6.96003">
        <ele>264.1</ele>
        <time>2013-04-24T08:05:42Z</time>
      </trkpt>
      <trkpt lat="49.08502" lon="6.96012">
        <ele>265.3</ele>
        <time>2013-04-24T08:05:47Z</time>
      </trkpt>
      <trkpt lat="49.08501" lon="6.96021">
        <ele>265.8</ele>
        <time>2013-04-24T08:05:52Z</time>
      </trkpt>
      <trkpt lat="49.085" lon="6.9603">
        <ele>265.2</ele>
        <time>2013-04-24T08:05:57Z</time>
      </trkpt>
      <trkpt lat="49.085" lon="6.96032">
        <ele>265.1</ele>
        <time>2013-04-24T08:05:58Z</time>
      </trkpt>
      <trkpt lat="49.08498" lon="6.96048">
        <ele>266.4</ele>
        <time>2013-04-24T08:06:07Z</time>
      </trkpt>
      <trkpt lat="49.08496" lon="6.96056">
        <ele>265.3</ele>
        <time>2013-04-24T08:06:12Z</time>
      </trkpt>
      <trkpt lat="49.08491" lon="6.96059">
        <ele>265.3</ele>
        <time>2013-04-24T08:06:17Z</time>
      </trkpt>
      <trkpt lat="49.08487" lon="6.96051">
        <ele>265.4</ele>
        <time>2013-04-24T08:06:22Z</time>
      </trkpt>
      <trkpt lat="49.08485" lon="6.96043">
        <ele>265.3</ele>
        <time>2013-04-24T08:06:27Z</time>
      </trkpt>
      <trkpt lat="49.08483" lon="6.96035">
        <ele>265.7</ele>
        <time>2013-04-24T08:06:32Z</time>
      </trkpt>
      <trkpt lat="49.08481" lon="6.96026">
        <ele>265.6</ele>
        <time>2013-04-24T08:06:37Z</time>
      </trkpt>
      <trkpt lat="49.08477" lon="6.96008">
        <ele>266.1</ele>
        <time>2013-04-24T08:06:47Z</time>
      </trkpt>
      <trkpt lat="49.08475" lon="6.95998">
        <ele>265.8</ele>
        <time>2013-04-24T08:06:52Z</time>
      </trkpt>
      <trkpt lat="49.08474" lon="6.95989">
        <ele>266.2</ele>
        <time>2013-04-24T08:06:57Z</time>
      </trkpt>
      <trkpt lat="49.08472" lon="6.95981">
        <ele>266.2</ele>
        <time>2013-04-24T08:07:02Z</time>
      </trkpt>
      <trkpt lat="49.08472" lon="6.95979">
        <ele>266</ele>
        <time>2013-04-24T08:07:03Z</time>
      </trkpt>
      <trkpt lat="49.08468" lon="6.95964">
        <ele>266.4</ele>
        <time>2013-04-24T08:07:12Z</time>
      </trkpt>
      <trkpt lat="49.08467" lon="6.95956">
        <ele>267.3</ele>
        <time>2013-04-24T08:07:17Z</time>
      </trkpt>
      <trkpt lat="49.08465" lon="6.95949">
        <ele>267.6</ele>
        <time>2013-04-24T08:07:22Z</time>
      </trkpt>
      <trkpt lat="49.08464" lon="6.95942">
        <ele>267.3</ele>
        <time>2013-04-24T08:07:27Z</time>
      </trkpt>
      <trkpt lat="49.08463" lon="6.95938">
        <ele>267.8</ele>
        <time>2013-04-24T08:07:32Z</time>
      </trkpt>
      <trkpt lat="49.08463" lon="6.95935">
        <ele>267.3</ele>
        <time>2013-04-24T08:07:37Z</time>
      </trkpt>
      <trkpt lat="49.08463" lon="6.95934">
        <ele>268.4</ele>
        <time>2013-04-24T08:07:42Z</time>
      </trkpt>
      <trkpt lat="49.08463" lon="6.95934">
        <ele>267.8</ele>
        <time>2013-04-24T08:07:47Z</time>
      </trkpt>
      <trkpt lat="49.08464" lon="6.95932">
        <ele>267.2</ele>
        <time>2013-04-24T08:07:52Z</time>
      </trkpt>
      <trkpt lat="49.08463" lon="6.95926">
        <ele>267.3</ele>
        <time>2013-04-24T08:07:57Z</time>
      </trkpt>
      <trkpt lat="49.08463" lon="6.95918">
        <ele>267.4</ele>
        <time>2013-04-24T08:08:02Z</time>
      </trkpt>
      <trkpt lat="49.08462" lon="6.9591">
        <ele>266.3</ele>
        <time>2013-04-24T08:08:07Z</time>
      </trkpt>
      <trkpt lat="49.08462" lon="6.95908">
        <ele>266.1</ele>
        <time>2013-04-24T08:08:08Z</time>
      </trkpt>
      <trkpt lat="49.0846" lon="6.95893">
        <ele>267.9</ele>
        <time>2013-04-24T08:08:17Z</time>
      </trkpt>
      <trkpt lat="49.08459" lon="6.95885">
        <ele>267.7</ele>
        <time>2013-04-24T08:08:22Z</time>
      </trkpt>
      <trkpt lat="49.08458" lon="6.95876">
        <ele>268</ele>
        <time>2013-04-24T08:08:27Z</time>
      </trkpt>
      <trkpt lat="49.08457" lon="6.95868">
        <ele>268.5</ele>
        <time>2013-04-24T08:08:32Z</time>
      </trkpt>
      <trkpt lat="49.08456" lon="6.95859">
        <ele>268.4</ele>
        <time>2013-04-24T08:08:37Z</time>
      </trkpt>
      <trkpt lat="49.08455" lon="6.95851">
        <ele>267.9</ele>
        <time>2013-04-24T08:08:42Z</time>
      </trkpt>
      <trkpt lat="49.08454" lon="6.95842">
        <ele>267.9</ele>
        <time>2013-04-24T08:08:47Z</time>
      </trkpt>
      <trkpt lat="49.08453" lon="6.95833">
        <ele>268</ele>
        <time>2013-04-24T08:08:52Z</time>
      </trkpt>
      <trkpt lat="49.08453" lon="6.95824">
        <ele>268.3</ele>
        <time>2013-04-24T08:08:57Z</time>
      </trkpt>
      <trkpt lat="49.08452" lon="6.95816">
        <ele>268.8</ele>
        <time>2013-04-24T08:09:02Z</time>
      </trkpt>
      <trkpt lat="49.08451" lon="6.95808">
        <ele>269.2</ele>
        <time>2013-04-24T08:09:07Z</time>
      </trkpt>
      <trkpt lat="49.0845" lon="6.95801">
        <ele>268.9</ele>
        <time>2013-04-24T08:09:12Z</time>
      </trkpt>
      <trkpt lat="49.0845" lon="6.958">
        <ele>269.3</ele>
        <time>2013-04-24T08:09:13Z</time>
      </trkpt>
      <trkpt lat="49.0845" lon="6.95787">
        <ele>269.6</ele>
        <time>2013-04-24T08:09:22Z</time>
      </trkpt>
      <trkpt lat="49.0845" lon="6.9578">
        <ele>269.9</ele>
        <time>2013-04-24T08:09:27Z</time>
      </trkpt>
      <trkpt lat="49.08449" lon="6.95777">
        <ele>269.6</ele>
        <time>2013-04-24T08:09:32Z</time>
      </trkpt>
      <trkpt lat="49.08449" lon="6.95776">
        <ele>269.1</ele>
        <time>2013-04-24T08:09:37Z</time>
      </trkpt>
      <trkpt lat="49.08447" lon="6.95772">
        <ele>270.6</ele>
        <time>2013-04-24T08:09:42Z</time>
      </trkpt>
      <trkpt lat="49.08447" lon="6.95765">
        <ele>270.4</ele>
        <time>2013-04-24T08:09:47Z</time>
      </trkpt>
      <trkpt lat="49.08446" lon="6.95757">
        <ele>270.1</ele>
        <time>2013-04-24T08:09:52Z</time>
      </trkpt>
      <trkpt lat="49.08446" lon="6.95755">
        <ele>269.8</ele>
        <time>2013-04-24T08:09:57Z</time>
      </trkpt>
      <trkpt lat="49.08446" lon="6.95748">
        <ele>269.8</ele>
        <time>2013-04-24T08:10:02Z</time>
      </trkpt>
      <trkpt lat="49.08444" lon="6.9574">
        <ele>269.9</ele>
        <time>2013-04-24T08:10:07Z</time>
      </trkpt>
      <trkpt lat="49.08442" lon="6.95732">
        <ele>269.8</ele>
        <time>2013-04-24T08:10:12Z</time>
      </trkpt>
      <trkpt lat="49.0844" lon="6.95723">
        <ele>271.2</ele>
        <time>2013-04-24T08:10:17Z</time>
      </trkpt>
      <trkpt lat="49.0844" lon="6.95721">
        <ele>271.3</ele>
        <time>2013-04-24T08:10:18Z</time>
      </trkpt>
      <trkpt lat="49.08437" lon="6.95706">
        <ele>271</ele>
        <time>2013-04-24T08:10:27Z</time>
      </trkpt>
      <trkpt lat="49.08435" lon="6.95697">
        <ele>270.9</ele>
        <time>2013-04-24T08:10:32Z</time>
      </trkpt>
      <trkpt lat="49.08433" lon="6.95688">
        <ele>271.2</ele>
        <time>2013-04-24T08:10:37Z</time>
      </trkpt>
      <trkpt lat="49.08432" lon="6.9568">
        <ele>270.1</ele>
        <time>2013-04-24T08:10:42Z</time>
      </trkpt>
      <trkpt lat="49.08431" lon="6.95672">
        <ele>269.9</ele>
        <time>2013-04-24T08:10:47Z</time>
      </trkpt>
      <trkpt lat="49.08429" lon="6.95663">
        <ele>270.1</ele>
        <time>2013-04-24T08:10:52Z</time>
      </trkpt>
      <trkpt lat="49.08427" lon="6.95655">
        <ele>271.2</ele>
        <time>2013-04-24T08:10:57Z</time>
      </trkpt>
      <trkpt lat="49.08425" lon="6.95647">
        <ele>271.3</ele>
        <time>2013-04-24T08:11:02Z</time>
      </trkpt>
      <trkpt lat="49.08423" lon="6.95638">
        <ele>271</ele>
        <time>2013-04-24T08:11:07Z</time>
      </trkpt>
      <trkpt lat="49.08421" lon="6.9563">
        <ele>270.5</ele>
        <time>2013-04-24T08:11:12Z</time>
      </trkpt>
      <trkpt lat="49.08419" lon="6.95621">
        <ele>270.1</ele>
        <time>2013-04-24T08:11:17Z</time>
      </trkpt>
      <trkpt lat="49.08417" lon="6.95612">
        <ele>271</ele>
        <time>2013-04-24T08:11:22Z</time>
      </trkpt>
      <trkpt lat="49.08417" lon="6.95611">
        <ele>271.3</ele>
        <time>2013-04-24T08:11:23Z</time>
      </trkpt>
      <trkpt lat="49.08413" lon="6.95595">
        <ele>271.7</ele>
        <time>2013-04-24T08:11:32Z</time>
      </trkpt>
      <trkpt lat="49.08412" lon="6.95586">
        <ele>270.9</ele>
        <time>2013-04-24T08:11:37Z</time>
      </trkpt>
      <trkpt lat="49.0841" lon="6.95576">
        <ele>271.3</ele>
        <time>2013-04-24T08:11:42Z</time>
      </trkpt>
      <trkpt lat="49.08408" lon="6.95567">
        <ele>271.1</ele>
        <time>2013-04-24T08:11:47Z</time>
      </trkpt>
      <trkpt lat="49.08405" lon="6.95558">
        <ele>271.6</ele>
        <time>2013-04-24T08:11:52Z</time>
      </trkpt>
      <trkpt lat="49.08404" lon="6.9555">
        <ele>271.2</ele>
        <time>2013-04-24T08:11:57Z</time>
      </trkpt>
      <trkpt lat="49.08401" lon="6.95543">
        <ele>271.1</ele>
        <time>2013-04-24T08:12:02Z</time>
      </trkpt>
      <trkpt lat="49.08398" lon="6.95535">
        <ele>270.5</ele>
        <time>2013-04-24T08:12:07Z</time>
      </trkpt>
      <trkpt lat="49.08395" lon="6.95528">
        <ele>270.3</ele>
        <time>2013-04-24T08:12:12Z</time>
      </trkpt>
      <trkpt lat="49.08393" lon="6.95521">
        <ele>271</ele>
        <time>2013-04-24T08:12:17Z</time>
      </trkpt>
      <trkpt lat="49.0839" lon="6.95513">
        <ele>271.3</ele>
        <time>2013-04-24T08:12:22Z</time>
      </trkpt>
      <trkpt lat="49.08388" lon="6.95505">
        <ele>270.9</ele>
        <time>2013-04-24T08:12:27Z</time>
      </trkpt>
      <trkpt lat="49.08387" lon="6.95503">
        <ele>270.8</ele>
        <time>2013-04-24T08:12:28Z</time>
      </trkpt>
      <trkpt lat="49.08383" lon="6.95488">
        <ele>270.6</ele>
        <time>2013-04-24T08:12:37Z</time>
      </trkpt>
      <trkpt lat="49.08381" lon="6.9548">
        <ele>270.9</ele>
        <time>2013-04-24T08:12:42Z</time>
      </trkpt>
      <trkpt lat="49.08378" lon="6.95473">
        <ele>270.9</ele>
        <time>2013-04-24T08:12:47Z</time>
      </trkpt>
      <trkpt lat="49.08375" lon="6.95465">
        <ele>271</ele>
        <time>2013-04-24T08:12:52Z</time>
      </trkpt>
      <trkpt lat="49.08373" lon="6.95456">
        <ele>271.6</ele>
        <time>2013-04-24T08:12:57Z</time>
      </trkpt>
      <trkpt lat="49.08371" lon="6.95446">
        <ele>271.1</ele>
        <time>2013-04-24T08:13:02Z</time>
      </trkpt>
      <trkpt lat="49.08369" lon="6.95437">
        <ele>270.8</ele>
        <time>2013-04-24T08:13:07Z</time>
      </trkpt>
      <trkpt lat="49.08366" lon="6.9543">
        <ele>270.6</ele>
        <time>2013-04-24T08:13:12Z</time>
      </trkpt>
      <trkpt lat="49.08364" lon="6.95421">
        <ele>270.9</ele>
        <time>2013-04-24T08:13:17Z</time>
      </trkpt>
      <trkpt lat="49.08361" lon="6.95414">
        <ele>270.5</ele>
        <time>2013-04-24T08:13:22Z</time>
      </trkpt>
      <trkpt lat="49.08358" lon="6.95406">
        <ele>270.6</ele>
        <time>2013-04-24T08:13:27Z</time>
      </trkpt>
      <trkpt lat="49.08356" lon="6.95397">
        <ele>270</ele>
        <time>2013-04-24T08:13:32Z</time>
      </trkpt>
      <trkpt lat="49.08355" lon="6.95395">
        <ele>269.8</ele>
        <time>2013-04-24T08:13:33Z</time>
      </trkpt>
      <trkpt lat="49.08349" lon="6.95382">
        <ele>269.8</ele>
        <time>2013-04-24T08:13:42Z</time>
      </trkpt>
      <trkpt lat="49.08345" lon="6.95373">
        <ele>269.4</ele>
        <time>2013-04-24T08:13:47Z</time>
      </trkpt>
      <trkpt lat="49.08343" lon="6.95366">
        <ele>269.8</ele>
        <time>2013-04-24T08:13:52Z</time>
      </trkpt>
      <trkpt lat="49.0834" lon="6.95357">
        <ele>270.6</ele>
        <time>2013-04-24T08:13:57Z</time>
      </trkpt>
      <trkpt lat="49.08338" lon="6.95349">
        <ele>270.5</ele>
        <time>2013-04-24T08:14:02Z</time>
      </trkpt>
      <trkpt lat="49.08335" lon="6.95339">
        <ele>270.4</ele>
        <time>2013-04-24T08:14:07Z</time>
      </trkpt>
      <trkpt lat="49.08332" lon="6.9533">
        <ele>270.1</ele>
        <time>2013-04-24T08:14:12Z</time>
      </trkpt>
      <trkpt lat="49.08329" lon="6.95321">
        <ele>269.7</ele>
        <time>2013-04-24T08:14:17Z</time>
      </trkpt>
      <trkpt lat="49.08326" lon="6.95313">
        <ele>269.8</ele>
        <time>2013-04-24T08:14:22Z</time>
      </trkpt>
      <trkpt lat="49.08323" lon="6.95304">
        <ele>268.8</ele>
        <time>2013-04-24T08:14:27Z</time>
      </trkpt>
      <trkpt lat="49.0832" lon="6.95297">
        <ele>270.1</ele>
        <time>2013-04-24T08:14:32Z</time>
      </trkpt>
      <trkpt lat="49.08318" lon="6.95288">
        <ele>269.5</ele>
        <time>2013-04-24T08:14:37Z</time>
      </trkpt>
      <trkpt lat="49.08317" lon="6.95287">
        <ele>269.2</ele>
        <time>2013-04-24T08:14:38Z</time>
      </trkpt>
      <trkpt lat="49.08312" lon="6.95272">
        <ele>269.1</ele>
        <time>2013-04-24T08:14:47Z</time>
      </trkpt>
      <trkpt lat="49.08309" lon="6.95264">
        <ele>268.3</ele>
        <time>2013-04-24T08:14:52Z</time>
      </trkpt>
      <trkpt lat="49.08307" lon="6.95256">
        <ele>268.4</ele>
        <time>2013-04-24T08:14:57Z</time>
      </trkpt>
      <trkpt lat="49.08305" lon="6.95249">
        <ele>268.9</ele>
        <time>2013-04-24T08:15:02Z</time>
      </trkpt>
      <trkpt lat="49.08302" lon="6.9524">
        <ele>269.4</ele>
        <time>2013-04-24T08:15:07Z</time>
      </trkpt>
      <trkpt lat="49.083" lon="6.95231">
        <ele>269.4</ele>
        <time>2013-04-24T08:15:12Z</time>
      </trkpt>
      <trkpt lat="49.08298" lon="6.95222">
        <ele>269</ele>
        <time>2013-04-24T08:15:17Z</time>
      </trkpt>
      <trkpt lat="49.08295" lon="6.95214">
        <ele>269.3</ele>
        <time>2013-04-24T08:15:22Z</time>
      </trkpt>
      <trkpt lat="49.08291" lon="6.95207">
        <ele>268.7</ele>
        <time>2013-04-24T08:15:27Z</time>
      </trkpt>
      <trkpt lat="49.08288" lon="6.95198">
        <ele>268.2</ele>
        <time>2013-04-24T08:15:32Z</time>
      </trkpt>
      <trkpt lat="49.08284" lon="6.9519">
        <ele>269.5</ele>
        <time>2013-04-24T08:15:37Z</time>
      </trkpt>
      <trkpt lat="49.08282" lon="6.95182">
        <ele>270.1</ele>
        <time>2013-04-24T08:15:42Z</time>
      </trkpt>
      <trkpt lat="49.08281" lon="6.9518">
        <ele>270.1</ele>
        <time>2013-04-24T08:15:43Z</time>
      </trkpt>
      <trkpt lat="49.08276" lon="6.95165">
        <ele>269.1</ele>
        <time>2013-04-24T08:15:52Z</time>
      </trkpt>
      <trkpt lat="49.08274" lon="6.95157">
        <ele>269.6</ele>
        <time>2013-04-24T08:15:57Z</time>
      </trkpt>
      <trkpt lat="49.08271" lon="6.95148">
        <ele>271</ele>
        <time>2013-04-24T08:16:02Z</time>
      </trkpt>
      <trkpt lat="49.08268" lon="6.9514">
        <ele>269.5</ele>
        <time>2013-04-24T08:16:07Z</time>
      </trkpt>
      <trkpt lat="49.08265" lon="6.95131">
        <ele>269.3</ele>
        <time>2013-04-24T08:16:12Z</time>
      </trkpt>
      <trkpt lat="49.08262" lon="6.95123">
        <ele>270.2</ele>
        <time>2013-04-24T08:16:17Z</time>
      </trkpt>
      <trkpt lat="49.0826" lon="6.95115">
        <ele>269.7</ele>
        <time>2013-04-24T08:16:22Z</time>
      </trkpt>
      <trkpt lat="49.08257" lon="6.95107">
        <ele>269</ele>
        <time>2013-04-24T08:16:27Z</time>
      </trkpt>
      <trkpt lat="49.08254" lon="6.951">
        <ele>269.5</ele>
        <time>2013-04-24T08:16:32Z</time>
      </trkpt>
      <trkpt lat="49.08252" lon="6.95092">
        <ele>269.7</ele>
        <time>2013-04-24T08:16:37Z</time>
      </trkpt>
      <trkpt lat="49.08249" lon="6.95084">
        <ele>269.6</ele>
        <time>2013-04-24T08:16:42Z</time>
      </trkpt>
      <trkpt lat="49.08246" lon="6.95076">
        <ele>269.9</ele>
        <time>2013-04-24T08:16:47Z</time>
      </trkpt>
      <trkpt lat="49.08245" lon="6.95073">
        <ele>270.3</ele>
        <time>2013-04-24T08:16:48Z</time>
      </trkpt>
      <trkpt lat="49.0824" lon="6.95059">
        <ele>269.5</ele>
        <time>2013-04-24T08:16:57Z</time>
      </trkpt>
      <trkpt lat="49.08237" lon="6.95049">
        <ele>269.1</ele>
        <time>2013-04-24T08:17:02Z</time>
      </trkpt>
      <trkpt lat="49.08234" lon="6.9504">
        <ele>268.9</ele>
        <time>2013-04-24T08:17:07Z</time>
      </trkpt>
      <trkpt lat="49.08231" lon="6.95031">
        <ele>269.4</ele>
        <time>2013-04-24T08:17:12Z</time>
      </trkpt>
      <trkpt lat="49.08228" lon="6.95024">
        <ele>270.1</ele>
        <time>2013-04-24T08:17:17Z</time>
      </trkpt>
      <trkpt lat="49.08226" lon="6.95016">
        <ele>270.1</ele>
        <time>2013-04-24T08:17:22Z</time>
      </trkpt>
      <trkpt lat="49.08223" lon="6.9501">
        <ele>270.5</ele>
        <time>2013-04-24T08:17:27Z</time>
      </trkpt>
      <trkpt lat="49.0822" lon="6.95002">
        <ele>271.2</ele>
        <time>2013-04-24T08:17:32Z</time>
      </trkpt>
      <trkpt lat="49.08217" lon="6.94995">
        <ele>270.4</ele>
        <time>2013-04-24T08:17:37Z</time>
      </trkpt>
      <trkpt lat="49.08217" lon="6.94995">
        <ele>270.4</ele>
        <time>2013-04-24T08:17:37Z</time>
      </trkpt>
      <trkpt lat="49.08214" lon="6.94987">
        <ele>270.1</ele>
        <time>2013-04-24T08:17:42Z</time>
      </trkpt>
      <trkpt lat="49.08212" lon="6.94979">
        <ele>270.3</ele>
        <time>2013-04-24T08:17:47Z</time>
      </trkpt>
      <trkpt lat="49.08209" lon="6.94972">
        <ele>271.6</ele>
        <time>2013-04-24T08:17:52Z</time>
      </trkpt>
      <trkpt lat="49.08209" lon="6.9497">
        <ele>271.6</ele>
        <time>2013-04-24T08:17:53Z</time>
      </trkpt>
      <trkpt lat="49.08205" lon="6.94964">
        <ele>270.3</ele>
        <time>2013-04-24T08:18:02Z</time>
      </trkpt>
      <trkpt lat="49.08205" lon="6.94963">
        <ele>270.3</ele>
        <time>2013-04-24T08:18:07Z</time>
      </trkpt>
      <trkpt lat="49.08204" lon="6.94962">
        <ele>270.5</ele>
        <time>2013-04-24T08:18:12Z</time>
      </trkpt>
      <trkpt lat="49.08204" lon="6.9496">
        <ele>270.1</ele>
        <time>2013-04-24T08:18:17Z</time>
      </trkpt>
      <trkpt lat="49.08203" lon="6.94955">
        <ele>270.6</ele>
        <time>2013-04-24T08:18:22Z</time>
      </trkpt>
      <trkpt lat="49.08202" lon="6.94949">
        <ele>270.4</ele>
        <time>2013-04-24T08:18:27Z</time>
      </trkpt>
      <trkpt lat="49.08199" lon="6.94944">
        <ele>270.4</ele>
        <time>2013-04-24T08:18:32Z</time>
      </trkpt>
      <trkpt lat="49.08197" lon="6.94938">
        <ele>269.4</ele>
        <time>2013-04-24T08:18:37Z</time>
      </trkpt>
      <trkpt lat="49.08194" lon="6.94932">
        <ele>271.1</ele>
        <time>2013-04-24T08:18:42Z</time>
      </trkpt>
      <trkpt lat="49.08191" lon="6.94925">
        <ele>270.9</ele>
        <time>2013-04-24T08:18:47Z</time>
      </trkpt>
      <trkpt lat="49.08189" lon="6.94919">
        <ele>271.7</ele>
        <time>2013-04-24T08:18:52Z</time>
      </trkpt>
      <trkpt lat="49.08186" lon="6.94913">
        <ele>271.7</ele>
        <time>2013-04-24T08:18:57Z</time>
      </trkpt>
      <trkpt lat="49.08185" lon="6.94912">
        <ele>271.6</ele>
        <time>2013-04-24T08:18:58Z</time>
      </trkpt>
      <trkpt lat="49.0818" lon="6.94899">
        <ele>271.8</ele>
        <time>2013-04-24T08:19:07Z</time>
      </trkpt>
      <trkpt lat="49.08177" lon="6.94893">
        <ele>272.1</ele>
        <time>2013-04-24T08:19:12Z</time>
      </trkpt>
      <trkpt lat="49.08174" lon="6.94885">
        <ele>271</ele>
        <time>2013-04-24T08:19:17Z</time>
      </trkpt>
      <trkpt lat="49.0817" lon="6.94876">
        <ele>271.4</ele>
        <time>2013-04-24T08:19:22Z</time>
      </trkpt>
      <trkpt lat="49.08166" lon="6.94868">
        <ele>271.3</ele>
        <time>2013-04-24T08:19:27Z</time>
      </trkpt>
      <trkpt lat="49.08162" lon="6.9486">
        <ele>271.8</ele>
        <time>2013-04-24T08:19:32Z</time>
      </trkpt>
      <trkpt lat="49.08158" lon="6.94853">
        <ele>271.8</ele>
        <time>2013-04-24T08:19:37Z</time>
      </trkpt>
      <trkpt lat="49.08155" lon="6.94845">
        <ele>271.4</ele>
        <time>2013-04-24T08:19:42Z</time>
      </trkpt>
      <trkpt lat="49.08151" lon="6.94837">
        <ele>271.7</ele>
        <time>2013-04-24T08:19:47Z</time>
      </trkpt>
      <trkpt lat="49.08148" lon="6.9483">
        <ele>271.2</ele>
        <time>2013-04-24T08:19:52Z</time>
      </trkpt>
      <trkpt lat="49.08145" lon="6.94822">
        <ele>271.9</ele>
        <time>2013-04-24T08:19:57Z</time>
      </trkpt>
      <trkpt lat="49.0814" lon="6.94813">
        <ele>272.2</ele>
        <time>2013-04-24T08:20:02Z</time>
      </trkpt>
      <trkpt lat="49.0814" lon="6.94812">
        <ele>272.3</ele>
        <time>2013-04-24T08:20:03Z</time>
      </trkpt>
      <trkpt lat="49.08132" lon="6.94799">
        <ele>272.1</ele>
        <time>2013-04-24T08:20:12Z</time>
      </trkpt>
      <trkpt lat="49.08127" lon="6.9479">
        <ele>271.4</ele>
        <time>2013-04-24T08:20:17Z</time>
      </trkpt>
      <trkpt lat="49.08123" lon="6.94782">
        <ele>272.2</ele>
        <time>2013-04-24T08:20:22Z</time>
      </trkpt>
      <trkpt lat="49.08119" lon="6.94776">
        <ele>271.3</ele>
        <time>2013-04-24T08:20:27Z</time>
      </trkpt>
      <trkpt lat="49.08118" lon="6.94772">
        <ele>270.8</ele>
        <time>2013-04-24T08:20:32Z</time>
      </trkpt>
      <trkpt lat="49.08116" lon="6.94768">
        <ele>271</ele>
        <time>2013-04-24T08:20:37Z</time>
      </trkpt>
      <trkpt lat="49.08115" lon="6.94764">
        <ele>270.8</ele>
        <time>2013-04-24T08:20:42Z</time>
      </trkpt>
      <trkpt lat="49.08112" lon="6.9476">
        <ele>271.3</ele>
        <time>2013-04-24T08:20:47Z</time>
      </trkpt>
      <trkpt lat="49.08108" lon="6.94755">
        <ele>271.4</ele>
        <time>2013-04-24T08:20:52Z</time>
      </trkpt>
      <trkpt lat="49.08104" lon="6.9475">
        <ele>271</ele>
        <time>2013-04-24T08:20:57Z</time>
      </trkpt>
      <trkpt lat="49.081" lon="6.94745">
        <ele>271.6</ele>
        <time>2013-04-24T08:21:02Z</time>
      </trkpt>
      <trkpt lat="49.08095" lon="6.94741">
        <ele>271.8</ele>
        <time>2013-04-24T08:21:07Z</time>
      </trkpt>
      <trkpt lat="49.08095" lon="6.9474">
        <ele>271.2</ele>
        <time>2013-04-24T08:21:08Z</time>
      </trkpt>
      <trkpt lat="49.08087" lon="6.94733">
        <ele>271.7</ele>
        <time>2013-04-24T08:21:17Z</time>
      </trkpt>
      <trkpt lat="49.08082" lon="6.94728">
        <ele>271.5</ele>
        <time>2013-04-24T08:21:22Z</time>
      </trkpt>
      <trkpt lat="49.08078" lon="6.94723">
        <ele>271.5</ele>
        <time>2013-04-24T08:21:27Z</time>
      </trkpt>
      <trkpt lat="49.08073" lon="6.94717">
        <ele>271.5</ele>
        <time>2013-04-24T08:21:32Z</time>
      </trkpt>
      <trkpt lat="49.08069" lon="6.94712">
        <ele>270.6</ele>
        <time>2013-04-24T08:21:37Z</time>
      </trkpt>
      <trkpt lat="49.08065" lon="6.94705">
        <ele>271.5</ele>
        <time>2013-04-24T08:21:42Z</time>
      </trkpt>
      <trkpt lat="49.0806" lon="6.947">
        <ele>271.1</ele>
        <time>2013-04-24T08:21:47Z</time>
      </trkpt>
      <trkpt lat="49.08055" lon="6.94693">
        <ele>271.2</ele>
        <time>2013-04-24T08:21:52Z</time>
      </trkpt>
      <trkpt lat="49.0805" lon="6.94687">
        <ele>271.2</ele>
        <time>2013-04-24T08:21:57Z</time>
      </trkpt>
      <trkpt lat="49.08045" lon="6.9468">
        <ele>271.6</ele>
        <time>2013-04-24T08:22:02Z</time>
      </trkpt>
      <trkpt lat="49.0804" lon="6.94673">
        <ele>271.2</ele>
        <time>2013-04-24T08:22:07Z</time>
      </trkpt>
      <trkpt lat="49.08035" lon="6.94666">
        <ele>271.9</ele>
        <time>2013-04-24T08:22:12Z</time>
      </trkpt>
      <trkpt lat="49.08034" lon="6.94664">
        <ele>272.1</ele>
        <time>2013-04-24T08:22:13Z</time>
      </trkpt>
      <trkpt lat="49.08026" lon="6.94651">
        <ele>272.3</ele>
        <time>2013-04-24T08:22:22Z</time>
      </trkpt>
      <trkpt lat="49.08021" lon="6.94644">
        <ele>271.7</ele>
        <time>2013-04-24T08:22:27Z</time>
      </trkpt>
      <trkpt lat="49.08016" lon="6.94637">
        <ele>271.6</ele>
        <time>2013-04-24T08:22:32Z</time>
      </trkpt>
      <trkpt lat="49.08011" lon="6.9463">
        <ele>271.4</ele>
        <time>2013-04-24T08:22:37Z</time>
      </trkpt>
      <trkpt lat="49.08007" lon="6.94624">
        <ele>272.2</ele>
        <time>2013-04-24T08:22:42Z</time>
      </trkpt>
      <trkpt lat="49.08002" lon="6.94617">
        <ele>272.3</ele>
        <time>2013-04-24T08:22:47Z</time>
      </trkpt>
      <trkpt lat="49.07997" lon="6.9461">
        <ele>271.8</ele>
        <time>2013-04-24T08:22:52Z</time>
      </trkpt>
      <trkpt lat="49.07992" lon="6.94604">
        <ele>272</ele>
        <time>2013-04-24T08:22:57Z</time>
      </trkpt>
      <trkpt lat="49.07988" lon="6.94597">
        <ele>271.4</ele>
        <time>2013-04-24T08:23:02Z</time>
      </trkpt>
      <trkpt lat="49.07984" lon="6.94591">
        <ele>271.5</ele>
        <time>2013-04-24T08:23:07Z</time>
      </trkpt>
      <trkpt lat="49.07979" lon="6.94585">
        <ele>272</ele>
        <time>2013-04-24T08:23:12Z</time>
      </trkpt>
      <trkpt lat="49.07975" lon="6.94579">
        <ele>272.4</ele>
        <time>2013-04-24T08:23:17Z</time>
      </trkpt>
      <trkpt lat="49.07974" lon="6.94578">
        <ele>272.2</ele>
        <time>2013-04-24T08:23:18Z</time>
      </trkpt>
      <trkpt lat="49.07966" lon="6.94565">
        <ele>271.9</ele>
        <time>2013-04-24T08:23:27Z</time>
      </trkpt>
      <trkpt lat="49.07962" lon="6.94559">
        <ele>272.2</ele>
        <time>2013-04-24T08:23:32Z</time>
      </trkpt>
      <trkpt lat="49.07959" lon="6.94551">
        <ele>272.3</ele>
        <time>2013-04-24T08:23:37Z</time>
      </trkpt>
      <trkpt lat="49.07955" lon="6.94545">
        <ele>272.6</ele>
        <time>2013-04-24T08:23:42Z</time>
      </trkpt>
      <trkpt lat="49.07951" lon="6.94539">
        <ele>272.8</ele>
        <time>2013-04-24T08:23:47Z</time>
      </trkpt>
      <trkpt lat="49.07948" lon="6.94532">
        <ele>273.1</ele>
        <time>2013-04-24T08:23:52Z</time>
      </trkpt>
      <trkpt lat="49.07943" lon="6.94526">
        <ele>274.1</ele>
        <time>2013-04-24T08:23:57Z</time>
      </trkpt>
      <trkpt lat="49.07939" lon="6.94522">
        <ele>273.9</ele>
        <time>2013-04-24T08:24:02Z</time>
      </trkpt>
      <trkpt lat="49.07935" lon="6.94525">
        <ele>273.4</ele>
        <time>2013-04-24T08:24:07Z</time>
      </trkpt>
      <trkpt lat="49.07931" lon="6.94531">
        <ele>273.3</ele>
        <time>2013-04-24T08:24:12Z</time>
      </trkpt>
      <trkpt lat="49.07928" lon="6.94538">
        <ele>272.5</ele>
        <time>2013-04-24T08:24:17Z</time>
      </trkpt>
      <trkpt lat="49.07925" lon="6.94546">
        <ele>272.1</ele>
        <time>2013-04-24T08:24:22Z</time>
      </trkpt>
      <trkpt lat="49.07925" lon="6.94548">
        <ele>271.8</ele>
        <time>2013-04-24T08:24:23Z</time>
      </trkpt>
      <trkpt lat="49.07922" lon="6.94563">
        <ele>270.8</ele>
        <time>2013-04-24T08:24:32Z</time>
      </trkpt>
      <trkpt lat="49.07921" lon="6.94572">
        <ele>270</ele>
        <time>2013-04-24T08:24:37Z</time>
      </trkpt>
      <trkpt lat="49.0792" lon="6.94582">
        <ele>269.9</ele>
        <time>2013-04-24T08:24:42Z</time>
      </trkpt>
      <trkpt lat="49.07919" lon="6.94592">
        <ele>270</ele>
        <time>2013-04-24T08:24:47Z</time>
      </trkpt>
      <trkpt lat="49.07918" lon="6.94603">
        <ele>269.4</ele>
        <time>2013-04-24T08:24:52Z</time>
      </trkpt>
      <trkpt lat="49.07917" lon="6.94613">
        <ele>270.1</ele>
        <time>2013-04-24T08:24:57Z</time>
      </trkpt>
      <trkpt lat="49.07916" lon="6.94622">
        <ele>268.5</ele>
        <time>2013-04-24T08:25:02Z</time>
      </trkpt>
      <trkpt lat="49.07915" lon="6.94632">
        <ele>268.9</ele>
        <time>2013-04-24T08:25:07Z</time>
      </trkpt>
      <trkpt lat="49.07914" lon="6.94642">
        <ele>269</ele>
        <time>2013-04-24T08:25:12Z</time>
      </trkpt>
      <trkpt lat="49.07913" lon="6.94651">
        <ele>268.7</ele>
        <time>2013-04-24T08:25:17Z</time>
      </trkpt>
      <trkpt lat="49.07912" lon="6.94661">
        <ele>267.5</ele>
        <time>2013-04-24T08:25:22Z</time>
      </trkpt>
      <trkpt lat="49.07911" lon="6.9467">
        <ele>268.1</ele>
        <time>2013-04-24T08:25:27Z</time>
      </trkpt>
      <trkpt lat="49.07911" lon="6.94672">
        <ele>268.1</ele>
        <time>2013-04-24T08:25:28Z</time>
      </trkpt>
      <trkpt lat="49.07908" lon="6.94689">
        <ele>267.8</ele>
        <time>2013-04-24T08:25:37Z</time>
      </trkpt>
      <trkpt lat="49.07906" lon="6.94698">
        <ele>267.9</ele>
        <time>2013-04-24T08:25:42Z</time>
      </trkpt>
      <trkpt lat="49.07903" lon="6.94707">
        <ele>267.2</ele>
        <time>2013-04-24T08:25:47Z</time>
      </trkpt>
      <trkpt lat="49.079" lon="6.94717">
        <ele>266.5</ele>
        <time>2013-04-24T08:25:52Z</time>
      </trkpt>
      <trkpt lat="49.07897" lon="6.94726">
        <ele>267</ele>
        <time>2013-04-24T08:25:57Z</time>
      </trkpt>
      <trkpt lat="49.07894" lon="6.94735">
        <ele>267.5</ele>
        <time>2013-04-24T08:26:02Z</time>
      </trkpt>
      <trkpt lat="49.0789" lon="6.94743">
        <ele>267.6</ele>
        <time>2013-04-24T08:26:07Z</time>
      </trkpt>
      <trkpt lat="49.07886" lon="6.9475">
        <ele>267.6</ele>
        <time>2013-04-24T08:26:12Z</time>
      </trkpt>
      <trkpt lat="49.07882" lon="6.94758">
        <ele>267.4</ele>
        <time>2013-04-24T08:26:17Z</time>
      </trkpt>
      <trkpt lat="49.07878" lon="6.94765">
        <ele>268</ele>
        <time>2013-04-24T08:26:22Z</time>
      </trkpt>
      <trkpt lat="49.07874" lon="6.94772">
        <ele>266.9</ele>
        <time>2013-04-24T08:26:27Z</time>
      </trkpt>
      <trkpt lat="49.07871" lon="6.9478">
        <ele>266.5</ele>
        <time>2013-04-24T08:26:32Z</time>
      </trkpt>
      <trkpt lat="49.0787" lon="6.94782">
        <ele>266.7</ele>
        <time>2013-04-24T08:26:33Z</time>
      </trkpt>
      <trkpt lat="49.07862" lon="6.94794">
        <ele>266.3</ele>
        <time>2013-04-24T08:26:42Z</time>
      </trkpt>
      <trkpt lat="49.07857" lon="6.948">
        <ele>266</ele>
        <time>2013-04-24T08:26:47Z</time>
      </trkpt>
      <trkpt lat="49.07851" lon="6.94806">
        <ele>266.5</ele>
        <time>2013-04-24T08:26:52Z</time>
      </trkpt>
      <trkpt lat="49.07846" lon="6.94811">
        <ele>266.9</ele>
        <time>2013-04-24T08:26:57Z</time>
      </trkpt>
      <trkpt lat="49.07841" lon="6.94817">
        <ele>266.1</ele>
        <time>2013-04-24T08:27:02Z</time>
      </trkpt>
      <trkpt lat="49.07835" lon="6.94823">
        <ele>266.4</ele>
        <time>2013-04-24T08:27:07Z</time>
      </trkpt>
      <trkpt lat="49.0783" lon="6.94828">
        <ele>266.6</ele>
        <time>2013-04-24T08:27:12Z</time>
      </trkpt>
      <trkpt lat="49.07825" lon="6.94834">
        <ele>266.2</ele>
        <time>2013-04-24T08:27:17Z</time>
      </trkpt>
      <trkpt lat="49.07819" lon="6.94839">
        <ele>266</ele>
        <time>2013-04-24T08:27:22Z</time>
      </trkpt>
      <trkpt lat="49.07814" lon="6.94843">
        <ele>266.9</ele>
        <time>2013-04-24T08:27:27Z</time>
      </trkpt>
      <trkpt lat="49.07809" lon="6.94848">
        <ele>266.7</ele>
        <time>2013-04-24T08:27:32Z</time>
      </trkpt>
      <trkpt lat="49.07804" lon="6.94853">
        <ele>266</ele>
        <time>2013-04-24T08:27:37Z</time>
      </trkpt>
      <trkpt lat="49.07803" lon="6.94854">
        <ele>265.9</ele>
        <time>2013-04-24T08:27:38Z</time>
      </trkpt>
      <trkpt lat="49.07793" lon="6.94863">
        <ele>266.2</ele>
        <time>2013-04-24T08:27:47Z</time>
      </trkpt>
      <trkpt lat="49.07788" lon="6.94869">
        <ele>265.9</ele>
        <time>2013-04-24T08:27:52Z</time>
      </trkpt>
      <trkpt lat="49.07783" lon="6.94874">
        <ele>267</ele>
        <time>2013-04-24T08:27:57Z</time>
      </trkpt>
      <trkpt lat="49.07777" lon="6.94879">
        <ele>266.7</ele>
        <time>2013-04-24T08:28:02Z</time>
      </trkpt>
      <trkpt lat="49.07772" lon="6.94884">
        <ele>265.8</ele>
        <time>2013-04-24T08:28:07Z</time>
      </trkpt>
      <trkpt lat="49.07766" lon="6.94889">
        <ele>266.2</ele>
        <time>2013-04-24T08:28:12Z</time>
      </trkpt>
      <trkpt lat="49.0776" lon="6.94893">
        <ele>266.5</ele>
        <time>2013-04-24T08:28:17Z</time>
      </trkpt>
      <trkpt lat="49.07755" lon="6.94898">
        <ele>266.4</ele>
        <time>2013-04-24T08:28:22Z</time>
      </trkpt>
      <trkpt lat="49.07749" lon="6.94903">
        <ele>266.7</ele>
        <time>2013-04-24T08:28:27Z</time>
      </trkpt>
      <trkpt lat="49.07744" lon="6.94908">
        <ele>266.3</ele>
        <time>2013-04-24T08:28:32Z</time>
      </trkpt>
      <trkpt lat="49.07738" lon="6.94914">
        <ele>266.4</ele>
        <time>2013-04-24T08:28:37Z</time>
      </trkpt>
      <trkpt lat="49.07733" lon="6.94919">
        <ele>266.2</ele>
        <time>2013-04-24T08:28:42Z</time>
      </trkpt>
      <trkpt lat="49.07732" lon="6.9492">
        <ele>266</ele>
        <time>2013-04-24T08:28:43Z</time>
      </trkpt>
      <trkpt lat="49.07722" lon="6.94931">
        <ele>266.3</ele>
        <time>2013-04-24T08:28:52Z</time>
      </trkpt>
      <trkpt lat="49.07717" lon="6.94937">
        <ele>266.9</ele>
        <time>2013-04-24T08:28:57Z</time>
      </trkpt>
      <trkpt lat="49.07712" lon="6.94942">
        <ele>266.4</ele>
        <time>2013-04-24T08:29:02Z</time>
      </trkpt>
      <trkpt lat="49.07707" lon="6.94947">
        <ele>265.9</ele>
        <time>2013-04-24T08:29:07Z</time>
      </trkpt>
      <trkpt lat="49.07701" lon="6.9495">
        <ele>265.2</ele>
        <time>2013-04-24T08:29:12Z</time>
      </trkpt>
      <trkpt lat="49.07697" lon="6.94952">
        <ele>265.3</ele>
        <time>2013-04-24T08:29:17Z</time>
      </trkpt>
      <trkpt lat="49.07696" lon="6.94953">
        <ele>265.1</ele>
        <time>2013-04-24T08:29:22Z</time>
      </trkpt>
      <trkpt lat="49.07695" lon="6.94954">
        <ele>265.8</ele>
        <time>2013-04-24T08:29:27Z</time>
      </trkpt>
      <trkpt lat="49.07694" lon="6.94953">
        <ele>265.5</ele>
        <time>2013-04-24T08:29:32Z</time>
      </trkpt>
      <trkpt lat="49.07693" lon="6.94952">
        <ele>266.1</ele>
        <time>2013-04-24T08:29:37Z</time>
      </trkpt>
      <trkpt lat="49.07693" lon="6.94951">
        <ele>266.1</ele>
        <time>2013-04-24T08:29:42Z</time>
      </trkpt>
      <trkpt lat="49.07693" lon="6.94951">
        <ele>265.7</ele>
        <time>2013-04-24T08:29:47Z</time>
      </trkpt>
      <trkpt lat="49.07693" lon="6.94951">
        <ele>265.4</ele>
        <time>2013-04-24T08:29:48Z</time>
      </trkpt>
      <trkpt lat="49.07693" lon="6.94951">
        <ele>265.3</ele>
        <time>2013-04-24T08:29:57Z</time>
      </trkpt>
      <trkpt lat="49.07692" lon="6.94952">
        <ele>265.3</ele>
        <time>2013-04-24T08:30:02Z</time>
      </trkpt>
      <trkpt lat="49.07691" lon="6.94954">
        <ele>264.1</ele>
        <time>2013-04-24T08:30:07Z</time>
      </trkpt>
      <trkpt lat="49.0769" lon="6.94955">
        <ele>264.4</ele>
        <time>2013-04-24T08:30:12Z</time>
      </trkpt>
      <trkpt lat="49.0769" lon="6.94956">
        <ele>265.1</ele>
        <time>2013-04-24T08:30:17Z</time>
      </trkpt>
      <trkpt lat="49.07689" lon="6.94958">
        <ele>264</ele>
        <time>2013-04-24T08:30:22Z</time>
      </trkpt>
      <trkpt lat="49.07686" lon="6.94962">
        <ele>264.9</ele>
        <time>2013-04-24T08:30:27Z</time>
      </trkpt>
      <trkpt lat="49.07683" lon="6.94967">
        <ele>265</ele>
        <time>2013-04-24T08:30:32Z</time>
      </trkpt>
      <trkpt lat="49.07683" lon="6.94969">
        <ele>264.4</ele>
        <time>2013-04-24T08:30:37Z</time>
      </trkpt>
      <trkpt lat="49.07682" lon="6.9497">
        <ele>264.2</ele>
        <time>2013-04-24T08:30:42Z</time>
      </trkpt>
      <trkpt lat="49.07682" lon="6.94971">
        <ele>264.2</ele>
        <time>2013-04-24T08:30:47Z</time>
      </trkpt>
      <trkpt lat="49.0768" lon="6.94975">
        <ele>263.9</ele>
        <time>2013-04-24T08:30:52Z</time>
      </trkpt>
      <trkpt lat="49.0768" lon="6.94976">
        <ele>263.9</ele>
        <time>2013-04-24T08:30:53Z</time>
      </trkpt>
      <trkpt lat="49.07673" lon="6.94987">
        <ele>263.9</ele>
        <time>2013-04-24T08:31:02Z</time>
      </trkpt>
      <trkpt lat="49.07668" lon="6.94993">
        <ele>263.5</ele>
        <time>2013-04-24T08:31:07Z</time>
      </trkpt>
      <trkpt lat="49.07663" lon="6.94998">
        <ele>263.6</ele>
        <time>2013-04-24T08:31:12Z</time>
      </trkpt>
      <trkpt lat="49.07658" lon="6.95004">
        <ele>263.2</ele>
        <time>2013-04-24T08:31:17Z</time>
      </trkpt>
      <trkpt lat="49.07653" lon="6.95008">
        <ele>263.1</ele>
        <time>2013-04-24T08:31:22Z</time>
      </trkpt>
      <trkpt lat="49.07647" lon="6.95012">
        <ele>263.7</ele>
        <time>2013-04-24T08:31:27Z</time>
      </trkpt>
      <trkpt lat="49.07642" lon="6.95016">
        <ele>262.9</ele>
        <time>2013-04-24T08:31:32Z</time>
      </trkpt>
      <trkpt lat="49.07637" lon="6.9502">
        <ele>262.5</ele>
        <time>2013-04-24T08:31:37Z</time>
      </trkpt>
      <trkpt lat="49.07637" lon="6.9502">
        <ele>262.5</ele>
        <time>2013-04-24T08:31:37Z</time>
      </trkpt>
      <trkpt lat="49.07632" lon="6.95023">
        <ele>261.1</ele>
        <time>2013-04-24T08:31:42Z</time>
      </trkpt>
      <trkpt lat="49.07627" lon="6.95028">
        <ele>261.4</ele>
        <time>2013-04-24T08:31:47Z</time>
      </trkpt>
      <trkpt lat="49.07622" lon="6.95031">
        <ele>261.9</ele>
        <time>2013-04-24T08:31:52Z</time>
      </trkpt>
      <trkpt lat="49.07617" lon="6.95035">
        <ele>261</ele>
        <time>2013-04-24T08:31:57Z</time>
      </trkpt>
      <trkpt lat="49.07616" lon="6.95036">
        <ele>260.7</ele>
        <time>2013-04-24T08:31:58Z</time>
      </trkpt>
      <trkpt lat="49.07608" lon="6.95044">
        <ele>259.7</ele>
        <time>2013-04-24T08:32:07Z</time>
      </trkpt>
      <trkpt lat="49.07603" lon="6.95049">
        <ele>259.4</ele>
        <time>2013-04-24T08:32:12Z</time>
      </trkpt>
      <trkpt lat="49.07597" lon="6.95054">
        <ele>259.5</ele>
        <time>2013-04-24T08:32:17Z</time>
      </trkpt>
      <trkpt lat="49.07592" lon="6.95059">
        <ele>258.9</ele>
        <time>2013-04-24T08:32:22Z</time>
      </trkpt>
      <trkpt lat="49.07588" lon="6.95062">
        <ele>259.1</ele>
        <time>2013-04-24T08:32:27Z</time>
      </trkpt>
      <trkpt lat="49.07583" lon="6.95066">
        <ele>260</ele>
        <time>2013-04-24T08:32:32Z</time>
      </trkpt>
      <trkpt lat="49.07578" lon="6.95071">
        <ele>259.6</ele>
        <time>2013-04-24T08:32:37Z</time>
      </trkpt>
      <trkpt lat="49.07574" lon="6.95073">
        <ele>258.8</ele>
        <time>2013-04-24T08:32:42Z</time>
      </trkpt>
      <trkpt lat="49.07574" lon="6.95074">
        <ele>259.9</ele>
        <time>2013-04-24T08:32:47Z</time>
      </trkpt>
      <trkpt lat="49.07574" lon="6.95077">
        <ele>259.6</ele>
        <time>2013-04-24T08:32:52Z</time>
      </trkpt>
      <trkpt lat="49.07571" lon="6.95082">
        <ele>259.7</ele>
        <time>2013-04-24T08:32:57Z</time>
      </trkpt>
      <trkpt lat="49.07568" lon="6.95086">
        <ele>259.8</ele>
        <time>2013-04-24T08:33:02Z</time>
      </trkpt>
      <trkpt lat="49.07568" lon="6.95087">
        <ele>259.5</ele>
        <time>2013-04-24T08:33:03Z</time>
      </trkpt>
      <trkpt lat="49.0756" lon="6.95096">
        <ele>259.6</ele>
        <time>2013-04-24T08:33:12Z</time>
      </trkpt>
      <trkpt lat="49.07555" lon="6.95101">
        <ele>259.6</ele>
        <time>2013-04-24T08:33:17Z</time>
      </trkpt>
      <trkpt lat="49.0755" lon="6.95107">
        <ele>259.6</ele>
        <time>2013-04-24T08:33:22Z</time>
      </trkpt>
      <trkpt lat="49.07545" lon="6.95115">
        <ele>259.3</ele>
        <time>2013-04-24T08:33:27Z</time>
      </trkpt>
      <trkpt lat="49.0754" lon="6.95123">
        <ele>259.8</ele>
        <time>2013-04-24T08:33:32Z</time>
      </trkpt>
      <trkpt lat="49.07536" lon="6.95132">
        <ele>257.7</ele>
        <time>2013-04-24T08:33:37Z</time>
      </trkpt>
      <trkpt lat="49.07532" lon="6.9514">
        <ele>258.6</ele>
        <time>2013-04-24T08:33:42Z</time>
      </trkpt>
      <trkpt lat="49.07528" lon="6.95148">
        <ele>258.8</ele>
        <time>2013-04-24T08:33:47Z</time>
      </trkpt>
      <trkpt lat="49.07524" lon="6.95156">
        <ele>260.3</ele>
        <time>2013-04-24T08:33:52Z</time>
      </trkpt>
      <trkpt lat="49.0752" lon="6.95164">
        <ele>260.8</ele>
        <time>2013-04-24T08:33:57Z</time>
      </trkpt>
      <trkpt lat="49.07517" lon="6.95172">
        <ele>259.8</ele>
        <time>2013-04-24T08:34:02Z</time>
      </trkpt>
      <trkpt lat="49.07513" lon="6.95179">
        <ele>260.9</ele>
        <time>2013-04-24T08:34:07Z</time>
      </trkpt>
      <trkpt lat="49.07513" lon="6.9518">
        <ele>261.1</ele>
        <time>2013-04-24T08:34:08Z</time>
      </trkpt>
      <trkpt lat="49.07509" lon="6.95194">
        <ele>261.1</ele>
        <time>2013-04-24T08:34:17Z</time>
      </trkpt>
      <trkpt lat="49.07507" lon="6.95202">
        <ele>261.1</ele>
        <time>2013-04-24T08:34:22Z</time>
      </trkpt>
      <trkpt lat="49.07506" lon="6.95212">
        <ele>261.6</ele>
        <time>2013-04-24T08:34:27Z</time>
      </trkpt>
      <trkpt lat="49.07507" lon="6.95221">
        <ele>261.6</ele>
        <time>2013-04-24T08:34:32Z</time>
      </trkpt>
      <trkpt lat="49.07507" lon="6.95231">
        <ele>261.8</ele>
        <time>2013-04-24T08:34:37Z</time>
      </trkpt>
      <trkpt lat="49.07507" lon="6.95241">
        <ele>262.1</ele>
        <time>2013-04-24T08:34:42Z</time>
      </trkpt>
      <trkpt lat="49.07507" lon="6.95252">
        <ele>261.5</ele>
        <time>2013-04-24T08:34:47Z</time>
      </trkpt>
      <trkpt lat="49.07507" lon="6.95263">
        <ele>261.9</ele>
        <time>2013-04-24T08:34:52Z</time>
      </trkpt>
      <trkpt lat="49.07507" lon="6.95273">
        <ele>261.8</ele>
        <time>2013-04-24T08:34:57Z</time>
      </trkpt>
      <trkpt lat="49.07507" lon="6.95283">
        <ele>262.4</ele>
        <time>2013-04-24T08:35:02Z</time>
      </trkpt>
      <trkpt lat="49.07507" lon="6.95292">
        <ele>262.5</ele>
        <time>2013-04-24T08:35:07Z</time>
      </trkpt>
      <trkpt lat="49.07507" lon="6.95301">
        <ele>263.7</ele>
        <time>2013-04-24T08:35:12Z</time>
      </trkpt>
      <trkpt lat="49.07507" lon="6.95303">
        <ele>263.3</ele>
        <time>2013-04-24T08:35:13Z</time>
      </trkpt>
      <trkpt lat="49.07504" lon="6.9532">
        <ele>262.2</ele>
        <time>2013-04-24T08:35:22Z</time>
      </trkpt>
      <trkpt lat="49.07502" lon="6.95328">
        <ele>262.4</ele>
        <time>2013-04-24T08:35:27Z</time>
      </trkpt>
      <trkpt lat="49.07499" lon="6.95337">
        <ele>262.8</ele>
        <time>2013-04-24T08:35:32Z</time>
      </trkpt>
      <trkpt lat="49.07495" lon="6.95345">
        <ele>263.1</ele>
        <time>2013-04-24T08:35:37Z</time>
      </trkpt>
      <trkpt lat="49.07491" lon="6.95354">
        <ele>263</ele>
        <time>2013-04-24T08:35:42Z</time>
      </trkpt>
      <trkpt lat="49.07486" lon="6.95361">
        <ele>262.5</ele>
        <time>2013-04-24T08:35:47Z</time>
      </trkpt>
      <trkpt lat="49.0748" lon="6.95368">
        <ele>262.4</ele>
        <time>2013-04-24T08:35:52Z</time>
      </trkpt>
      <trkpt lat="49.07475" lon="6.95373">
        <ele>262.2</ele>
        <time>2013-04-24T08:35:57Z</time>
      </trkpt>
      <trkpt lat="49.07468" lon="6.95378">
        <ele>262.6</ele>
        <time>2013-04-24T08:36:02Z</time>
      </trkpt>
      <trkpt lat="49.07462" lon="6.95383">
        <ele>263.4</ele>
        <time>2013-04-24T08:36:07Z</time>
      </trkpt>
      <trkpt lat="49.07455" lon="6.95387">
        <ele>263.3</ele>
        <time>2013-04-24T08:36:12Z</time>
      </trkpt>
      <trkpt lat="49.07449" lon="6.9539">
        <ele>263.9</ele>
        <time>2013-04-24T08:36:17Z</time>
      </trkpt>
      <trkpt lat="49.07447" lon="6.95391">
        <ele>263.8</ele>
        <time>2013-04-24T08:36:18Z</time>
      </trkpt>
      <trkpt lat="49.07435" lon="6.95397">
        <ele>263</ele>
        <time>2013-04-24T08:36:27Z</time>
      </trkpt>
      <trkpt lat="49.07431" lon="6.95398">
        <ele>263.3</ele>
        <time>2013-04-24T08:36:32Z</time>
      </trkpt>
      <trkpt lat="49.0743" lon="6.95398">
        <ele>262.8</ele>
        <time>2013-04-24T08:36:37Z</time>
      </trkpt>
      <trkpt lat="49.07425" lon="6.95401">
        <ele>262.2</ele>
        <time>2013-04-24T08:36:42Z</time>
      </trkpt>
      <trkpt lat="49.07419" lon="6.95403">
        <ele>263.3</ele>
        <time>2013-04-24T08:36:47Z</time>
      </trkpt>
      <trkpt lat="49.07413" lon="6.95406">
        <ele>262.7</ele>
        <time>2013-04-24T08:36:52Z</time>
      </trkpt>
      <trkpt lat="49.07407" lon="6.95408">
        <ele>262.9</ele>
        <time>2013-04-24T08:36:57Z</time>
      </trkpt>
      <trkpt lat="49.07401" lon="6.95411">
        <ele>262.9</ele>
        <time>2013-04-24T08:37:02Z</time>
      </trkpt>
      <trkpt lat="49.07395" lon="6.95414">
        <ele>263.1</ele>
        <time>2013-04-24T08:37:07Z</time>
      </trkpt>
      <trkpt lat="49.07388" lon="6.95417">
        <ele>263.2</ele>
        <time>2013-04-24T08:37:12Z</time>
      </trkpt>
      <trkpt lat="49.07383" lon="6.9542">
        <ele>264</ele>
        <time>2013-04-24T08:37:17Z</time>
      </trkpt>
      <trkpt lat="49.07377" lon="6.95423">
        <ele>263.7</ele>
        <time>2013-04-24T08:37:22Z</time>
      </trkpt>
      <trkpt lat="49.07375" lon="6.95424">
        <ele>263.7</ele>
        <time>2013-04-24T08:37:23Z</time>
      </trkpt>
      <trkpt lat="49.07365" lon="6.95431">
        <ele>262.6</ele>
        <time>2013-04-24T08:37:32Z</time>
      </trkpt>
      <trkpt lat="49.07359" lon="6.95435">
        <ele>262.6</ele>
        <time>2013-04-24T08:37:37Z</time>
      </trkpt>
      <trkpt lat="49.07353" lon="6.95439">
        <ele>263.5</ele>
        <time>2013-04-24T08:37:42Z</time>
      </trkpt>
      <trkpt lat="49.07347" lon="6.95441">
        <ele>263.7</ele>
        <time>2013-04-24T08:37:47Z</time>
      </trkpt>
      <trkpt lat="49.07341" lon="6.95444">
        <ele>262.3</ele>
        <time>2013-04-24T08:37:52Z</time>
      </trkpt>
      <trkpt lat="49.07334" lon="6.95447">
        <ele>265.1</ele>
        <time>2013-04-24T08:37:57Z</time>
      </trkpt>
      <trkpt lat="49.07328" lon="6.9545">
        <ele>262.7</ele>
        <time>2013-04-24T08:38:02Z</time>
      </trkpt>
      <trkpt lat="49.07321" lon="6.95453">
        <ele>262.7</ele>
        <time>2013-04-24T08:38:07Z</time>
      </trkpt>
      <trkpt lat="49.07315" lon="6.95456">
        <ele>262.8</ele>
        <time>2013-04-24T08:38:12Z</time>
      </trkpt>
      <trkpt lat="49.07308" lon="6.95458">
        <ele>263.1</ele>
        <time>2013-04-24T08:38:17Z</time>
      </trkpt>
      <trkpt lat="49.07302" lon="6.95459">
        <ele>263.5</ele>
        <time>2013-04-24T08:38:22Z</time>
      </trkpt>
      <trkpt lat="49.07295" lon="6.95461">
        <ele>263.7</ele>
        <time>2013-04-24T08:38:27Z</time>
      </trkpt>
      <trkpt lat="49.07294" lon="6.95461">
        <ele>263.6</ele>
        <time>2013-04-24T08:38:28Z</time>
      </trkpt>
      <trkpt lat="49.07283" lon="6.95463">
        <ele>264</ele>
        <time>2013-04-24T08:38:37Z</time>
      </trkpt>
      <trkpt lat="49.07276" lon="6.95465">
        <ele>264.6</ele>
        <time>2013-04-24T08:38:42Z</time>
      </trkpt>
      <trkpt lat="49.07269" lon="6.95467">
        <ele>264.3</ele>
        <time>2013-04-24T08:38:47Z</time>
      </trkpt>
      <trkpt lat="49.07263" lon="6.95468">
        <ele>264.3</ele>
        <time>2013-04-24T08:38:52Z</time>
      </trkpt>
      <trkpt lat="49.07257" lon="6.95469">
        <ele>264.5</ele>
        <time>2013-04-24T08:38:57Z</time>
      </trkpt>
      <trkpt lat="49.0725" lon="6.95471">
        <ele>264.9</ele>
        <time>2013-04-24T08:39:02Z</time>
      </trkpt>
      <trkpt lat="49.07244" lon="6.95473">
        <ele>263.3</ele>
        <time>2013-04-24T08:39:07Z</time>
      </trkpt>
      <trkpt lat="49.07238" lon="6.95475">
        <ele>264.3</ele>
        <time>2013-04-24T08:39:12Z</time>
      </trkpt>
      <trkpt lat="49.07231" lon="6.95478">
        <ele>264.6</ele>
        <time>2013-04-24T08:39:17Z</time>
      </trkpt>
      <trkpt lat="49.07225" lon="6.9548">
        <ele>264.4</ele>
        <time>2013-04-24T08:39:22Z</time>
      </trkpt>
      <trkpt lat="49.0722" lon="6.95481">
        <ele>264.6</ele>
        <time>2013-04-24T08:39:27Z</time>
      </trkpt>
      <trkpt lat="49.07215" lon="6.95484">
        <ele>263.7</ele>
        <time>2013-04-24T08:39:32Z</time>
      </trkpt>
      <trkpt lat="49.07214" lon="6.95485">
        <ele>263.5</ele>
        <time>2013-04-24T08:39:33Z</time>
      </trkpt>
      <trkpt lat="49.07203" lon="6.9549">
        <ele>264.5</ele>
        <time>2013-04-24T08:39:42Z</time>
      </trkpt>
      <trkpt lat="49.07198" lon="6.95493">
        <ele>264.3</ele>
        <time>2013-04-24T08:39:47Z</time>
      </trkpt>
      <trkpt lat="49.07193" lon="6.95496">
        <ele>264.3</ele>
        <time>2013-04-24T08:39:52Z</time>
      </trkpt>
      <trkpt lat="49.07189" lon="6.955">
        <ele>263.9</ele>
        <time>2013-04-24T08:39:57Z</time>
      </trkpt>
      <trkpt lat="49.07183" lon="6.95502">
        <ele>263.9</ele>
        <time>2013-04-24T08:40:02Z</time>
      </trkpt>
      <trkpt lat="49.07177" lon="6.95504">
        <ele>264.3</ele>
        <time>2013-04-24T08:40:07Z</time>
      </trkpt>
      <trkpt lat="49.07171" lon="6.95507">
        <ele>264.9</ele>
        <time>2013-04-24T08:40:12Z</time>
      </trkpt>
      <trkpt lat="49.07165" lon="6.9551">
        <ele>265.4</ele>
        <time>2013-04-24T08:40:17Z</time>
      </trkpt>
      <trkpt lat="49.0716" lon="6.95514">
        <ele>264.8</ele>
        <time>2013-04-24T08:40:22Z</time>
      </trkpt>
      <trkpt lat="49.07155" lon="6.95518">
        <ele>264.6</ele>
        <time>2013-04-24T08:40:27Z</time>
      </trkpt>
      <trkpt lat="49.0715" lon="6.95522">
        <ele>264.8</ele>
        <time>2013-04-24T08:40:32Z</time>
      </trkpt>
      <trkpt lat="49.07145" lon="6.95528">
        <ele>263.6</ele>
        <time>2013-04-24T08:40:37Z</time>
      </trkpt>
      <trkpt lat="49.07144" lon="6.95529">
        <ele>263.9</ele>
        <time>2013-04-24T08:40:38Z</time>
      </trkpt>
      <trkpt lat="49.07136" lon="6.95538">
        <ele>263.4</ele>
        <time>2013-04-24T08:40:47Z</time>
      </trkpt>
      <trkpt lat="49.0713" lon="6.95545">
        <ele>263.5</ele>
        <time>2013-04-24T08:40:52Z</time>
      </trkpt>
      <trkpt lat="49.07126" lon="6.9555">
        <ele>263</ele>
        <time>2013-04-24T08:40:57Z</time>
      </trkpt>
      <trkpt lat="49.07122" lon="6.95557">
        <ele>262.8</ele>
        <time>2013-04-24T08:41:02Z</time>
      </trkpt>
      <trkpt lat="49.07117" lon="6.95564">
        <ele>262.8</ele>
        <time>2013-04-24T08:41:07Z</time>
      </trkpt>
      <trkpt lat="49.07112" lon="6.95571">
        <ele>261.7</ele>
        <time>2013-04-24T08:41:12Z</time>
      </trkpt>
      <trkpt lat="49.07108" lon="6.95578">
        <ele>262.2</ele>
        <time>2013-04-24T08:41:17Z</time>
      </trkpt>
      <trkpt lat="49.07104" lon="6.95585">
        <ele>260.7</ele>
        <time>2013-04-24T08:41:22Z</time>
      </trkpt>
      <trkpt lat="49.071" lon="6.95592">
        <ele>260.1</ele>
        <time>2013-04-24T08:41:27Z</time>
      </trkpt>
      <trkpt lat="49.07097" lon="6.95597">
        <ele>260.1</ele>
        <time>2013-04-24T08:41:32Z</time>
      </trkpt>
      <trkpt lat="49.07093" lon="6.95603">
        <ele>259.5</ele>
        <time>2013-04-24T08:41:37Z</time>
      </trkpt>
      <trkpt lat="49.0709" lon="6.9561">
        <ele>258.6</ele>
        <time>2013-04-24T08:41:42Z</time>
      </trkpt>
      <trkpt lat="49.07089" lon="6.95611">
        <ele>258.2</ele>
        <time>2013-04-24T08:41:43Z</time>
      </trkpt>
      <trkpt lat="49.07082" lon="6.95623">
        <ele>257.5</ele>
        <time>2013-04-24T08:41:52Z</time>
      </trkpt>
      <trkpt lat="49.07079" lon="6.9563">
        <ele>257.2</ele>
        <time>2013-04-24T08:41:57Z</time>
      </trkpt>
      <trkpt lat="49.07075" lon="6.95638">
        <ele>257.1</ele>
        <time>2013-04-24T08:42:02Z</time>
      </trkpt>
      <trkpt lat="49.0707" lon="6.95646">
        <ele>258.1</ele>
        <time>2013-04-24T08:42:07Z</time>
      </trkpt>
      <trkpt lat="49.07065" lon="6.95653">
        <ele>257.9</ele>
        <time>2013-04-24T08:42:12Z</time>
      </trkpt>
      <trkpt lat="49.07061" lon="6.95662">
        <ele>257.8</ele>
        <time>2013-04-24T08:42:17Z</time>
      </trkpt>
      <trkpt lat="49.07059" lon="6.95671">
        <ele>257.7</ele>
        <time>2013-04-24T08:42:22Z</time>
      </trkpt>
      <trkpt lat="49.07055" lon="6.95678">
        <ele>257.8</ele>
        <time>2013-04-24T08:42:27Z</time>
      </trkpt>
      <trkpt lat="49.0705" lon="6.95686">
        <ele>257.1</ele>
        <time>2013-04-24T08:42:32Z</time>
      </trkpt>
      <trkpt lat="49.07045" lon="6.95695">
        <ele>257.5</ele>
        <time>2013-04-24T08:42:37Z</time>
      </trkpt>
      <trkpt lat="49.07039" lon="6.95705">
        <ele>258.7</ele>
        <time>2013-04-24T08:42:42Z</time>
      </trkpt>
      <trkpt lat="49.07034" lon="6.95713">
        <ele>258.8</ele>
        <time>2013-04-24T08:42:47Z</time>
      </trkpt>
      <trkpt lat="49.07033" lon="6.95714">
        <ele>258.9</ele>
        <time>2013-04-24T08:42:48Z</time>
      </trkpt>
      <trkpt lat="49.07023" lon="6.95726">
        <ele>259.1</ele>
        <time>2013-04-24T08:42:57Z</time>
      </trkpt>
      <trkpt lat="49.07019" lon="6.95727">
        <ele>260.2</ele>
        <time>2013-04-24T08:43:02Z</time>
      </trkpt>
      <trkpt lat="49.07015" lon="6.95729">
        <ele>259.4</ele>
        <time>2013-04-24T08:43:07Z</time>
      </trkpt>
      <trkpt lat="49.07011" lon="6.95729">
        <ele>260.1</ele>
        <time>2013-04-24T08:43:12Z</time>
      </trkpt>
      <trkpt lat="49.07007" lon="6.95727">
        <ele>260.9</ele>
        <time>2013-04-24T08:43:17Z</time>
      </trkpt>
      <trkpt lat="49.07002" lon="6.95727">
        <ele>261.4</ele>
        <time>2013-04-24T08:43:22Z</time>
      </trkpt>
      <trkpt lat="49.06997" lon="6.95725">
        <ele>261.6</ele>
        <time>2013-04-24T08:43:27Z</time>
      </trkpt>
      <trkpt lat="49.06993" lon="6.95723">
        <ele>261.2</ele>
        <time>2013-04-24T08:43:32Z</time>
      </trkpt>
      <trkpt lat="49.06987" lon="6.95722">
        <ele>261</ele>
        <time>2013-04-24T08:43:37Z</time>
      </trkpt>
      <trkpt lat="49.06982" lon="6.95723">
        <ele>261.7</ele>
        <time>2013-04-24T08:43:42Z</time>
      </trkpt>
      <trkpt lat="49.06977" lon="6.95726">
        <ele>262.8</ele>
        <time>2013-04-24T08:43:47Z</time>
      </trkpt>
      <trkpt lat="49.06972" lon="6.9573">
        <ele>262.7</ele>
        <time>2013-04-24T08:43:52Z</time>
      </trkpt>
      <trkpt lat="49.06971" lon="6.95731">
        <ele>263.2</ele>
        <time>2013-04-24T08:43:53Z</time>
      </trkpt>
      <trkpt lat="49.06961" lon="6.95742">
        <ele>264</ele>
        <time>2013-04-24T08:44:02Z</time>
      </trkpt>
      <trkpt lat="49.06961" lon="6.95742">
        <ele>264</ele>
        <time>2013-04-24T08:44:02Z</time>
      </trkpt>
      <trkpt lat="49.06956" lon="6.95746">
        <ele>264</ele>
        <time>2013-04-24T08:44:07Z</time>
      </trkpt>
      <trkpt lat="49.06951" lon="6.95752">
        <ele>264.4</ele>
        <time>2013-04-24T08:44:12Z</time>
      </trkpt>
      <trkpt lat="49.06948" lon="6.95757">
        <ele>264.3</ele>
        <time>2013-04-24T08:44:17Z</time>
      </trkpt>
      <trkpt lat="49.06943" lon="6.95763">
        <ele>264</ele>
        <time>2013-04-24T08:44:22Z</time>
      </trkpt>
      <trkpt lat="49.06938" lon="6.95766">
        <ele>265.3</ele>
        <time>2013-04-24T08:44:27Z</time>
      </trkpt>
      <trkpt lat="49.06932" lon="6.9577">
        <ele>264.5</ele>
        <time>2013-04-24T08:44:32Z</time>
      </trkpt>
      <trkpt lat="49.06927" lon="6.95774">
        <ele>264.8</ele>
        <time>2013-04-24T08:44:37Z</time>
      </trkpt>
      <trkpt lat="49.06921" lon="6.9578">
        <ele>265.5</ele>
        <time>2013-04-24T08:44:42Z</time>
      </trkpt>
      <trkpt lat="49.06915" lon="6.95784">
        <ele>265.6</ele>
        <time>2013-04-24T08:44:47Z</time>
      </trkpt>
      <trkpt lat="49.06909" lon="6.95788">
        <ele>266.2</ele>
        <time>2013-04-24T08:44:52Z</time>
      </trkpt>
      <trkpt lat="49.06903" lon="6.95794">
        <ele>266.5</ele>
        <time>2013-04-24T08:44:57Z</time>
      </trkpt>
      <trkpt lat="49.06901" lon="6.95794">
        <ele>266.4</ele>
        <time>2013-04-24T08:44:58Z</time>
      </trkpt>
      <trkpt lat="49.06892" lon="6.95803">
        <ele>268.5</ele>
        <time>2013-04-24T08:45:07Z</time>
      </trkpt>
      <trkpt lat="49.06887" lon="6.95807">
        <ele>269.1</ele>
        <time>2013-04-24T08:45:12Z</time>
      </trkpt>
      <trkpt lat="49.06881" lon="6.95811">
        <ele>268.5</ele>
        <time>2013-04-24T08:45:17Z</time>
      </trkpt>
      <trkpt lat="49.06875" lon="6.95817">
        <ele>268.6</ele>
        <time>2013-04-24T08:45:22Z</time>
      </trkpt>
      <trkpt lat="49.06869" lon="6.95822">
        <ele>268.8</ele>
        <time>2013-04-24T08:45:27Z</time>
      </trkpt>
      <trkpt lat="49.06864" lon="6.95827">
        <ele>268.8</ele>
        <time>2013-04-24T08:45:32Z</time>
      </trkpt>
      <trkpt lat="49.06859" lon="6.9583">
        <ele>268.1</ele>
        <time>2013-04-24T08:45:37Z</time>
      </trkpt>
      <trkpt lat="49.06855" lon="6.95834">
        <ele>267.9</ele>
        <time>2013-04-24T08:45:42Z</time>
      </trkpt>
      <trkpt lat="49.06849" lon="6.95837">
        <ele>268.1</ele>
        <time>2013-04-24T08:45:47Z</time>
      </trkpt>
      <trkpt lat="49.06844" lon="6.9584">
        <ele>267.5</ele>
        <time>2013-04-24T08:45:52Z</time>
      </trkpt>
      <trkpt lat="49.06838" lon="6.95841">
        <ele>267.4</ele>
        <time>2013-04-24T08:45:57Z</time>
      </trkpt>
      <trkpt lat="49.06833" lon="6.95842">
        <ele>266.8</ele>
        <time>2013-04-24T08:46:02Z</time>
      </trkpt>
      <trkpt lat="49.06832" lon="6.95842">
        <ele>267.2</ele>
        <time>2013-04-24T08:46:03Z</time>
      </trkpt>
      <trkpt lat="49.06821" lon="6.95846">
        <ele>266.8</ele>
        <time>2013-04-24T08:46:12Z</time>
      </trkpt>
      <trkpt lat="49.06815" lon="6.95846">
        <ele>266.8</ele>
        <time>2013-04-24T08:46:17Z</time>
      </trkpt>
      <trkpt lat="49.06809" lon="6.95845">
        <ele>266.8</ele>
        <time>2013-04-24T08:46:22Z</time>
      </trkpt>
      <trkpt lat="49.06803" lon="6.95846">
        <ele>266</ele>
        <time>2013-04-24T08:46:27Z</time>
      </trkpt>
      <trkpt lat="49.06797" lon="6.95848">
        <ele>265.5</ele>
        <time>2013-04-24T08:46:32Z</time>
      </trkpt>
      <trkpt lat="49.06793" lon="6.95851">
        <ele>266</ele>
        <time>2013-04-24T08:46:37Z</time>
      </trkpt>
      <trkpt lat="49.06794" lon="6.95858">
        <ele>266.3</ele>
        <time>2013-04-24T08:46:42Z</time>
      </trkpt>
      <trkpt lat="49.06795" lon="6.95865">
        <ele>267.2</ele>
        <time>2013-04-24T08:46:47Z</time>
      </trkpt>
      <trkpt lat="49.06797" lon="6.95873">
        <ele>266.2</ele>
        <time>2013-04-24T08:46:52Z</time>
      </trkpt>
      <trkpt lat="49.06799" lon="6.95882">
        <ele>266.7</ele>
        <time>2013-04-24T08:46:57Z</time>
      </trkpt>
      <trkpt lat="49.06802" lon="6.95891">
        <ele>266.6</ele>
        <time>2013-04-24T08:47:02Z</time>
      </trkpt>
      <trkpt lat="49.06805" lon="6.959">
        <ele>265.4</ele>
        <time>2013-04-24T08:47:07Z</time>
      </trkpt>
      <trkpt lat="49.06805" lon="6.95902">
        <ele>265</ele>
        <time>2013-04-24T08:47:08Z</time>
      </trkpt>
      <trkpt lat="49.06803" lon="6.95918">
        <ele>265.3</ele>
        <time>2013-04-24T08:47:17Z</time>
      </trkpt>
      <trkpt lat="49.06799" lon="6.95925">
        <ele>265.5</ele>
        <time>2013-04-24T08:47:22Z</time>
      </trkpt>
      <trkpt lat="49.06796" lon="6.95931">
        <ele>266.3</ele>
        <time>2013-04-24T08:47:27Z</time>
      </trkpt>
      <trkpt lat="49.06794" lon="6.95934">
        <ele>266.1</ele>
        <time>2013-04-24T08:47:32Z</time>
      </trkpt>
      <trkpt lat="49.06789" lon="6.95939">
        <ele>265.1</ele>
        <time>2013-04-24T08:47:37Z</time>
      </trkpt>
      <trkpt lat="49.06784" lon="6.95944">
        <ele>265.5</ele>
        <time>2013-04-24T08:47:42Z</time>
      </trkpt>
      <trkpt lat="49.06779" lon="6.95949">
        <ele>266.5</ele>
        <time>2013-04-24T08:47:47Z</time>
      </trkpt>
      <trkpt lat="49.06774" lon="6.95951">
        <ele>265.3</ele>
        <time>2013-04-24T08:47:52Z</time>
      </trkpt>
      <trkpt lat="49.06768" lon="6.95955">
        <ele>265.9</ele>
        <time>2013-04-24T08:47:57Z</time>
      </trkpt>
      <trkpt lat="49.06763" lon="6.95958">
        <ele>265.2</ele>
        <time>2013-04-24T08:48:02Z</time>
      </trkpt>
      <trkpt lat="49.06757" lon="6.9596">
        <ele>265.7</ele>
        <time>2013-04-24T08:48:07Z</time>
      </trkpt>
      <trkpt lat="49.0675" lon="6.95962">
        <ele>266.1</ele>
        <time>2013-04-24T08:48:12Z</time>
      </trkpt>
      <trkpt lat="49.06749" lon="6.95963">
        <ele>266.1</ele>
        <time>2013-04-24T08:48:13Z</time>
      </trkpt>
      <trkpt lat="49.06739" lon="6.9597">
        <ele>266.1</ele>
        <time>2013-04-24T08:48:22Z</time>
      </trkpt>
      <trkpt lat="49.06734" lon="6.95978">
        <ele>266.1</ele>
        <time>2013-04-24T08:48:27Z</time>
      </trkpt>
      <trkpt lat="49.0673" lon="6.95984">
        <ele>266</ele>
        <time>2013-04-24T08:48:32Z</time>
      </trkpt>
      <trkpt lat="49.06724" lon="6.9599">
        <ele>265.3</ele>
        <time>2013-04-24T08:48:37Z</time>
      </trkpt>
      <trkpt lat="49.06718" lon="6.95994">
        <ele>265.6</ele>
        <time>2013-04-24T08:48:42Z</time>
      </trkpt>
      <trkpt lat="49.06712" lon="6.95997">
        <ele>265.8</ele>
        <time>2013-04-24T08:48:47Z</time>
      </trkpt>
      <trkpt lat="49.06706" lon="6.96">
        <ele>265.4</ele>
        <time>2013-04-24T08:48:52Z</time>
      </trkpt>
      <trkpt lat="49.067" lon="6.96003">
        <ele>265.8</ele>
        <time>2013-04-24T08:48:57Z</time>
      </trkpt>
      <trkpt lat="49.06694" lon="6.96006">
        <ele>266.1</ele>
        <time>2013-04-24T08:49:02Z</time>
      </trkpt>
      <trkpt lat="49.06688" lon="6.96009">
        <ele>266.5</ele>
        <time>2013-04-24T08:49:07Z</time>
      </trkpt>
      <trkpt lat="49.06682" lon="6.96012">
        <ele>267.2</ele>
        <time>2013-04-24T08:49:12Z</time>
      </trkpt>
      <trkpt lat="49.06676" lon="6.96015">
        <ele>266.6</ele>
        <time>2013-04-24T08:49:17Z</time>
      </trkpt>
      <trkpt lat="49.06675" lon="6.96016">
        <ele>266.5</ele>
        <time>2013-04-24T08:49:18Z</time>
      </trkpt>
      <trkpt lat="49.06664" lon="6.96021">
        <ele>266.8</ele>
        <time>2013-04-24T08:49:27Z</time>
      </trkpt>
      <trkpt lat="49.06659" lon="6.96024">
        <ele>268.3</ele>
        <time>2013-04-24T08:49:32Z</time>
      </trkpt>
      <trkpt lat="49.06653" lon="6.96028">
        <ele>269.1</ele>
        <time>2013-04-24T08:49:37Z</time>
      </trkpt>
      <trkpt lat="49.06648" lon="6.96032">
        <ele>268.1</ele>
        <time>2013-04-24T08:49:42Z</time>
      </trkpt>
      <trkpt lat="49.06643" lon="6.96035">
        <ele>268.9</ele>
        <time>2013-04-24T08:49:47Z</time>
      </trkpt>
      <trkpt lat="49.06637" lon="6.96039">
        <ele>269.5</ele>
        <time>2013-04-24T08:49:52Z</time>
      </trkpt>
      <trkpt lat="49.06632" lon="6.96042">
        <ele>270</ele>
        <time>2013-04-24T08:49:57Z</time>
      </trkpt>
      <trkpt lat="49.06626" lon="6.96046">
        <ele>270.7</ele>
        <time>2013-04-24T08:50:02Z</time>
      </trkpt>
      <trkpt lat="49.0662" lon="6.9605">
        <ele>270.7</ele>
        <time>2013-04-24T08:50:07Z</time>
      </trkpt>
      <trkpt lat="49.06615" lon="6.96053">
        <ele>271.3</ele>
        <time>2013-04-24T08:50:12Z</time>
      </trkpt>
      <trkpt lat="49.06609" lon="6.96057">
        <ele>271.9</ele>
        <time>2013-04-24T08:50:17Z</time>
      </trkpt>
      <trkpt lat="49.06604" lon="6.96061">
        <ele>271.8</ele>
        <time>2013-04-24T08:50:22Z</time>
      </trkpt>
      <trkpt lat="49.06603" lon="6.96061">
        <ele>271.9</ele>
        <time>2013-04-24T08:50:23Z</time>
      </trkpt>
      <trkpt lat="49.06594" lon="6.96068">
        <ele>273.2</ele>
        <time>2013-04-24T08:50:32Z</time>
      </trkpt>
      <trkpt lat="49.06589" lon="6.96071">
        <ele>274.2</ele>
        <time>2013-04-24T08:50:37Z</time>
      </trkpt>
      <trkpt lat="49.06583" lon="6.96075">
        <ele>274.9</ele>
        <time>2013-04-24T08:50:42Z</time>
      </trkpt>
      <trkpt lat="49.06577" lon="6.96079">
        <ele>275.3</ele>
        <time>2013-04-24T08:50:47Z</time>
      </trkpt>
      <trkpt lat="49.06572" lon="6.96081">
        <ele>275.4</ele>
        <time>2013-04-24T08:50:52Z</time>
      </trkpt>
      <trkpt lat="49.06566" lon="6.96085">
        <ele>274.9</ele>
        <time>2013-04-24T08:50:57Z</time>
      </trkpt>
      <trkpt lat="49.06562" lon="6.96083">
        <ele>275.1</ele>
        <time>2013-04-24T08:51:02Z</time>
      </trkpt>
      <trkpt lat="49.0656" lon="6.96081">
        <ele>275.5</ele>
        <time>2013-04-24T08:51:07Z</time>
      </trkpt>
      <trkpt lat="49.06557" lon="6.96078">
        <ele>275.3</ele>
        <time>2013-04-24T08:51:12Z</time>
      </trkpt>
      <trkpt lat="49.06554" lon="6.96075">
        <ele>275.3</ele>
        <time>2013-04-24T08:51:17Z</time>
      </trkpt>
      <trkpt lat="49.0655" lon="6.96072">
        <ele>275.3</ele>
        <time>2013-04-24T08:51:22Z</time>
      </trkpt>
      <trkpt lat="49.06548" lon="6.96071">
        <ele>275.7</ele>
        <time>2013-04-24T08:51:27Z</time>
      </trkpt>
      <trkpt lat="49.06548" lon="6.96071">
        <ele>275.8</ele>
        <time>2013-04-24T08:51:28Z</time>
      </trkpt>
      <trkpt lat="49.06539" lon="6.96062">
        <ele>276.2</ele>
        <time>2013-04-24T08:51:37Z</time>
      </trkpt>
      <trkpt lat="49.06536" lon="6.96058">
        <ele>277.6</ele>
        <time>2013-04-24T08:51:42Z</time>
      </trkpt>
      <trkpt lat="49.06531" lon="6.96053">
        <ele>277.5</ele>
        <time>2013-04-24T08:51:47Z</time>
      </trkpt>
      <trkpt lat="49.06526" lon="6.96048">
        <ele>277.3</ele>
        <time>2013-04-24T08:51:52Z</time>
      </trkpt>
      <trkpt lat="49.06521" lon="6.96043">
        <ele>277.5</ele>
        <time>2013-04-24T08:51:57Z</time>
      </trkpt>
      <trkpt lat="49.06516" lon="6.96037">
        <ele>277.8</ele>
        <time>2013-04-24T08:52:02Z</time>
      </trkpt>
      <trkpt lat="49.06511" lon="6.96032">
        <ele>278.4</ele>
        <time>2013-04-24T08:52:07Z</time>
      </trkpt>
      <trkpt lat="49.06506" lon="6.96027">
        <ele>278.6</ele>
        <time>2013-04-24T08:52:12Z</time>
      </trkpt>
      <trkpt lat="49.06501" lon="6.96022">
        <ele>279.2</ele>
        <time>2013-04-24T08:52:17Z</time>
      </trkpt>
      <trkpt lat="49.06496" lon="6.96016">
        <ele>278.8</ele>
        <time>2013-04-24T08:52:22Z</time>
      </trkpt>
      <trkpt lat="49.0649" lon="6.9601">
        <ele>279.4</ele>
        <time>2013-04-24T08:52:27Z</time>
      </trkpt>
      <trkpt lat="49.06486" lon="6.96005">
        <ele>279.4</ele>
        <time>2013-04-24T08:52:32Z</time>
      </trkpt>
      <trkpt lat="49.06485" lon="6.96004">
        <ele>279.3</ele>
        <time>2013-04-24T08:52:33Z</time>
      </trkpt>
      <trkpt lat="49.06476" lon="6.95997">
        <ele>278.7</ele>
        <time>2013-04-24T08:52:42Z</time>
      </trkpt>
      <trkpt lat="49.06474" lon="6.95993">
        <ele>279.9</ele>
        <time>2013-04-24T08:52:47Z</time>
      </trkpt>
      <trkpt lat="49.06472" lon="6.95987">
        <ele>280.3</ele>
        <time>2013-04-24T08:52:52Z</time>
      </trkpt>
      <trkpt lat="49.06468" lon="6.95983">
        <ele>280.5</ele>
        <time>2013-04-24T08:52:57Z</time>
      </trkpt>
      <trkpt lat="49.06462" lon="6.95981">
        <ele>280.3</ele>
        <time>2013-04-24T08:53:02Z</time>
      </trkpt>
      <trkpt lat="49.06457" lon="6.95984">
        <ele>280.6</ele>
        <time>2013-04-24T08:53:07Z</time>
      </trkpt>
      <trkpt lat="49.06453" lon="6.95985">
        <ele>280.5</ele>
        <time>2013-04-24T08:53:12Z</time>
      </trkpt>
      <trkpt lat="49.06448" lon="6.95981">
        <ele>279.7</ele>
        <time>2013-04-24T08:53:17Z</time>
      </trkpt>
      <trkpt lat="49.06443" lon="6.95978">
        <ele>279.3</ele>
        <time>2013-04-24T08:53:22Z</time>
      </trkpt>
      <trkpt lat="49.06438" lon="6.95974">
        <ele>279.5</ele>
        <time>2013-04-24T08:53:27Z</time>
      </trkpt>
      <trkpt lat="49.06431" lon="6.95971">
        <ele>279.4</ele>
        <time>2013-04-24T08:53:32Z</time>
      </trkpt>
      <trkpt lat="49.06426" lon="6.95967">
        <ele>280</ele>
        <time>2013-04-24T08:53:37Z</time>
      </trkpt>
      <trkpt lat="49.06424" lon="6.95967">
        <ele>280</ele>
        <time>2013-04-24T08:53:38Z</time>
      </trkpt>
      <trkpt lat="49.06415" lon="6.95962">
        <ele>279.7</ele>
        <time>2013-04-24T08:53:47Z</time>
      </trkpt>
      <trkpt lat="49.06409" lon="6.95958">
        <ele>279.4</ele>
        <time>2013-04-24T08:53:52Z</time>
      </trkpt>
      <trkpt lat="49.06403" lon="6.95955">
        <ele>279.9</ele>
        <time>2013-04-24T08:53:57Z</time>
      </trkpt>
      <trkpt lat="49.06397" lon="6.95951">
        <ele>279.3</ele>
        <time>2013-04-24T08:54:02Z</time>
      </trkpt>
      <trkpt lat="49.06391" lon="6.95947">
        <ele>279.8</ele>
        <time>2013-04-24T08:54:07Z</time>
      </trkpt>
      <trkpt lat="49.06385" lon="6.95943">
        <ele>279.8</ele>
        <time>2013-04-24T08:54:12Z</time>
      </trkpt>
      <trkpt lat="49.06379" lon="6.95939">
        <ele>280.3</ele>
        <time>2013-04-24T08:54:17Z</time>
      </trkpt>
      <trkpt lat="49.06373" lon="6.95934">
        <ele>280.1</ele>
        <time>2013-04-24T08:54:22Z</time>
      </trkpt>
      <trkpt lat="49.06366" lon="6.9593">
        <ele>279.5</ele>
        <time>2013-04-24T08:54:27Z</time>
      </trkpt>
      <trkpt lat="49.0636" lon="6.95927">
        <ele>279.3</ele>
        <time>2013-04-24T08:54:32Z</time>
      </trkpt>
      <trkpt lat="49.06353" lon="6.95923">
        <ele>279.2</ele>
        <time>2013-04-24T08:54:37Z</time>
      </trkpt>
      <trkpt lat="49.06347" lon="6.9592">
        <ele>280</ele>
        <time>2013-04-24T08:54:42Z</time>
      </trkpt>
      <trkpt lat="49.06346" lon="6.95919">
        <ele>279.9</ele>
        <time>2013-04-24T08:54:43Z</time>
      </trkpt>
      <trkpt lat="49.06336" lon="6.95913">
        <ele>280</ele>
        <time>2013-04-24T08:54:52Z</time>
      </trkpt>
      <trkpt lat="49.06329" lon="6.95908">
        <ele>279.8</ele>
        <time>2013-04-24T08:54:57Z</time>
      </trkpt>
      <trkpt lat="49.06323" lon="6.95903">
        <ele>278.8</ele>
        <time>2013-04-24T08:55:02Z</time>
      </trkpt>
      <trkpt lat="49.06316" lon="6.959">
        <ele>278.6</ele>
        <time>2013-04-24T08:55:07Z</time>
      </trkpt>
      <trkpt lat="49.0631" lon="6.95898">
        <ele>278.3</ele>
        <time>2013-04-24T08:55:12Z</time>
      </trkpt>
      <trkpt lat="49.06303" lon="6.95895">
        <ele>278.4</ele>
        <time>2013-04-24T08:55:17Z</time>
      </trkpt>
      <trkpt lat="49.06297" lon="6.95893">
        <ele>278.5</ele>
        <time>2013-04-24T08:55:22Z</time>
      </trkpt>
      <trkpt lat="49.0629" lon="6.95891">
        <ele>278.6</ele>
        <time>2013-04-24T08:55:27Z</time>
      </trkpt>
      <trkpt lat="49.06284" lon="6.95887">
        <ele>277.5</ele>
        <time>2013-04-24T08:55:32Z</time>
      </trkpt>
      <trkpt lat="49.0628" lon="6.95883">
        <ele>277.7</ele>
        <time>2013-04-24T08:55:37Z</time>
      </trkpt>
      <trkpt lat="49.06277" lon="6.95876">
        <ele>277.2</ele>
        <time>2013-04-24T08:55:42Z</time>
      </trkpt>
      <trkpt lat="49.06278" lon="6.95868">
        <ele>278.3</ele>
        <time>2013-04-24T08:55:47Z</time>
      </trkpt>
      <trkpt lat="49.06278" lon="6.95866">
        <ele>278.6</ele>
        <time>2013-04-24T08:55:48Z</time>
      </trkpt>
      <trkpt lat="49.06278" lon="6.9585">
        <ele>278.5</ele>
        <time>2013-04-24T08:55:57Z</time>
      </trkpt>
      <trkpt lat="49.06276" lon="6.95844">
        <ele>277.7</ele>
        <time>2013-04-24T08:56:02Z</time>
      </trkpt>
      <trkpt lat="49.06271" lon="6.95841">
        <ele>277.8</ele>
        <time>2013-04-24T08:56:07Z</time>
      </trkpt>
      <trkpt lat="49.06266" lon="6.95838">
        <ele>277.9</ele>
        <time>2013-04-24T08:56:12Z</time>
      </trkpt>
      <trkpt lat="49.06261" lon="6.95833">
        <ele>278</ele>
        <time>2013-04-24T08:56:17Z</time>
      </trkpt>
      <trkpt lat="49.06256" lon="6.95827">
        <ele>277.9</ele>
        <time>2013-04-24T08:56:22Z</time>
      </trkpt>
      <trkpt lat="49.06252" lon="6.95819">
        <ele>277.2</ele>
        <time>2013-04-24T08:56:27Z</time>
      </trkpt>
      <trkpt lat="49.06248" lon="6.95812">
        <ele>278</ele>
        <time>2013-04-24T08:56:32Z</time>
      </trkpt>
      <trkpt lat="49.06246" lon="6.95804">
        <ele>277.6</ele>
        <time>2013-04-24T08:56:37Z</time>
      </trkpt>
      <trkpt lat="49.06243" lon="6.95796">
        <ele>277.5</ele>
        <time>2013-04-24T08:56:42Z</time>
      </trkpt>
      <trkpt lat="49.06243" lon="6.95796">
        <ele>277.5</ele>
        <time>2013-04-24T08:56:42Z</time>
      </trkpt>
      <trkpt lat="49.06238" lon="6.95791">
        <ele>277.8</ele>
        <time>2013-04-24T08:56:47Z</time>
      </trkpt>
      <trkpt lat="49.06234" lon="6.95785">
        <ele>277.9</ele>
        <time>2013-04-24T08:56:52Z</time>
      </trkpt>
      <trkpt lat="49.06233" lon="6.95784">
        <ele>278.1</ele>
        <time>2013-04-24T08:56:53Z</time>
      </trkpt>
      <trkpt lat="49.06225" lon="6.95773">
        <ele>277.7</ele>
        <time>2013-04-24T08:57:02Z</time>
      </trkpt>
      <trkpt lat="49.06221" lon="6.95768">
        <ele>277.9</ele>
        <time>2013-04-24T08:57:07Z</time>
      </trkpt>
      <trkpt lat="49.06217" lon="6.95763">
        <ele>278.3</ele>
        <time>2013-04-24T08:57:12Z</time>
      </trkpt>
      <trkpt lat="49.06213" lon="6.95756">
        <ele>277.8</ele>
        <time>2013-04-24T08:57:17Z</time>
      </trkpt>
      <trkpt lat="49.06208" lon="6.9575">
        <ele>277.6</ele>
        <time>2013-04-24T08:57:22Z</time>
      </trkpt>
      <trkpt lat="49.06202" lon="6.95744">
        <ele>277.5</ele>
        <time>2013-04-24T08:57:27Z</time>
      </trkpt>
      <trkpt lat="49.06197" lon="6.95736">
        <ele>278.1</ele>
        <time>2013-04-24T08:57:32Z</time>
      </trkpt>
      <trkpt lat="49.06193" lon="6.95729">
        <ele>278.7</ele>
        <time>2013-04-24T08:57:37Z</time>
      </trkpt>
      <trkpt lat="49.06189" lon="6.95721">
        <ele>277.6</ele>
        <time>2013-04-24T08:57:42Z</time>
      </trkpt>
      <trkpt lat="49.06185" lon="6.95715">
        <ele>278.2</ele>
        <time>2013-04-24T08:57:47Z</time>
      </trkpt>
      <trkpt lat="49.06181" lon="6.95708">
        <ele>277.4</ele>
        <time>2013-04-24T08:57:52Z</time>
      </trkpt>
      <trkpt lat="49.06177" lon="6.95701">
        <ele>276.9</ele>
        <time>2013-04-24T08:57:57Z</time>
      </trkpt>
      <trkpt lat="49.06176" lon="6.957">
        <ele>276.8</ele>
        <time>2013-04-24T08:57:58Z</time>
      </trkpt>
      <trkpt lat="49.06169" lon="6.95687">
        <ele>277.3</ele>
        <time>2013-04-24T08:58:07Z</time>
      </trkpt>
      <trkpt lat="49.06165" lon="6.95678">
        <ele>277.4</ele>
        <time>2013-04-24T08:58:12Z</time>
      </trkpt>
      <trkpt lat="49.0616" lon="6.95671">
        <ele>276.9</ele>
        <time>2013-04-24T08:58:17Z</time>
      </trkpt>
      <trkpt lat="49.06155" lon="6.95664">
        <ele>277.1</ele>
        <time>2013-04-24T08:58:22Z</time>
      </trkpt>
      <trkpt lat="49.0615" lon="6.95657">
        <ele>275.8</ele>
        <time>2013-04-24T08:58:27Z</time>
      </trkpt>
      <trkpt lat="49.06146" lon="6.95651">
        <ele>276.3</ele>
        <time>2013-04-24T08:58:32Z</time>
      </trkpt>
      <trkpt lat="49.06141" lon="6.95642">
        <ele>276.4</ele>
        <time>2013-04-24T08:58:37Z</time>
      </trkpt>
      <trkpt lat="49.06136" lon="6.95635">
        <ele>275.4</ele>
        <time>2013-04-24T08:58:42Z</time>
      </trkpt>
      <trkpt lat="49.06132" lon="6.95627">
        <ele>275.1</ele>
        <time>2013-04-24T08:58:47Z</time>
      </trkpt>
      <trkpt lat="49.06129" lon="6.95617">
        <ele>275.6</ele>
        <time>2013-04-24T08:58:52Z</time>
      </trkpt>
      <trkpt lat="49.06127" lon="6.95607">
        <ele>275.9</ele>
        <time>2013-04-24T08:58:57Z</time>
      </trkpt>
      <trkpt lat="49.06125" lon="6.95599">
        <ele>275.3</ele>
        <time>2013-04-24T08:59:02Z</time>
      </trkpt>
      <trkpt lat="49.06124" lon="6.95597">
        <ele>275.1</ele>
        <time>2013-04-24T08:59:03Z</time>
      </trkpt>
      <trkpt lat="49.06115" lon="6.95587">
        <ele>274.9</ele>
        <time>2013-04-24T08:59:12Z</time>
      </trkpt>
      <trkpt lat="49.06109" lon="6.95583">
        <ele>275.5</ele>
        <time>2013-04-24T08:59:17Z</time>
      </trkpt>
      <trkpt lat="49.06103" lon="6.95579">
        <ele>275.1</ele>
        <time>2013-04-24T08:59:22Z</time>
      </trkpt>
      <trkpt lat="49.06097" lon="6.95574">
        <ele>275.3</ele>
        <time>2013-04-24T08:59:27Z</time>
      </trkpt>
      <trkpt lat="49.06093" lon="6.95567">
        <ele>275.7</ele>
        <time>2013-04-24T08:59:32Z</time>
      </trkpt>
      <trkpt lat="49.06088" lon="6.9556">
        <ele>274.8</ele>
        <time>2013-04-24T08:59:37Z</time>
      </trkpt>
      <trkpt lat="49.06085" lon="6.95552">
        <ele>275.5</ele>
        <time>2013-04-24T08:59:42Z</time>
      </trkpt>
      <trkpt lat="49.06083" lon="6.95541">
        <ele>275.1</ele>
        <time>2013-04-24T08:59:47Z</time>
      </trkpt>
      <trkpt lat="49.06084" lon="6.95532">
        <ele>275.3</ele>
        <time>2013-04-24T08:59:52Z</time>
      </trkpt>
      <trkpt lat="49.06084" lon="6.95522">
        <ele>275.4</ele>
        <time>2013-04-24T08:59:57Z</time>
      </trkpt>
      <trkpt lat="49.06082" lon="6.95513">
        <ele>274.5</ele>
        <time>2013-04-24T09:00:02Z</time>
      </trkpt>
      <trkpt lat="49.06077" lon="6.95506">
        <ele>274.3</ele>
        <time>2013-04-24T09:00:07Z</time>
      </trkpt>
      <trkpt lat="49.06076" lon="6.95504">
        <ele>274.5</ele>
        <time>2013-04-24T09:00:08Z</time>
      </trkpt>
      <trkpt lat="49.0607" lon="6.95487">
        <ele>274.1</ele>
        <time>2013-04-24T09:00:17Z</time>
      </trkpt>
      <trkpt lat="49.06068" lon="6.9548">
        <ele>273.7</ele>
        <time>2013-04-24T09:00:22Z</time>
      </trkpt>
      <trkpt lat="49.06066" lon="6.95472">
        <ele>273.4</ele>
        <time>2013-04-24T09:00:27Z</time>
      </trkpt>
      <trkpt lat="49.06062" lon="6.95467">
        <ele>272.8</ele>
        <time>2013-04-24T09:00:32Z</time>
      </trkpt>
      <trkpt lat="49.06056" lon="6.95461">
        <ele>272.7</ele>
        <time>2013-04-24T09:00:37Z</time>
      </trkpt>
      <trkpt lat="49.06051" lon="6.95453">
        <ele>272.9</ele>
        <time>2013-04-24T09:00:42Z</time>
      </trkpt>
      <trkpt lat="49.06048" lon="6.95445">
        <ele>272.6</ele>
        <time>2013-04-24T09:00:47Z</time>
      </trkpt>
      <trkpt lat="49.06047" lon="6.95435">
        <ele>272.7</ele>
        <time>2013-04-24T09:00:52Z</time>
      </trkpt>
      <trkpt lat="49.06045" lon="6.95427">
        <ele>272.5</ele>
        <time>2013-04-24T09:00:57Z</time>
      </trkpt>
      <trkpt lat="49.06045" lon="6.95419">
        <ele>271.2</ele>
        <time>2013-04-24T09:01:02Z</time>
      </trkpt>
      <trkpt lat="49.06045" lon="6.95409">
        <ele>270.6</ele>
        <time>2013-04-24T09:01:07Z</time>
      </trkpt>
      <trkpt lat="49.06044" lon="6.954">
        <ele>269.5</ele>
        <time>2013-04-24T09:01:12Z</time>
      </trkpt>
      <trkpt lat="49.06044" lon="6.95398">
        <ele>269.5</ele>
        <time>2013-04-24T09:01:13Z</time>
      </trkpt>
      <trkpt lat="49.06044" lon="6.95381">
        <ele>269</ele>
        <time>2013-04-24T09:01:22Z</time>
      </trkpt>
      <trkpt lat="49.06044" lon="6.9537">
        <ele>268.8</ele>
        <time>2013-04-24T09:01:27Z</time>
      </trkpt>
      <trkpt lat="49.06044" lon="6.9536">
        <ele>268.2</ele>
        <time>2013-04-24T09:01:32Z</time>
      </trkpt>
      <trkpt lat="49.06044" lon="6.95351">
        <ele>267.6</ele>
        <time>2013-04-24T09:01:37Z</time>
      </trkpt>
      <trkpt lat="49.06044" lon="6.9534">
        <ele>268</ele>
        <time>2013-04-24T09:01:42Z</time>
      </trkpt>
      <trkpt lat="49.06043" lon="6.95331">
        <ele>266.9</ele>
        <time>2013-04-24T09:01:47Z</time>
      </trkpt>
      <trkpt lat="49.06043" lon="6.95322">
        <ele>267.1</ele>
        <time>2013-04-24T09:01:52Z</time>
      </trkpt>
      <trkpt lat="49.06043" lon="6.95313">
        <ele>266.5</ele>
        <time>2013-04-24T09:01:57Z</time>
      </trkpt>
      <trkpt lat="49.06044" lon="6.95304">
        <ele>266.4</ele>
        <time>2013-04-24T09:02:02Z</time>
      </trkpt>
      <trkpt lat="49.06043" lon="6.95292">
        <ele>266.3</ele>
        <time>2013-04-24T09:02:07Z</time>
      </trkpt>
      <trkpt lat="49.06043" lon="6.9528">
        <ele>265.6</ele>
        <time>2013-04-24T09:02:12Z</time>
      </trkpt>
      <trkpt lat="49.06044" lon="6.95268">
        <ele>266</ele>
        <time>2013-04-24T09:02:17Z</time>
      </trkpt>
      <trkpt lat="49.06044" lon="6.95266">
        <ele>265.9</ele>
        <time>2013-04-24T09:02:18Z</time>
      </trkpt>
      <trkpt lat="49.06044" lon="6.95249">
        <ele>264.6</ele>
        <time>2013-04-24T09:02:27Z</time>
      </trkpt>
      <trkpt lat="49.06044" lon="6.95237">
        <ele>263.8</ele>
        <time>2013-04-24T09:02:32Z</time>
      </trkpt>
      <trkpt lat="49.06044" lon="6.95226">
        <ele>264</ele>
        <time>2013-04-24T09:02:37Z</time>
      </trkpt>
      <trkpt lat="49.06044" lon="6.95214">
        <ele>263.2</ele>
        <time>2013-04-24T09:02:42Z</time>
      </trkpt>
      <trkpt lat="49.06045" lon="6.95204">
        <ele>261.9</ele>
        <time>2013-04-24T09:02:47Z</time>
      </trkpt>
      <trkpt lat="49.06046" lon="6.95194">
        <ele>262.6</ele>
        <time>2013-04-24T09:02:52Z</time>
      </trkpt>
      <trkpt lat="49.06046" lon="6.95182">
        <ele>262.4</ele>
        <time>2013-04-24T09:02:57Z</time>
      </trkpt>
      <trkpt lat="49.06046" lon="6.95173">
        <ele>261.3</ele>
        <time>2013-04-24T09:03:02Z</time>
      </trkpt>
      <trkpt lat="49.06046" lon="6.95163">
        <ele>261</ele>
        <time>2013-04-24T09:03:07Z</time>
      </trkpt>
      <trkpt lat="49.06045" lon="6.95152">
        <ele>260</ele>
        <time>2013-04-24T09:03:12Z</time>
      </trkpt>
      <trkpt lat="49.06045" lon="6.95142">
        <ele>259.9</ele>
        <time>2013-04-24T09:03:17Z</time>
      </trkpt>
      <trkpt lat="49.06045" lon="6.95131">
        <ele>259.9</ele>
        <time>2013-04-24T09:03:22Z</time>
      </trkpt>
      <trkpt lat="49.06045" lon="6.95129">
        <ele>259.6</ele>
        <time>2013-04-24T09:03:23Z</time>
      </trkpt>
      <trkpt lat="49.06046" lon="6.95108">
        <ele>259.1</ele>
        <time>2013-04-24T09:03:32Z</time>
      </trkpt>
      <trkpt lat="49.06047" lon="6.95096">
        <ele>258.1</ele>
        <time>2013-04-24T09:03:37Z</time>
      </trkpt>
      <trkpt lat="49.06047" lon="6.95085">
        <ele>257.4</ele>
        <time>2013-04-24T09:03:42Z</time>
      </trkpt>
      <trkpt lat="49.06048" lon="6.95076">
        <ele>258</ele>
        <time>2013-04-24T09:03:47Z</time>
      </trkpt>
      <trkpt lat="49.0605" lon="6.9507">
        <ele>259</ele>
        <time>2013-04-24T09:03:52Z</time>
      </trkpt>
      <trkpt lat="49.06047" lon="6.95067">
        <ele>259.4</ele>
        <time>2013-04-24T09:03:57Z</time>
      </trkpt>
      <trkpt lat="49.06042" lon="6.95066">
        <ele>260.4</ele>
        <time>2013-04-24T09:04:02Z</time>
      </trkpt>
      <trkpt lat="49.06036" lon="6.95063">
        <ele>260.1</ele>
        <time>2013-04-24T09:04:07Z</time>
      </trkpt>
      <trkpt lat="49.0603" lon="6.95062">
        <ele>259.7</ele>
        <time>2013-04-24T09:04:12Z</time>
      </trkpt>
      <trkpt lat="49.06025" lon="6.9506">
        <ele>260.1</ele>
        <time>2013-04-24T09:04:17Z</time>
      </trkpt>
      <trkpt lat="49.06019" lon="6.95058">
        <ele>260</ele>
        <time>2013-04-24T09:04:22Z</time>
      </trkpt>
      <trkpt lat="49.06015" lon="6.95056">
        <ele>259.9</ele>
        <time>2013-04-24T09:04:27Z</time>
      </trkpt>
      <trkpt lat="49.06014" lon="6.95056">
        <ele>259.8</ele>
        <time>2013-04-24T09:04:28Z</time>
      </trkpt>
      <trkpt lat="49.06004" lon="6.95053">
        <ele>259.7</ele>
        <time>2013-04-24T09:04:37Z</time>
      </trkpt>
      <trkpt lat="49.05998" lon="6.95051">
        <ele>259.9</ele>
        <time>2013-04-24T09:04:42Z</time>
      </trkpt>
      <trkpt lat="49.05993" lon="6.95047">
        <ele>259.1</ele>
        <time>2013-04-24T09:04:47Z</time>
      </trkpt>
      <trkpt lat="49.05987" lon="6.95045">
        <ele>259.8</ele>
        <time>2013-04-24T09:04:52Z</time>
      </trkpt>
      <trkpt lat="49.05981" lon="6.95043">
        <ele>259.3</ele>
        <time>2013-04-24T09:04:57Z</time>
      </trkpt>
      <trkpt lat="49.05976" lon="6.95041">
        <ele>258.8</ele>
        <time>2013-04-24T09:05:02Z</time>
      </trkpt>
      <trkpt lat="49.0597" lon="6.95039">
        <ele>258.6</ele>
        <time>2013-04-24T09:05:07Z</time>
      </trkpt>
      <trkpt lat="49.05964" lon="6.95038">
        <ele>258.6</ele>
        <time>2013-04-24T09:05:12Z</time>
      </trkpt>
      <trkpt lat="49.05959" lon="6.95036">
        <ele>258.4</ele>
        <time>2013-04-24T09:05:17Z</time>
      </trkpt>
      <trkpt lat="49.05952" lon="6.95035">
        <ele>258</ele>
        <time>2013-04-24T09:05:22Z</time>
      </trkpt>
      <trkpt lat="49.05947" lon="6.95034">
        <ele>258.3</ele>
        <time>2013-04-24T09:05:27Z</time>
      </trkpt>
      <trkpt lat="49.0594" lon="6.95033">
        <ele>257.9</ele>
        <time>2013-04-24T09:05:32Z</time>
      </trkpt>
      <trkpt lat="49.05939" lon="6.95033">
        <ele>258</ele>
        <time>2013-04-24T09:05:33Z</time>
      </trkpt>
      <trkpt lat="49.05928" lon="6.95031">
        <ele>257.3</ele>
        <time>2013-04-24T09:05:42Z</time>
      </trkpt>
      <trkpt lat="49.05922" lon="6.9503">
        <ele>257.7</ele>
        <time>2013-04-24T09:05:47Z</time>
      </trkpt>
      <trkpt lat="49.05915" lon="6.95029">
        <ele>256.8</ele>
        <time>2013-04-24T09:05:52Z</time>
      </trkpt>
      <trkpt lat="49.05909" lon="6.95028">
        <ele>255.7</ele>
        <time>2013-04-24T09:05:57Z</time>
      </trkpt>
      <trkpt lat="49.05902" lon="6.95028">
        <ele>256.5</ele>
        <time>2013-04-24T09:06:02Z</time>
      </trkpt>
      <trkpt lat="49.05894" lon="6.95027">
        <ele>256.8</ele>
        <time>2013-04-24T09:06:07Z</time>
      </trkpt>
      <trkpt lat="49.05887" lon="6.95027">
        <ele>256.9</ele>
        <time>2013-04-24T09:06:12Z</time>
      </trkpt>
      <trkpt lat="49.05879" lon="6.95026">
        <ele>257</ele>
        <time>2013-04-24T09:06:17Z</time>
      </trkpt>
      <trkpt lat="49.05872" lon="6.95026">
        <ele>257.6</ele>
        <time>2013-04-24T09:06:22Z</time>
      </trkpt>
      <trkpt lat="49.05864" lon="6.95026">
        <ele>257.9</ele>
        <time>2013-04-24T09:06:27Z</time>
      </trkpt>
      <trkpt lat="49.05857" lon="6.95025">
        <ele>257.1</ele>
        <time>2013-04-24T09:06:32Z</time>
      </trkpt>
      <trkpt lat="49.0585" lon="6.95025">
        <ele>257.2</ele>
        <time>2013-04-24T09:06:37Z</time>
      </trkpt>
      <trkpt lat="49.05848" lon="6.95025">
        <ele>256.9</ele>
        <time>2013-04-24T09:06:38Z</time>
      </trkpt>
      <trkpt lat="49.05835" lon="6.95027">
        <ele>257.8</ele>
        <time>2013-04-24T09:06:47Z</time>
      </trkpt>
      <trkpt lat="49.05827" lon="6.95028">
        <ele>258.2</ele>
        <time>2013-04-24T09:06:52Z</time>
      </trkpt>
      <trkpt lat="49.0582" lon="6.9503">
        <ele>257.5</ele>
        <time>2013-04-24T09:06:57Z</time>
      </trkpt>
      <trkpt lat="49.05813" lon="6.95032">
        <ele>258.6</ele>
        <time>2013-04-24T09:07:02Z</time>
      </trkpt>
      <trkpt lat="49.05806" lon="6.95034">
        <ele>257.8</ele>
        <time>2013-04-24T09:07:07Z</time>
      </trkpt>
      <trkpt lat="49.058" lon="6.95035">
        <ele>257.3</ele>
        <time>2013-04-24T09:07:12Z</time>
      </trkpt>
      <trkpt lat="49.05794" lon="6.95038">
        <ele>258.3</ele>
        <time>2013-04-24T09:07:17Z</time>
      </trkpt>
      <trkpt lat="49.05788" lon="6.9504">
        <ele>259.1</ele>
        <time>2013-04-24T09:07:22Z</time>
      </trkpt>
      <trkpt lat="49.05782" lon="6.95042">
        <ele>258.3</ele>
        <time>2013-04-24T09:07:27Z</time>
      </trkpt>
      <trkpt lat="49.05777" lon="6.95043">
        <ele>257.6</ele>
        <time>2013-04-24T09:07:32Z</time>
      </trkpt>
      <trkpt lat="49.05771" lon="6.95044">
        <ele>258.7</ele>
        <time>2013-04-24T09:07:37Z</time>
      </trkpt>
      <trkpt lat="49.05765" lon="6.95047">
        <ele>259.5</ele>
        <time>2013-04-24T09:07:42Z</time>
      </trkpt>
      <trkpt lat="49.05763" lon="6.95047">
        <ele>259.6</ele>
        <time>2013-04-24T09:07:43Z</time>
      </trkpt>
      <trkpt lat="49.05752" lon="6.95052">
        <ele>260.6</ele>
        <time>2013-04-24T09:07:52Z</time>
      </trkpt>
      <trkpt lat="49.05746" lon="6.95055">
        <ele>260.5</ele>
        <time>2013-04-24T09:07:57Z</time>
      </trkpt>
      <trkpt lat="49.05739" lon="6.95057">
        <ele>260.3</ele>
        <time>2013-04-24T09:08:02Z</time>
      </trkpt>
      <trkpt lat="49.05733" lon="6.95059">
        <ele>259.7</ele>
        <time>2013-04-24T09:08:07Z</time>
      </trkpt>
      <trkpt lat="49.05727" lon="6.95061">
        <ele>259.8</ele>
        <time>2013-04-24T09:08:12Z</time>
      </trkpt>
      <trkpt lat="49.05721" lon="6.95064">
        <ele>259.2</ele>
        <time>2013-04-24T09:08:17Z</time>
      </trkpt>
      <trkpt lat="49.05721" lon="6.95064">
        <ele>259.2</ele>
        <time>2013-04-24T09:08:17Z</time>
      </trkpt>
      <trkpt lat="49.05714" lon="6.95067">
        <ele>260.2</ele>
        <time>2013-04-24T09:08:22Z</time>
      </trkpt>
      <trkpt lat="49.05706" lon="6.9507">
        <ele>260.7</ele>
        <time>2013-04-24T09:08:27Z</time>
      </trkpt>
      <trkpt lat="49.057" lon="6.95073">
        <ele>260.1</ele>
        <time>2013-04-24T09:08:32Z</time>
      </trkpt>
      <trkpt lat="49.05692" lon="6.95078">
        <ele>259.3</ele>
        <time>2013-04-24T09:08:37Z</time>
      </trkpt>
      <trkpt lat="49.05686" lon="6.95081">
        <ele>259.7</ele>
        <time>2013-04-24T09:08:42Z</time>
      </trkpt>
      <trkpt lat="49.05679" lon="6.95085">
        <ele>259.5</ele>
        <time>2013-04-24T09:08:47Z</time>
      </trkpt>
      <trkpt lat="49.05678" lon="6.95085">
        <ele>259.6</ele>
        <time>2013-04-24T09:08:48Z</time>
      </trkpt>
      <trkpt lat="49.05667" lon="6.95087">
        <ele>259.4</ele>
        <time>2013-04-24T09:08:57Z</time>
      </trkpt>
      <trkpt lat="49.05661" lon="6.95085">
        <ele>260.1</ele>
        <time>2013-04-24T09:09:02Z</time>
      </trkpt>
      <trkpt lat="49.05656" lon="6.95081">
        <ele>258.9</ele>
        <time>2013-04-24T09:09:07Z</time>
      </trkpt>
      <trkpt lat="49.05651" lon="6.95075">
        <ele>259</ele>
        <time>2013-04-24T09:09:12Z</time>
      </trkpt>
      <trkpt lat="49.05647" lon="6.9507">
        <ele>258.9</ele>
        <time>2013-04-24T09:09:17Z</time>
      </trkpt>
      <trkpt lat="49.05643" lon="6.95063">
        <ele>258.1</ele>
        <time>2013-04-24T09:09:22Z</time>
      </trkpt>
      <trkpt lat="49.05639" lon="6.95054">
        <ele>257.9</ele>
        <time>2013-04-24T09:09:27Z</time>
      </trkpt>
      <trkpt lat="49.05635" lon="6.95045">
        <ele>256.9</ele>
        <time>2013-04-24T09:09:32Z</time>
      </trkpt>
      <trkpt lat="49.05632" lon="6.95035">
        <ele>256.3</ele>
        <time>2013-04-24T09:09:37Z</time>
      </trkpt>
      <trkpt lat="49.05629" lon="6.95024">
        <ele>256.1</ele>
        <time>2013-04-24T09:09:42Z</time>
      </trkpt>
      <trkpt lat="49.05626" lon="6.95014">
        <ele>255.6</ele>
        <time>2013-04-24T09:09:47Z</time>
      </trkpt>
      <trkpt lat="49.05624" lon="6.95004">
        <ele>255.1</ele>
        <time>2013-04-24T09:09:52Z</time>
      </trkpt>
      <trkpt lat="49.05624" lon="6.95002">
        <ele>255.2</ele>
        <time>2013-04-24T09:09:53Z</time>
      </trkpt>
      <trkpt lat="49.05619" lon="6.94985">
        <ele>255</ele>
        <time>2013-04-24T09:10:02Z</time>
      </trkpt>
      <trkpt lat="49.05616" lon="6.94975">
        <ele>255.1</ele>
        <time>2013-04-24T09:10:07Z</time>
      </trkpt>
      <trkpt lat="49.05614" lon="6.94964">
        <ele>254.7</ele>
        <time>2013-04-24T09:10:12Z</time>
      </trkpt>
      <trkpt lat="49.05612" lon="6.94954">
        <ele>255.1</ele>
        <time>2013-04-24T09:10:17Z</time>
      </trkpt>
      <trkpt lat="49.0561" lon="6.94943">
        <ele>254.4</ele>
        <time>2013-04-24T09:10:22Z</time>
      </trkpt>
      <trkpt lat="49.05606" lon="6.94923">
        <ele>253</ele>
        <time>2013-04-24T09:10:32Z</time>
      </trkpt>
      <trkpt lat="49.05604" lon="6.94913">
        <ele>252.4</ele>
        <time>2013-04-24T09:10:37Z</time>
      </trkpt>
      <trkpt lat="49.05602" lon="6.94904">
        <ele>252</ele>
        <time>2013-04-24T09:10:42Z</time>
      </trkpt>
      <trkpt lat="49.056" lon="6.94894">
        <ele>252.1</ele>
        <time>2013-04-24T09:10:47Z</time>
      </trkpt>
      <trkpt lat="49.05598" lon="6.94885">
        <ele>251.6</ele>
        <time>2013-04-24T09:10:52Z</time>
      </trkpt>
      <trkpt lat="49.05597" lon="6.94875">
        <ele>251.3</ele>
        <time>2013-04-24T09:10:57Z</time>
      </trkpt>
      <trkpt lat="49.05596" lon="6.94873">
        <ele>251.5</ele>
        <time>2013-04-24T09:10:58Z</time>
      </trkpt>
      <trkpt lat="49.05593" lon="6.94856">
        <ele>250.8</ele>
        <time>2013-04-24T09:11:07Z</time>
      </trkpt>
      <trkpt lat="49.05592" lon="6.94846">
        <ele>250.5</ele>
        <time>2013-04-24T09:11:12Z</time>
      </trkpt>
      <trkpt lat="49.0559" lon="6.94837">
        <ele>250.1</ele>
        <time>2013-04-24T09:11:17Z</time>
      </trkpt>
      <trkpt lat="49.05588" lon="6.94827">
        <ele>250.6</ele>
        <time>2013-04-24T09:11:22Z</time>
      </trkpt>
      <trkpt lat="49.05587" lon="6.94818">
        <ele>249.5</ele>
        <time>2013-04-24T09:11:27Z</time>
      </trkpt>
      <trkpt lat="49.05585" lon="6.94809">
        <ele>248.8</ele>
        <time>2013-04-24T09:11:32Z</time>
      </trkpt>
      <trkpt lat="49.05584" lon="6.94799">
        <ele>248.7</ele>
        <time>2013-04-24T09:11:37Z</time>
      </trkpt>
      <trkpt lat="49.05582" lon="6.9479">
        <ele>248.4</ele>
        <time>2013-04-24T09:11:42Z</time>
      </trkpt>
      <trkpt lat="49.05581" lon="6.9478">
        <ele>248.1</ele>
        <time>2013-04-24T09:11:47Z</time>
      </trkpt>
      <trkpt lat="49.05579" lon="6.9477">
        <ele>247.4</ele>
        <time>2013-04-24T09:11:52Z</time>
      </trkpt>
      <trkpt lat="49.05578" lon="6.94761">
        <ele>247.2</ele>
        <time>2013-04-24T09:11:57Z</time>
      </trkpt>
      <trkpt lat="49.05577" lon="6.94751">
        <ele>247.4</ele>
        <time>2013-04-24T09:12:02Z</time>
      </trkpt>
      <trkpt lat="49.05577" lon="6.94749">
        <ele>247.4</ele>
        <time>2013-04-24T09:12:03Z</time>
      </trkpt>
      <trkpt lat="49.05574" lon="6.94731">
        <ele>246.7</ele>
        <time>2013-04-24T09:12:12Z</time>
      </trkpt>
      <trkpt lat="49.05573" lon="6.94721">
        <ele>246</ele>
        <time>2013-04-24T09:12:17Z</time>
      </trkpt>
      <trkpt lat="49.05572" lon="6.94712">
        <ele>245.1</ele>
        <time>2013-04-24T09:12:22Z</time>
      </trkpt>
      <trkpt lat="49.05571" lon="6.94702">
        <ele>244.9</ele>
        <time>2013-04-24T09:12:27Z</time>
      </trkpt>
      <trkpt lat="49.0557" lon="6.94693">
        <ele>244.6</ele>
        <time>2013-04-24T09:12:32Z</time>
      </trkpt>
      <trkpt lat="49.05569" lon="6.94684">
        <ele>244.3</ele>
        <time>2013-04-24T09:12:37Z</time>
      </trkpt>
      <trkpt lat="49.0557" lon="6.94676">
        <ele>243.6</ele>
        <time>2013-04-24T09:12:42Z</time>
      </trkpt>
      <trkpt lat="49.05569" lon="6.94667">
        <ele>243.9</ele>
        <time>2013-04-24T09:12:47Z</time>
      </trkpt>
      <trkpt lat="49.05567" lon="6.94658">
        <ele>243.1</ele>
        <time>2013-04-24T09:12:52Z</time>
      </trkpt>
      <trkpt lat="49.05566" lon="6.94648">
        <ele>241.6</ele>
        <time>2013-04-24T09:12:57Z</time>
      </trkpt>
      <trkpt lat="49.05564" lon="6.94639">
        <ele>241</ele>
        <time>2013-04-24T09:13:02Z</time>
      </trkpt>
      <trkpt lat="49.05563" lon="6.9463">
        <ele>241</ele>
        <time>2013-04-24T09:13:07Z</time>
      </trkpt>
      <trkpt lat="49.05563" lon="6.94628">
        <ele>241</ele>
        <time>2013-04-24T09:13:08Z</time>
      </trkpt>
      <trkpt lat="49.05562" lon="6.94611">
        <ele>239.6</ele>
        <time>2013-04-24T09:13:17Z</time>
      </trkpt>
      <trkpt lat="49.05561" lon="6.94602">
        <ele>240</ele>
        <time>2013-04-24T09:13:22Z</time>
      </trkpt>
      <trkpt lat="49.0556" lon="6.94592">
        <ele>239.5</ele>
        <time>2013-04-24T09:13:27Z</time>
      </trkpt>
      <trkpt lat="49.05558" lon="6.94582">
        <ele>238.8</ele>
        <time>2013-04-24T09:13:32Z</time>
      </trkpt>
      <trkpt lat="49.05557" lon="6.94572">
        <ele>238.1</ele>
        <time>2013-04-24T09:13:37Z</time>
      </trkpt>
      <trkpt lat="49.05555" lon="6.94561">
        <ele>237.4</ele>
        <time>2013-04-24T09:13:42Z</time>
      </trkpt>
      <trkpt lat="49.05554" lon="6.9455">
        <ele>237.1</ele>
        <time>2013-04-24T09:13:47Z</time>
      </trkpt>
      <trkpt lat="49.05553" lon="6.9454">
        <ele>238.1</ele>
        <time>2013-04-24T09:13:52Z</time>
      </trkpt>
      <trkpt lat="49.05551" lon="6.94529">
        <ele>237.2</ele>
        <time>2013-04-24T09:13:57Z</time>
      </trkpt>
      <trkpt lat="49.0555" lon="6.94519">
        <ele>236.9</ele>
        <time>2013-04-24T09:14:02Z</time>
      </trkpt>
      <trkpt lat="49.05548" lon="6.94509">
        <ele>236.6</ele>
        <time>2013-04-24T09:14:07Z</time>
      </trkpt>
      <trkpt lat="49.05546" lon="6.94499">
        <ele>237.2</ele>
        <time>2013-04-24T09:14:12Z</time>
      </trkpt>
      <trkpt lat="49.05546" lon="6.94497">
        <ele>237.3</ele>
        <time>2013-04-24T09:14:13Z</time>
      </trkpt>
      <trkpt lat="49.05544" lon="6.9448">
        <ele>237.5</ele>
        <time>2013-04-24T09:14:22Z</time>
      </trkpt>
      <trkpt lat="49.05542" lon="6.9447">
        <ele>236.6</ele>
        <time>2013-04-24T09:14:27Z</time>
      </trkpt>
      <trkpt lat="49.05542" lon="6.9446">
        <ele>237.5</ele>
        <time>2013-04-24T09:14:32Z</time>
      </trkpt>
      <trkpt lat="49.05541" lon="6.9445">
        <ele>237.1</ele>
        <time>2013-04-24T09:14:37Z</time>
      </trkpt>
      <trkpt lat="49.05539" lon="6.9444">
        <ele>237.3</ele>
        <time>2013-04-24T09:14:42Z</time>
      </trkpt>
      <trkpt lat="49.05536" lon="6.94431">
        <ele>237.4</ele>
        <time>2013-04-24T09:14:47Z</time>
      </trkpt>
      <trkpt lat="49.05534" lon="6.94422">
        <ele>237.4</ele>
        <time>2013-04-24T09:14:52Z</time>
      </trkpt>
      <trkpt lat="49.05533" lon="6.94413">
        <ele>236.7</ele>
        <time>2013-04-24T09:14:57Z</time>
      </trkpt>
      <trkpt lat="49.05531" lon="6.94404">
        <ele>236.3</ele>
        <time>2013-04-24T09:15:02Z</time>
      </trkpt>
      <trkpt lat="49.05529" lon="6.94395">
        <ele>237</ele>
        <time>2013-04-24T09:15:07Z</time>
      </trkpt>
      <trkpt lat="49.05528" lon="6.94386">
        <ele>236.9</ele>
        <time>2013-04-24T09:15:12Z</time>
      </trkpt>
      <trkpt lat="49.05526" lon="6.94376">
        <ele>236.6</ele>
        <time>2013-04-24T09:15:17Z</time>
      </trkpt>
      <trkpt lat="49.05526" lon="6.94374">
        <ele>236.3</ele>
        <time>2013-04-24T09:15:18Z</time>
      </trkpt>
      <trkpt lat="49.05524" lon="6.94357">
        <ele>237</ele>
        <time>2013-04-24T09:15:27Z</time>
      </trkpt>
      <trkpt lat="49.05522" lon="6.94348">
        <ele>236.6</ele>
        <time>2013-04-24T09:15:32Z</time>
      </trkpt>
      <trkpt lat="49.05521" lon="6.94339">
        <ele>237</ele>
        <time>2013-04-24T09:15:37Z</time>
      </trkpt>
      <trkpt lat="49.0552" lon="6.9433">
        <ele>236.6</ele>
        <time>2013-04-24T09:15:42Z</time>
      </trkpt>
      <trkpt lat="49.05518" lon="6.94322">
        <ele>236.4</ele>
        <time>2013-04-24T09:15:47Z</time>
      </trkpt>
      <trkpt lat="49.05519" lon="6.94319">
        <ele>236.2</ele>
        <time>2013-04-24T09:15:52Z</time>
      </trkpt>
      <trkpt lat="49.05519" lon="6.94318">
        <ele>236.9</ele>
        <time>2013-04-24T09:15:57Z</time>
      </trkpt>
      <trkpt lat="49.05519" lon="6.94318">
        <ele>236.8</ele>
        <time>2013-04-24T09:16:02Z</time>
      </trkpt>
      <trkpt lat="49.05519" lon="6.94312">
        <ele>237.3</ele>
        <time>2013-04-24T09:16:07Z</time>
      </trkpt>
      <trkpt lat="49.05518" lon="6.94305">
        <ele>237.2</ele>
        <time>2013-04-24T09:16:12Z</time>
      </trkpt>
      <trkpt lat="49.05517" lon="6.94297">
        <ele>237.2</ele>
        <time>2013-04-24T09:16:17Z</time>
      </trkpt>
      <trkpt lat="49.05515" lon="6.94287">
        <ele>236.7</ele>
        <time>2013-04-24T09:16:22Z</time>
      </trkpt>
      <trkpt lat="49.05515" lon="6.94285">
        <ele>236.6</ele>
        <time>2013-04-24T09:16:23Z</time>
      </trkpt>
      <trkpt lat="49.05511" lon="6.94268">
        <ele>236.3</ele>
        <time>2013-04-24T09:16:32Z</time>
      </trkpt>
      <trkpt lat="49.05507" lon="6.9426">
        <ele>236.1</ele>
        <time>2013-04-24T09:16:37Z</time>
      </trkpt>
      <trkpt lat="49.05503" lon="6.94253">
        <ele>236.2</ele>
        <time>2013-04-24T09:16:42Z</time>
      </trkpt>
      <trkpt lat="49.05498" lon="6.94245">
        <ele>237.2</ele>
        <time>2013-04-24T09:16:47Z</time>
      </trkpt>
      <trkpt lat="49.05494" lon="6.94239">
        <ele>237.1</ele>
        <time>2013-04-24T09:16:52Z</time>
      </trkpt>
      <trkpt lat="49.05489" lon="6.94232">
        <ele>236.2</ele>
        <time>2013-04-24T09:16:57Z</time>
      </trkpt>
      <trkpt lat="49.05485" lon="6.94225">
        <ele>236.3</ele>
        <time>2013-04-24T09:17:02Z</time>
      </trkpt>
      <trkpt lat="49.05481" lon="6.9422">
        <ele>236.7</ele>
        <time>2013-04-24T09:17:07Z</time>
      </trkpt>
      <trkpt lat="49.05477" lon="6.94213">
        <ele>236.5</ele>
        <time>2013-04-24T09:17:12Z</time>
      </trkpt>
      <trkpt lat="49.05473" lon="6.94206">
        <ele>236.8</ele>
        <time>2013-04-24T09:17:17Z</time>
      </trkpt>
      <trkpt lat="49.05469" lon="6.94197">
        <ele>236.3</ele>
        <time>2013-04-24T09:17:22Z</time>
      </trkpt>
      <trkpt lat="49.05466" lon="6.94187">
        <ele>236.8</ele>
        <time>2013-04-24T09:17:27Z</time>
      </trkpt>
      <trkpt lat="49.05466" lon="6.94185">
        <ele>236.9</ele>
        <time>2013-04-24T09:17:28Z</time>
      </trkpt>
      <trkpt lat="49.05462" lon="6.94167">
        <ele>237.8</ele>
        <time>2013-04-24T09:17:37Z</time>
      </trkpt>
      <trkpt lat="49.05461" lon="6.94156">
        <ele>238.8</ele>
        <time>2013-04-24T09:17:42Z</time>
      </trkpt>
      <trkpt lat="49.05459" lon="6.94146">
        <ele>239.4</ele>
        <time>2013-04-24T09:17:47Z</time>
      </trkpt>
      <trkpt lat="49.05458" lon="6.94136">
        <ele>238.9</ele>
        <time>2013-04-24T09:17:52Z</time>
      </trkpt>
      <trkpt lat="49.05457" lon="6.94126">
        <ele>240</ele>
        <time>2013-04-24T09:17:57Z</time>
      </trkpt>
      <trkpt lat="49.05455" lon="6.94116">
        <ele>239.6</ele>
        <time>2013-04-24T09:18:02Z</time>
      </trkpt>
      <trkpt lat="49.05454" lon="6.94106">
        <ele>240.3</ele>
        <time>2013-04-24T09:18:07Z</time>
      </trkpt>
      <trkpt lat="49.05452" lon="6.94096">
        <ele>241</ele>
        <time>2013-04-24T09:18:12Z</time>
      </trkpt>
      <trkpt lat="49.05451" lon="6.94086">
        <ele>241.3</ele>
        <time>2013-04-24T09:18:17Z</time>
      </trkpt>
      <trkpt lat="49.05449" lon="6.94077">
        <ele>241.7</ele>
        <time>2013-04-24T09:18:22Z</time>
      </trkpt>
      <trkpt lat="49.05448" lon="6.94067">
        <ele>242.1</ele>
        <time>2013-04-24T09:18:27Z</time>
      </trkpt>
      <trkpt lat="49.05447" lon="6.94057">
        <ele>241.8</ele>
        <time>2013-04-24T09:18:32Z</time>
      </trkpt>
      <trkpt lat="49.05446" lon="6.94055">
        <ele>241.8</ele>
        <time>2013-04-24T09:18:33Z</time>
      </trkpt>
      <trkpt lat="49.05443" lon="6.94038">
        <ele>242.9</ele>
        <time>2013-04-24T09:18:42Z</time>
      </trkpt>
      <trkpt lat="49.05442" lon="6.94027">
        <ele>243.3</ele>
        <time>2013-04-24T09:18:47Z</time>
      </trkpt>
      <trkpt lat="49.0544" lon="6.94017">
        <ele>242.9</ele>
        <time>2013-04-24T09:18:52Z</time>
      </trkpt>
      <trkpt lat="49.05439" lon="6.94008">
        <ele>242.9</ele>
        <time>2013-04-24T09:18:57Z</time>
      </trkpt>
      <trkpt lat="49.05437" lon="6.93998">
        <ele>243.6</ele>
        <time>2013-04-24T09:19:02Z</time>
      </trkpt>
      <trkpt lat="49.05435" lon="6.93988">
        <ele>244.2</ele>
        <time>2013-04-24T09:19:07Z</time>
      </trkpt>
      <trkpt lat="49.05434" lon="6.93977">
        <ele>244.6</ele>
        <time>2013-04-24T09:19:12Z</time>
      </trkpt>
      <trkpt lat="49.05433" lon="6.93967">
        <ele>244.5</ele>
        <time>2013-04-24T09:19:17Z</time>
      </trkpt>
      <trkpt lat="49.05431" lon="6.93957">
        <ele>244.5</ele>
        <time>2013-04-24T09:19:22Z</time>
      </trkpt>
      <trkpt lat="49.0543" lon="6.93947">
        <ele>245</ele>
        <time>2013-04-24T09:19:27Z</time>
      </trkpt>
      <trkpt lat="49.05429" lon="6.93937">
        <ele>245</ele>
        <time>2013-04-24T09:19:32Z</time>
      </trkpt>
      <trkpt lat="49.05428" lon="6.93927">
        <ele>245.2</ele>
        <time>2013-04-24T09:19:37Z</time>
      </trkpt>
      <trkpt lat="49.05427" lon="6.93925">
        <ele>245</ele>
        <time>2013-04-24T09:19:38Z</time>
      </trkpt>
      <trkpt lat="49.05426" lon="6.93906">
        <ele>245.1</ele>
        <time>2013-04-24T09:19:47Z</time>
      </trkpt>
      <trkpt lat="49.05425" lon="6.93896">
        <ele>246.2</ele>
        <time>2013-04-24T09:19:52Z</time>
      </trkpt>
      <trkpt lat="49.05424" lon="6.93885">
        <ele>246.7</ele>
        <time>2013-04-24T09:19:57Z</time>
      </trkpt>
      <trkpt lat="49.05424" lon="6.93885">
        <ele>246.7</ele>
        <time>2013-04-24T09:19:57Z</time>
      </trkpt>
      <trkpt lat="49.05423" lon="6.93874">
        <ele>246.8</ele>
        <time>2013-04-24T09:20:02Z</time>
      </trkpt>
      <trkpt lat="49.05423" lon="6.93864">
        <ele>246.5</ele>
        <time>2013-04-24T09:20:07Z</time>
      </trkpt>
      <trkpt lat="49.05422" lon="6.93853">
        <ele>246.6</ele>
        <time>2013-04-24T09:20:12Z</time>
      </trkpt>
      <trkpt lat="49.05422" lon="6.93843">
        <ele>246.8</ele>
        <time>2013-04-24T09:20:17Z</time>
      </trkpt>
      <trkpt lat="49.05421" lon="6.93833">
        <ele>247.1</ele>
        <time>2013-04-24T09:20:22Z</time>
      </trkpt>
      <trkpt lat="49.05421" lon="6.93824">
        <ele>248</ele>
        <time>2013-04-24T09:20:27Z</time>
      </trkpt>
      <trkpt lat="49.0542" lon="6.93814">
        <ele>247.7</ele>
        <time>2013-04-24T09:20:32Z</time>
      </trkpt>
      <trkpt lat="49.0542" lon="6.93804">
        <ele>247.5</ele>
        <time>2013-04-24T09:20:37Z</time>
      </trkpt>
      <trkpt lat="49.05419" lon="6.93794">
        <ele>247.6</ele>
        <time>2013-04-24T09:20:42Z</time>
      </trkpt>
      <trkpt lat="49.05419" lon="6.93792">
        <ele>247.8</ele>
        <time>2013-04-24T09:20:43Z</time>
      </trkpt>
      <trkpt lat="49.05417" lon="6.93774">
        <ele>249</ele>
        <time>2013-04-24T09:20:52Z</time>
      </trkpt>
      <trkpt lat="49.05416" lon="6.93765">
        <ele>249.1</ele>
        <time>2013-04-24T09:20:57Z</time>
      </trkpt>
      <trkpt lat="49.05414" lon="6.93755">
        <ele>248.4</ele>
        <time>2013-04-24T09:21:02Z</time>
      </trkpt>
      <trkpt lat="49.05412" lon="6.93745">
        <ele>248.6</ele>
        <time>2013-04-24T09:21:07Z</time>
      </trkpt>
      <trkpt lat="49.05409" lon="6.93736">
        <ele>248.8</ele>
        <time>2013-04-24T09:21:12Z</time>
      </trkpt>
      <trkpt lat="49.05407" lon="6.93727">
        <ele>248.3</ele>
        <time>2013-04-24T09:21:17Z</time>
      </trkpt>
      <trkpt lat="49.05405" lon="6.93718">
        <ele>248.4</ele>
        <time>2013-04-24T09:21:22Z</time>
      </trkpt>
      <trkpt lat="49.05402" lon="6.93709">
        <ele>247.9</ele>
        <time>2013-04-24T09:21:27Z</time>
      </trkpt>
      <trkpt lat="49.05399" lon="6.937">
        <ele>248.4</ele>
        <time>2013-04-24T09:21:32Z</time>
      </trkpt>
      <trkpt lat="49.05397" lon="6.93692">
        <ele>248.1</ele>
        <time>2013-04-24T09:21:37Z</time>
      </trkpt>
      <trkpt lat="49.05394" lon="6.93683">
        <ele>248.8</ele>
        <time>2013-04-24T09:21:42Z</time>
      </trkpt>
      <trkpt lat="49.05391" lon="6.93674">
        <ele>248.4</ele>
        <time>2013-04-24T09:21:47Z</time>
      </trkpt>
      <trkpt lat="49.05391" lon="6.93672">
        <ele>248.6</ele>
        <time>2013-04-24T09:21:48Z</time>
      </trkpt>
      <trkpt lat="49.05386" lon="6.93656">
        <ele>248.2</ele>
        <time>2013-04-24T09:21:57Z</time>
      </trkpt>
      <trkpt lat="49.05383" lon="6.93646">
        <ele>248</ele>
        <time>2013-04-24T09:22:02Z</time>
      </trkpt>
      <trkpt lat="49.0538" lon="6.93638">
        <ele>247.7</ele>
        <time>2013-04-24T09:22:07Z</time>
      </trkpt>
      <trkpt lat="49.05376" lon="6.93635">
        <ele>248</ele>
        <time>2013-04-24T09:22:12Z</time>
      </trkpt>
      <trkpt lat="49.0537" lon="6.93632">
        <ele>248.6</ele>
        <time>2013-04-24T09:22:17Z</time>
      </trkpt>
      <trkpt lat="49.05364" lon="6.93629">
        <ele>248.4</ele>
        <time>2013-04-24T09:22:22Z</time>
      </trkpt>
      <trkpt lat="49.05358" lon="6.93625">
        <ele>248.4</ele>
        <time>2013-04-24T09:22:27Z</time>
      </trkpt>
      <trkpt lat="49.05352" lon="6.93621">
        <ele>248.3</ele>
        <time>2013-04-24T09:22:32Z</time>
      </trkpt>
      <trkpt lat="49.05346" lon="6.93617">
        <ele>247.5</ele>
        <time>2013-04-24T09:22:37Z</time>
      </trkpt>
      <trkpt lat="49.0534" lon="6.93613">
        <ele>247.6</ele>
        <time>2013-04-24T09:22:42Z</time>
      </trkpt>
      <trkpt lat="49.05334" lon="6.93609">
        <ele>247.4</ele>
        <time>2013-04-24T09:22:47Z</time>
      </trkpt>
      <trkpt lat="49.05328" lon="6.93605">
        <ele>247.4</ele>
        <time>2013-04-24T09:22:52Z</time>
      </trkpt>
      <trkpt lat="49.05327" lon="6.93604">
        <ele>247.4</ele>
        <time>2013-04-24T09:22:53Z</time>
      </trkpt>
      <trkpt lat="49.05316" lon="6.93596">
        <ele>247.5</ele>
        <time>2013-04-24T09:23:02Z</time>
      </trkpt>
      <trkpt lat="49.0531" lon="6.93591">
        <ele>247.2</ele>
        <time>2013-04-24T09:23:07Z</time>
      </trkpt>
      <trkpt lat="49.05306" lon="6.93584">
        <ele>246.2</ele>
        <time>2013-04-24T09:23:12Z</time>
      </trkpt>
      <trkpt lat="49.05301" lon="6.93576">
        <ele>246.1</ele>
        <time>2013-04-24T09:23:17Z</time>
      </trkpt>
      <trkpt lat="49.05297" lon="6.93568">
        <ele>246</ele>
        <time>2013-04-24T09:23:22Z</time>
      </trkpt>
      <trkpt lat="49.05293" lon="6.9356">
        <ele>244.7</ele>
        <time>2013-04-24T09:23:27Z</time>
      </trkpt>
      <trkpt lat="49.05288" lon="6.93552">
        <ele>245.2</ele>
        <time>2013-04-24T09:23:32Z</time>
      </trkpt>
      <trkpt lat="49.05285" lon="6.93543">
        <ele>244.7</ele>
        <time>2013-04-24T09:23:37Z</time>
      </trkpt>
      <trkpt lat="49.05281" lon="6.93535">
        <ele>244.9</ele>
        <time>2013-04-24T09:23:42Z</time>
      </trkpt>
      <trkpt lat="49.05277" lon="6.93527">
        <ele>245.9</ele>
        <time>2013-04-24T09:23:47Z</time>
      </trkpt>
      <trkpt lat="49.05273" lon="6.93519">
        <ele>245.6</ele>
        <time>2013-04-24T09:23:52Z</time>
      </trkpt>
      <trkpt lat="49.0527" lon="6.93511">
        <ele>245.5</ele>
        <time>2013-04-24T09:23:57Z</time>
      </trkpt>
      <trkpt lat="49.0527" lon="6.93509">
        <ele>245.6</ele>
        <time>2013-04-24T09:23:58Z</time>
      </trkpt>
      <trkpt lat="49.05268" lon="6.93503">
        <ele>244.5</ele>
        <time>2013-04-24T09:24:07Z</time>
      </trkpt>
      <trkpt lat="49.05268" lon="6.93503">
        <ele>243.9</ele>
        <time>2013-04-24T09:24:12Z</time>
      </trkpt>
      <trkpt lat="49.05268" lon="6.93503">
        <ele>244.5</ele>
        <time>2013-04-24T09:24:17Z</time>
      </trkpt>
      <trkpt lat="49.05266" lon="6.935">
        <ele>244.8</ele>
        <time>2013-04-24T09:24:22Z</time>
      </trkpt>
      <trkpt lat="49.05263" lon="6.93492">
        <ele>244.7</ele>
        <time>2013-04-24T09:24:27Z</time>
      </trkpt>
      <trkpt lat="49.0526" lon="6.93485">
        <ele>244.2</ele>
        <time>2013-04-24T09:24:32Z</time>
      </trkpt>
      <trkpt lat="49.05256" lon="6.93477">
        <ele>243.7</ele>
        <time>2013-04-24T09:24:37Z</time>
      </trkpt>
      <trkpt lat="49.05254" lon="6.93469">
        <ele>243.5</ele>
        <time>2013-04-24T09:24:42Z</time>
      </trkpt>
      <trkpt lat="49.0525" lon="6.93462">
        <ele>243.1</ele>
        <time>2013-04-24T09:24:47Z</time>
      </trkpt>
      <trkpt lat="49.05249" lon="6.93459">
        <ele>243.3</ele>
        <time>2013-04-24T09:24:52Z</time>
      </trkpt>
      <trkpt lat="49.05245" lon="6.93452">
        <ele>243.6</ele>
        <time>2013-04-24T09:24:57Z</time>
      </trkpt>
      <trkpt lat="49.05242" lon="6.93444">
        <ele>242.4</ele>
        <time>2013-04-24T09:25:02Z</time>
      </trkpt>
      <trkpt lat="49.05241" lon="6.93442">
        <ele>242.2</ele>
        <time>2013-04-24T09:25:03Z</time>
      </trkpt>
      <trkpt lat="49.05236" lon="6.93427">
        <ele>241.6</ele>
        <time>2013-04-24T09:25:12Z</time>
      </trkpt>
      <trkpt lat="49.05233" lon="6.93418">
        <ele>241.9</ele>
        <time>2013-04-24T09:25:17Z</time>
      </trkpt>
      <trkpt lat="49.05231" lon="6.93409">
        <ele>241.9</ele>
        <time>2013-04-24T09:25:22Z</time>
      </trkpt>
      <trkpt lat="49.05228" lon="6.93399">
        <ele>241</ele>
        <time>2013-04-24T09:25:27Z</time>
      </trkpt>
      <trkpt lat="49.05225" lon="6.93391">
        <ele>241.2</ele>
        <time>2013-04-24T09:25:32Z</time>
      </trkpt>
      <trkpt lat="49.05222" lon="6.93382">
        <ele>240.2</ele>
        <time>2013-04-24T09:25:37Z</time>
      </trkpt>
      <trkpt lat="49.0522" lon="6.93373">
        <ele>240.6</ele>
        <time>2013-04-24T09:25:42Z</time>
      </trkpt>
      <trkpt lat="49.05216" lon="6.93365">
        <ele>240.1</ele>
        <time>2013-04-24T09:25:47Z</time>
      </trkpt>
      <trkpt lat="49.05214" lon="6.93356">
        <ele>239.8</ele>
        <time>2013-04-24T09:25:52Z</time>
      </trkpt>
      <trkpt lat="49.05211" lon="6.93347">
        <ele>239.7</ele>
        <time>2013-04-24T09:25:57Z</time>
      </trkpt>
      <trkpt lat="49.05209" lon="6.9334">
        <ele>239.7</ele>
        <time>2013-04-24T09:26:02Z</time>
      </trkpt>
      <trkpt lat="49.05206" lon="6.9333">
        <ele>238.7</ele>
        <time>2013-04-24T09:26:07Z</time>
      </trkpt>
      <trkpt lat="49.05206" lon="6.93329">
        <ele>238.7</ele>
        <time>2013-04-24T09:26:08Z</time>
      </trkpt>
      <trkpt lat="49.05201" lon="6.93311">
        <ele>238.2</ele>
        <time>2013-04-24T09:26:17Z</time>
      </trkpt>
      <trkpt lat="49.05198" lon="6.93302">
        <ele>237.9</ele>
        <time>2013-04-24T09:26:22Z</time>
      </trkpt>
      <trkpt lat="49.05196" lon="6.93293">
        <ele>238.1</ele>
        <time>2013-04-24T09:26:27Z</time>
      </trkpt>
      <trkpt lat="49.05194" lon="6.93285">
        <ele>237.4</ele>
        <time>2013-04-24T09:26:32Z</time>
      </trkpt>
      <trkpt lat="49.05191" lon="6.93276">
        <ele>236.9</ele>
        <time>2013-04-24T09:26:37Z</time>
      </trkpt>
      <trkpt lat="49.05188" lon="6.93268">
        <ele>237.4</ele>
        <time>2013-04-24T09:26:42Z</time>
      </trkpt>
      <trkpt lat="49.05186" lon="6.9326">
        <ele>237.4</ele>
        <time>2013-04-24T09:26:47Z</time>
      </trkpt>
      <trkpt lat="49.05183" lon="6.93251">
        <ele>237.5</ele>
        <time>2013-04-24T09:26:52Z</time>
      </trkpt>
      <trkpt lat="49.0518" lon="6.93243">
        <ele>236.2</ele>
        <time>2013-04-24T09:26:57Z</time>
      </trkpt>
      <trkpt lat="49.05178" lon="6.93234">
        <ele>236.2</ele>
        <time>2013-04-24T09:27:02Z</time>
      </trkpt>
      <trkpt lat="49.05175" lon="6.93226">
        <ele>236.6</ele>
        <time>2013-04-24T09:27:07Z</time>
      </trkpt>
      <trkpt lat="49.05173" lon="6.93218">
        <ele>235.9</ele>
        <time>2013-04-24T09:27:12Z</time>
      </trkpt>
      <trkpt lat="49.05172" lon="6.93216">
        <ele>235.8</ele>
        <time>2013-04-24T09:27:13Z</time>
      </trkpt>
      <trkpt lat="49.05168" lon="6.93201">
        <ele>234.7</ele>
        <time>2013-04-24T09:27:22Z</time>
      </trkpt>
      <trkpt lat="49.05166" lon="6.93193">
        <ele>234.1</ele>
        <time>2013-04-24T09:27:27Z</time>
      </trkpt>
      <trkpt lat="49.05164" lon="6.93185">
        <ele>234.2</ele>
        <time>2013-04-24T09:27:32Z</time>
      </trkpt>
      <trkpt lat="49.05162" lon="6.93177">
        <ele>234.2</ele>
        <time>2013-04-24T09:27:37Z</time>
      </trkpt>
      <trkpt lat="49.05159" lon="6.93169">
        <ele>234.4</ele>
        <time>2013-04-24T09:27:42Z</time>
      </trkpt>
      <trkpt lat="49.05157" lon="6.9316">
        <ele>234.2</ele>
        <time>2013-04-24T09:27:47Z</time>
      </trkpt>
      <trkpt lat="49.05154" lon="6.93151">
        <ele>233.3</ele>
        <time>2013-04-24T09:27:52Z</time>
      </trkpt>
      <trkpt lat="49.05152" lon="6.93141">
        <ele>233.2</ele>
        <time>2013-04-24T09:27:57Z</time>
      </trkpt>
      <trkpt lat="49.05149" lon="6.93132">
        <ele>232.8</ele>
        <time>2013-04-24T09:28:02Z</time>
      </trkpt>
      <trkpt lat="49.05148" lon="6.93124">
        <ele>232.5</ele>
        <time>2013-04-24T09:28:07Z</time>
      </trkpt>
      <trkpt lat="49.05145" lon="6.93116">
        <ele>232.4</ele>
        <time>2013-04-24T09:28:12Z</time>
      </trkpt>
      <trkpt lat="49.05142" lon="6.93109">
        <ele>232.5</ele>
        <time>2013-04-24T09:28:17Z</time>
      </trkpt>
      <trkpt lat="49.05141" lon="6.93107">
        <ele>232.3</ele>
        <time>2013-04-24T09:28:18Z</time>
      </trkpt>
      <trkpt lat="49.05137" lon="6.93096">
        <ele>232</ele>
        <time>2013-04-24T09:28:27Z</time>
      </trkpt>
      <trkpt lat="49.0514" lon="6.9309">
        <ele>232.4</ele>
        <time>2013-04-24T09:28:32Z</time>
      </trkpt>
      <trkpt lat="49.05143" lon="6.93082">
        <ele>231.8</ele>
        <time>2013-04-24T09:28:37Z</time>
      </trkpt>
      <trkpt lat="49.05147" lon="6.93076">
        <ele>231.9</ele>
        <time>2013-04-24T09:28:42Z</time>
      </trkpt>
      <trkpt lat="49.05152" lon="6.9307">
        <ele>231.5</ele>
        <time>2013-04-24T09:28:47Z</time>
      </trkpt>
      <trkpt lat="49.05157" lon="6.93065">
        <ele>231.7</ele>
        <time>2013-04-24T09:28:52Z</time>
      </trkpt>
      <trkpt lat="49.05162" lon="6.9306">
        <ele>231.1</ele>
        <time>2013-04-24T09:28:57Z</time>
      </trkpt>
      <trkpt lat="49.05168" lon="6.93055">
        <ele>231.7</ele>
        <time>2013-04-24T09:29:02Z</time>
      </trkpt>
      <trkpt lat="49.05173" lon="6.93051">
        <ele>232</ele>
        <time>2013-04-24T09:29:07Z</time>
      </trkpt>
      <trkpt lat="49.05178" lon="6.93047">
        <ele>231.4</ele>
        <time>2013-04-24T09:29:12Z</time>
      </trkpt>
      <trkpt lat="49.05185" lon="6.93044">
        <ele>231.4</ele>
        <time>2013-04-24T09:29:17Z</time>
      </trkpt>
      <trkpt lat="49.0519" lon="6.93041">
        <ele>231.9</ele>
        <time>2013-04-24T09:29:22Z</time>
      </trkpt>
      <trkpt lat="49.05191" lon="6.93041">
        <ele>231.6</ele>
        <time>2013-04-24T09:29:23Z</time>
      </trkpt>
      <trkpt lat="49.05201" lon="6.93035">
        <ele>231.3</ele>
        <time>2013-04-24T09:29:32Z</time>
      </trkpt>
      <trkpt lat="49.05206" lon="6.93032">
        <ele>231.2</ele>
        <time>2013-04-24T09:29:37Z</time>
      </trkpt>
      <trkpt lat="49.05211" lon="6.9303">
        <ele>231.4</ele>
        <time>2013-04-24T09:29:42Z</time>
      </trkpt>
      <trkpt lat="49.05217" lon="6.93027">
        <ele>231</ele>
        <time>2013-04-24T09:29:47Z</time>
      </trkpt>
      <trkpt lat="49.05218" lon="6.93026">
        <ele>231.7</ele>
        <time>2013-04-24T09:29:52Z</time>
      </trkpt>
      <trkpt lat="49.05219" lon="6.93025">
        <ele>232.2</ele>
        <time>2013-04-24T09:29:57Z</time>
      </trkpt>
      <trkpt lat="49.05219" lon="6.93024">
        <ele>231.3</ele>
        <time>2013-04-24T09:30:02Z</time>
      </trkpt>
      <trkpt lat="49.05219" lon="6.93023">
        <ele>231.7</ele>
        <time>2013-04-24T09:30:07Z</time>
      </trkpt>
      <trkpt lat="49.05219" lon="6.9302">
        <ele>231.3</ele>
        <time>2013-04-24T09:30:12Z</time>
      </trkpt>
      <trkpt lat="49.0522" lon="6.93019">
        <ele>231.2</ele>
        <time>2013-04-24T09:30:17Z</time>
      </trkpt>
      <trkpt lat="49.0522" lon="6.93018">
        <ele>231.5</ele>
        <time>2013-04-24T09:30:22Z</time>
      </trkpt>
      <trkpt lat="49.05221" lon="6.93017">
        <ele>231.5</ele>
        <time>2013-04-24T09:30:27Z</time>
      </trkpt>
      <trkpt lat="49.05221" lon="6.93017">
        <ele>231.4</ele>
        <time>2013-04-24T09:30:28Z</time>
      </trkpt>
      <trkpt lat="49.05221" lon="6.93017">
        <ele>232.1</ele>
        <time>2013-04-24T09:30:37Z</time>
      </trkpt>
      <trkpt lat="49.05221" lon="6.93017">
        <ele>231.9</ele>
        <time>2013-04-24T09:30:42Z</time>
      </trkpt>
      <trkpt lat="49.0522" lon="6.93017">
        <ele>231.5</ele>
        <time>2013-04-24T09:30:47Z</time>
      </trkpt>
      <trkpt lat="49.05221" lon="6.93015">
        <ele>232</ele>
        <time>2013-04-24T09:30:52Z</time>
      </trkpt>
      <trkpt lat="49.0522" lon="6.93014">
        <ele>231.6</ele>
        <time>2013-04-24T09:30:57Z</time>
      </trkpt>
      <trkpt lat="49.0522" lon="6.93013">
        <ele>232.1</ele>
        <time>2013-04-24T09:31:02Z</time>
      </trkpt>
      <trkpt lat="49.05221" lon="6.93012">
        <ele>231.7</ele>
        <time>2013-04-24T09:31:07Z</time>
      </trkpt>
      <trkpt lat="49.0522" lon="6.93012">
        <ele>231.7</ele>
        <time>2013-04-24T09:31:12Z</time>
      </trkpt>
      <trkpt lat="49.0522" lon="6.93012">
        <ele>231.3</ele>
        <time>2013-04-24T09:31:17Z</time>
      </trkpt>
      <trkpt lat="49.05219" lon="6.93013">
        <ele>231.9</ele>
        <time>2013-04-24T09:31:22Z</time>
      </trkpt>
      <trkpt lat="49.0522" lon="6.93015">
        <ele>231.9</ele>
        <time>2013-04-24T09:31:27Z</time>
      </trkpt>
      <trkpt lat="49.05223" lon="6.93013">
        <ele>232.2</ele>
        <time>2013-04-24T09:31:32Z</time>
      </trkpt>
      <trkpt lat="49.05223" lon="6.93014">
        <ele>231.8</ele>
        <time>2013-04-24T09:31:33Z</time>
      </trkpt>
      <trkpt lat="49.0523" lon="6.93012">
        <ele>232.1</ele>
        <time>2013-04-24T09:31:42Z</time>
      </trkpt>
      <trkpt lat="49.05233" lon="6.9301">
        <ele>232</ele>
        <time>2013-04-24T09:31:47Z</time>
      </trkpt>
      <trkpt lat="49.05238" lon="6.93011">
        <ele>231.1</ele>
        <time>2013-04-24T09:31:52Z</time>
      </trkpt>
      <trkpt lat="49.05243" lon="6.93012">
        <ele>232.2</ele>
        <time>2013-04-24T09:31:57Z</time>
      </trkpt>
      <trkpt lat="49.05246" lon="6.93013">
        <ele>232.6</ele>
        <time>2013-04-24T09:32:02Z</time>
      </trkpt>
      <trkpt lat="49.0525" lon="6.93012">
        <ele>232</ele>
        <time>2013-04-24T09:32:07Z</time>
      </trkpt>
      <trkpt lat="49.05252" lon="6.9301">
        <ele>231.8</ele>
        <time>2013-04-24T09:32:12Z</time>
      </trkpt>
      <trkpt lat="49.05255" lon="6.93007">
        <ele>232.2</ele>
        <time>2013-04-24T09:32:17Z</time>
      </trkpt>
      <trkpt lat="49.05256" lon="6.93006">
        <ele>233</ele>
        <time>2013-04-24T09:32:22Z</time>
      </trkpt>
      <trkpt lat="49.05255" lon="6.93004">
        <ele>233.1</ele>
        <time>2013-04-24T09:32:27Z</time>
      </trkpt>
      <trkpt lat="49.05256" lon="6.93004">
        <ele>232</ele>
        <time>2013-04-24T09:32:32Z</time>
      </trkpt>
      <trkpt lat="49.0526" lon="6.93002">
        <ele>232.6</ele>
        <time>2013-04-24T09:32:37Z</time>
      </trkpt>
      <trkpt lat="49.05261" lon="6.93001">
        <ele>232.9</ele>
        <time>2013-04-24T09:32:38Z</time>
      </trkpt>
      <trkpt lat="49.05268" lon="6.92997">
        <ele>232.6</ele>
        <time>2013-04-24T09:32:47Z</time>
      </trkpt>
      <trkpt lat="49.05274" lon="6.92999">
        <ele>233.3</ele>
        <time>2013-04-24T09:32:52Z</time>
      </trkpt>
      <trkpt lat="49.05281" lon="6.93">
        <ele>232.9</ele>
        <time>2013-04-24T09:32:57Z</time>
      </trkpt>
      <trkpt lat="49.05288" lon="6.93002">
        <ele>232.5</ele>
        <time>2013-04-24T09:33:02Z</time>
      </trkpt>
      <trkpt lat="49.05295" lon="6.93003">
        <ele>232</ele>
        <time>2013-04-24T09:33:07Z</time>
      </trkpt>
      <trkpt lat="49.05302" lon="6.93004">
        <ele>232.4</ele>
        <time>2013-04-24T09:33:12Z</time>
      </trkpt>
      <trkpt lat="49.05305" lon="6.93005">
        <ele>232.8</ele>
        <time>2013-04-24T09:33:17Z</time>
      </trkpt>
      <trkpt lat="49.05311" lon="6.93007">
        <ele>232.8</ele>
        <time>2013-04-24T09:33:22Z</time>
      </trkpt>
      <trkpt lat="49.05316" lon="6.93008">
        <ele>232.3</ele>
        <time>2013-04-24T09:33:27Z</time>
      </trkpt>
      <trkpt lat="49.0532" lon="6.93006">
        <ele>232.7</ele>
        <time>2013-04-24T09:33:32Z</time>
      </trkpt>
      <trkpt lat="49.05326" lon="6.93006">
        <ele>232.1</ele>
        <time>2013-04-24T09:33:37Z</time>
      </trkpt>
      <trkpt lat="49.05331" lon="6.93004">
        <ele>232.8</ele>
        <time>2013-04-24T09:33:42Z</time>
      </trkpt>
      <trkpt lat="49.05333" lon="6.93004">
        <ele>232.9</ele>
        <time>2013-04-24T09:33:43Z</time>
      </trkpt>
      <trkpt lat="49.05342" lon="6.93">
        <ele>231.9</ele>
        <time>2013-04-24T09:33:52Z</time>
      </trkpt>
      <trkpt lat="49.05348" lon="6.92997">
        <ele>232.9</ele>
        <time>2013-04-24T09:33:57Z</time>
      </trkpt>
      <trkpt lat="49.05352" lon="6.92997">
        <ele>232.1</ele>
        <time>2013-04-24T09:34:02Z</time>
      </trkpt>
      <trkpt lat="49.05356" lon="6.92994">
        <ele>233.2</ele>
        <time>2013-04-24T09:34:07Z</time>
      </trkpt>
      <trkpt lat="49.0536" lon="6.92991">
        <ele>232.3</ele>
        <time>2013-04-24T09:34:12Z</time>
      </trkpt>
      <trkpt lat="49.05364" lon="6.92988">
        <ele>232.5</ele>
        <time>2013-04-24T09:34:17Z</time>
      </trkpt>
      <trkpt lat="49.0537" lon="6.92986">
        <ele>232.3</ele>
        <time>2013-04-24T09:34:22Z</time>
      </trkpt>
      <trkpt lat="49.05376" lon="6.92985">
        <ele>233</ele>
        <time>2013-04-24T09:34:27Z</time>
      </trkpt>
      <trkpt lat="49.05376" lon="6.92985">
        <ele>233</ele>
        <time>2013-04-24T09:34:27Z</time>
      </trkpt>
      <trkpt lat="49.0538" lon="6.92986">
        <ele>233.2</ele>
        <time>2013-04-24T09:34:32Z</time>
      </trkpt>
      <trkpt lat="49.05387" lon="6.92986">
        <ele>233.7</ele>
        <time>2013-04-24T09:34:37Z</time>
      </trkpt>
      <trkpt lat="49.05393" lon="6.92984">
        <ele>233.5</ele>
        <time>2013-04-24T09:34:42Z</time>
      </trkpt>
      <trkpt lat="49.05399" lon="6.92982">
        <ele>234.3</ele>
        <time>2013-04-24T09:34:47Z</time>
      </trkpt>
      <trkpt lat="49.054" lon="6.92981">
        <ele>234.2</ele>
        <time>2013-04-24T09:34:48Z</time>
      </trkpt>
      <trkpt lat="49.05409" lon="6.92976">
        <ele>234.3</ele>
        <time>2013-04-24T09:34:57Z</time>
      </trkpt>
      <trkpt lat="49.05415" lon="6.9297">
        <ele>234.1</ele>
        <time>2013-04-24T09:35:02Z</time>
      </trkpt>
      <trkpt lat="49.05419" lon="6.92964">
        <ele>234.4</ele>
        <time>2013-04-24T09:35:07Z</time>
      </trkpt>
      <trkpt lat="49.05422" lon="6.92962">
        <ele>235.5</ele>
        <time>2013-04-24T09:35:12Z</time>
      </trkpt>
      <trkpt lat="49.05425" lon="6.92962">
        <ele>235.3</ele>
        <time>2013-04-24T09:35:17Z</time>
      </trkpt>
      <trkpt lat="49.05427" lon="6.92962">
        <ele>235.1</ele>
        <time>2013-04-24T09:35:22Z</time>
      </trkpt>
      <trkpt lat="49.05428" lon="6.92962">
        <ele>235.5</ele>
        <time>2013-04-24T09:35:27Z</time>
      </trkpt>
      <trkpt lat="49.05428" lon="6.92961">
        <ele>235.4</ele>
        <time>2013-04-24T09:35:32Z</time>
      </trkpt>
      <trkpt lat="49.05428" lon="6.9296">
        <ele>235.6</ele>
        <time>2013-04-24T09:35:37Z</time>
      </trkpt>
      <trkpt lat="49.05427" lon="6.92959">
        <ele>234.1</ele>
        <time>2013-04-24T09:35:42Z</time>
      </trkpt>
      <trkpt lat="49.05428" lon="6.92957">
        <ele>235.5</ele>
        <time>2013-04-24T09:35:47Z</time>
      </trkpt>
      <trkpt lat="49.05428" lon="6.92955">
        <ele>235.5</ele>
        <time>2013-04-24T09:35:52Z</time>
      </trkpt>
      <trkpt lat="49.05428" lon="6.92954">
        <ele>235.5</ele>
        <time>2013-04-24T09:35:53Z</time>
      </trkpt>
      <trkpt lat="49.05428" lon="6.92951">
        <ele>235.4</ele>
        <time>2013-04-24T09:36:02Z</time>
      </trkpt>
      <trkpt lat="49.05429" lon="6.9295">
        <ele>235.1</ele>
        <time>2013-04-24T09:36:07Z</time>
      </trkpt>
      <trkpt lat="49.0543" lon="6.9295">
        <ele>235.4</ele>
        <time>2013-04-24T09:36:12Z</time>
      </trkpt>
      <trkpt lat="49.0543" lon="6.92952">
        <ele>235.1</ele>
        <time>2013-04-24T09:36:17Z</time>
      </trkpt>
      <trkpt lat="49.05431" lon="6.92953">
        <ele>234.6</ele>
        <time>2013-04-24T09:36:22Z</time>
      </trkpt>
      <trkpt lat="49.05432" lon="6.92954">
        <ele>234.4</ele>
        <time>2013-04-24T09:36:27Z</time>
      </trkpt>
      <trkpt lat="49.05432" lon="6.92954">
        <ele>233.8</ele>
        <time>2013-04-24T09:36:32Z</time>
      </trkpt>
      <trkpt lat="49.05432" lon="6.92955">
        <ele>234.7</ele>
        <time>2013-04-24T09:36:37Z</time>
      </trkpt>
      <trkpt lat="49.05432" lon="6.92954">
        <ele>234.6</ele>
        <time>2013-04-24T09:36:42Z</time>
      </trkpt>
      <trkpt lat="49.05432" lon="6.92954">
        <ele>235</ele>
        <time>2013-04-24T09:36:47Z</time>
      </trkpt>
      <trkpt lat="49.05432" lon="6.92954">
        <ele>235</ele>
        <time>2013-04-24T09:36:52Z</time>
      </trkpt>
      <trkpt lat="49.05433" lon="6.92953">
        <ele>235</ele>
        <time>2013-04-24T09:36:57Z</time>
      </trkpt>
      <trkpt lat="49.05433" lon="6.92953">
        <ele>235.1</ele>
        <time>2013-04-24T09:36:58Z</time>
      </trkpt>
      <trkpt lat="49.05435" lon="6.92955">
        <ele>235.5</ele>
        <time>2013-04-24T09:37:07Z</time>
      </trkpt>
      <trkpt lat="49.0544" lon="6.92956">
        <ele>236.3</ele>
        <time>2013-04-24T09:37:12Z</time>
      </trkpt>
      <trkpt lat="49.05445" lon="6.92959">
        <ele>236.1</ele>
        <time>2013-04-24T09:37:17Z</time>
      </trkpt>
      <trkpt lat="49.0545" lon="6.92963">
        <ele>236.1</ele>
        <time>2013-04-24T09:37:22Z</time>
      </trkpt>
      <trkpt lat="49.05454" lon="6.92969">
        <ele>236.4</ele>
        <time>2013-04-24T09:37:27Z</time>
      </trkpt>
      <trkpt lat="49.05458" lon="6.92977">
        <ele>237.3</ele>
        <time>2013-04-24T09:37:32Z</time>
      </trkpt>
      <trkpt lat="49.05463" lon="6.92987">
        <ele>237.8</ele>
        <time>2013-04-24T09:37:37Z</time>
      </trkpt>
      <trkpt lat="49.05466" lon="6.92996">
        <ele>237.4</ele>
        <time>2013-04-24T09:37:42Z</time>
      </trkpt>
      <trkpt lat="49.05471" lon="6.93003">
        <ele>237.4</ele>
        <time>2013-04-24T09:37:47Z</time>
      </trkpt>
      <trkpt lat="49.05477" lon="6.9301">
        <ele>238</ele>
        <time>2013-04-24T09:37:52Z</time>
      </trkpt>
      <trkpt lat="49.05482" lon="6.93017">
        <ele>238.5</ele>
        <time>2013-04-24T09:37:57Z</time>
      </trkpt>
      <trkpt lat="49.05487" lon="6.93025">
        <ele>239.1</ele>
        <time>2013-04-24T09:38:02Z</time>
      </trkpt>
      <trkpt lat="49.05487" lon="6.93026">
        <ele>239.1</ele>
        <time>2013-04-24T09:38:03Z</time>
      </trkpt>
      <trkpt lat="49.05494" lon="6.93042">
        <ele>238.7</ele>
        <time>2013-04-24T09:38:12Z</time>
      </trkpt>
      <trkpt lat="49.05499" lon="6.93048">
        <ele>238.8</ele>
        <time>2013-04-24T09:38:17Z</time>
      </trkpt>
      <trkpt lat="49.05505" lon="6.93051">
        <ele>238.9</ele>
        <time>2013-04-24T09:38:22Z</time>
      </trkpt>
      <trkpt lat="49.05509" lon="6.93058">
        <ele>240.2</ele>
        <time>2013-04-24T09:38:27Z</time>
      </trkpt>
      <trkpt lat="49.05512" lon="6.93066">
        <ele>240.2</ele>
        <time>2013-04-24T09:38:32Z</time>
      </trkpt>
      <trkpt lat="49.05516" lon="6.93074">
        <ele>240.3</ele>
        <time>2013-04-24T09:38:37Z</time>
      </trkpt>
      <trkpt lat="49.05521" lon="6.93082">
        <ele>240.8</ele>
        <time>2013-04-24T09:38:42Z</time>
      </trkpt>
      <trkpt lat="49.05525" lon="6.93091">
        <ele>241.9</ele>
        <time>2013-04-24T09:38:47Z</time>
      </trkpt>
      <trkpt lat="49.05527" lon="6.93099">
        <ele>241.7</ele>
        <time>2013-04-24T09:38:52Z</time>
      </trkpt>
      <trkpt lat="49.05531" lon="6.93107">
        <ele>242.1</ele>
        <time>2013-04-24T09:38:57Z</time>
      </trkpt>
      <trkpt lat="49.05535" lon="6.93115">
        <ele>242.6</ele>
        <time>2013-04-24T09:39:02Z</time>
      </trkpt>
      <trkpt lat="49.05538" lon="6.93122">
        <ele>243</ele>
        <time>2013-04-24T09:39:07Z</time>
      </trkpt>
      <trkpt lat="49.05539" lon="6.93123">
        <ele>243.2</ele>
        <time>2013-04-24T09:39:08Z</time>
      </trkpt>
      <trkpt lat="49.05546" lon="6.93135">
        <ele>243.8</ele>
        <time>2013-04-24T09:39:17Z</time>
      </trkpt>
      <trkpt lat="49.0555" lon="6.93141">
        <ele>244.4</ele>
        <time>2013-04-24T09:39:22Z</time>
      </trkpt>
      <trkpt lat="49.05555" lon="6.93147">
        <ele>244.7</ele>
        <time>2013-04-24T09:39:27Z</time>
      </trkpt>
      <trkpt lat="49.05559" lon="6.93153">
        <ele>245.5</ele>
        <time>2013-04-24T09:39:32Z</time>
      </trkpt>
      <trkpt lat="49.05563" lon="6.9316">
        <ele>245.1</ele>
        <time>2013-04-24T09:39:37Z</time>
      </trkpt>
      <trkpt lat="49.05567" lon="6.93167">
        <ele>245.4</ele>
        <time>2013-04-24T09:39:42Z</time>
      </trkpt>
      <trkpt lat="49.05571" lon="6.93174">
        <ele>246.6</ele>
        <time>2013-04-24T09:39:47Z</time>
      </trkpt>
      <trkpt lat="49.05576" lon="6.9318">
        <ele>247.1</ele>
        <time>2013-04-24T09:39:52Z</time>
      </trkpt>
      <trkpt lat="49.0558" lon="6.93187">
        <ele>246.4</ele>
        <time>2013-04-24T09:39:57Z</time>
      </trkpt>
      <trkpt lat="49.05584" lon="6.93194">
        <ele>248</ele>
        <time>2013-04-24T09:40:02Z</time>
      </trkpt>
      <trkpt lat="49.05587" lon="6.93201">
        <ele>248.7</ele>
        <time>2013-04-24T09:40:07Z</time>
      </trkpt>
      <trkpt lat="49.0559" lon="6.93207">
        <ele>249.1</ele>
        <time>2013-04-24T09:40:12Z</time>
      </trkpt>
      <trkpt lat="49.05591" lon="6.93208">
        <ele>249.1</ele>
        <time>2013-04-24T09:40:13Z</time>
      </trkpt>
      <trkpt lat="49.05599" lon="6.93219">
        <ele>247.8</ele>
        <time>2013-04-24T09:40:22Z</time>
      </trkpt>
      <trkpt lat="49.05603" lon="6.93227">
        <ele>249.1</ele>
        <time>2013-04-24T09:40:27Z</time>
      </trkpt>
      <trkpt lat="49.05607" lon="6.93234">
        <ele>249.4</ele>
        <time>2013-04-24T09:40:32Z</time>
      </trkpt>
      <trkpt lat="49.05611" lon="6.9324">
        <ele>249.2</ele>
        <time>2013-04-24T09:40:37Z</time>
      </trkpt>
      <trkpt lat="49.05615" lon="6.93247">
        <ele>250.1</ele>
        <time>2013-04-24T09:40:42Z</time>
      </trkpt>
      <trkpt lat="49.0562" lon="6.93254">
        <ele>249.9</ele>
        <time>2013-04-24T09:40:47Z</time>
      </trkpt>
      <trkpt lat="49.05624" lon="6.93261">
        <ele>250.7</ele>
        <time>2013-04-24T09:40:52Z</time>
      </trkpt>
      <trkpt lat="49.05629" lon="6.93268">
        <ele>251.5</ele>
        <time>2013-04-24T09:40:57Z</time>
      </trkpt>
      <trkpt lat="49.05633" lon="6.93276">
        <ele>251.8</ele>
        <time>2013-04-24T09:41:02Z</time>
      </trkpt>
      <trkpt lat="49.05638" lon="6.93283">
        <ele>252.2</ele>
        <time>2013-04-24T09:41:07Z</time>
      </trkpt>
      <trkpt lat="49.05642" lon="6.9329">
        <ele>252.6</ele>
        <time>2013-04-24T09:41:12Z</time>
      </trkpt>
      <trkpt lat="49.05647" lon="6.93297">
        <ele>252.9</ele>
        <time>2013-04-24T09:41:17Z</time>
      </trkpt>
      <trkpt lat="49.05648" lon="6.93299">
        <ele>252.8</ele>
        <time>2013-04-24T09:41:18Z</time>
      </trkpt>
      <trkpt lat="49.05656" lon="6.93312">
        <ele>252.5</ele>
        <time>2013-04-24T09:41:27Z</time>
      </trkpt>
      <trkpt lat="49.0566" lon="6.93319">
        <ele>252.5</ele>
        <time>2013-04-24T09:41:32Z</time>
      </trkpt>
      <trkpt lat="49.05664" lon="6.93326">
        <ele>253.2</ele>
        <time>2013-04-24T09:41:37Z</time>
      </trkpt>
      <trkpt lat="49.05668" lon="6.93332">
        <ele>252.6</ele>
        <time>2013-04-24T09:41:42Z</time>
      </trkpt>
      <trkpt lat="49.05672" lon="6.93339">
        <ele>252.9</ele>
        <time>2013-04-24T09:41:47Z</time>
      </trkpt>
      <trkpt lat="49.05676" lon="6.93345">
        <ele>252.4</ele>
        <time>2013-04-24T09:41:52Z</time>
      </trkpt>
      <trkpt lat="49.0568" lon="6.93352">
        <ele>252.5</ele>
        <time>2013-04-24T09:41:57Z</time>
      </trkpt>
      <trkpt lat="49.05685" lon="6.93359">
        <ele>252.4</ele>
        <time>2013-04-24T09:42:02Z</time>
      </trkpt>
      <trkpt lat="49.05689" lon="6.93366">
        <ele>252.4</ele>
        <time>2013-04-24T09:42:07Z</time>
      </trkpt>
      <trkpt lat="49.05693" lon="6.93372">
        <ele>251.9</ele>
        <time>2013-04-24T09:42:12Z</time>
      </trkpt>
      <trkpt lat="49.05696" lon="6.93379">
        <ele>251.7</ele>
        <time>2013-04-24T09:42:17Z</time>
      </trkpt>
      <trkpt lat="49.057" lon="6.93386">
        <ele>251.8</ele>
        <time>2013-04-24T09:42:22Z</time>
      </trkpt>
      <trkpt lat="49.05701" lon="6.93387">
        <ele>251.6</ele>
        <time>2013-04-24T09:42:23Z</time>
      </trkpt>
      <trkpt lat="49.05708" lon="6.934">
        <ele>249.8</ele>
        <time>2013-04-24T09:42:32Z</time>
      </trkpt>
      <trkpt lat="49.05712" lon="6.93406">
        <ele>250.4</ele>
        <time>2013-04-24T09:42:37Z</time>
      </trkpt>
      <trkpt lat="49.05716" lon="6.93413">
        <ele>250.1</ele>
        <time>2013-04-24T09:42:42Z</time>
      </trkpt>
      <trkpt lat="49.0572" lon="6.93419">
        <ele>249.8</ele>
        <time>2013-04-24T09:42:47Z</time>
      </trkpt>
      <trkpt lat="49.05723" lon="6.93425">
        <ele>248.6</ele>
        <time>2013-04-24T09:42:52Z</time>
      </trkpt>
      <trkpt lat="49.05726" lon="6.9343">
        <ele>248.4</ele>
        <time>2013-04-24T09:42:57Z</time>
      </trkpt>
      <trkpt lat="49.0573" lon="6.93436">
        <ele>248.6</ele>
        <time>2013-04-24T09:43:02Z</time>
      </trkpt>
      <trkpt lat="49.05733" lon="6.93443">
        <ele>248.4</ele>
        <time>2013-04-24T09:43:07Z</time>
      </trkpt>
      <trkpt lat="49.05737" lon="6.93449">
        <ele>247.1</ele>
        <time>2013-04-24T09:43:12Z</time>
      </trkpt>
      <trkpt lat="49.05742" lon="6.93456">
        <ele>247.5</ele>
        <time>2013-04-24T09:43:17Z</time>
      </trkpt>
      <trkpt lat="49.05746" lon="6.93464">
        <ele>246.2</ele>
        <time>2013-04-24T09:43:22Z</time>
      </trkpt>
      <trkpt lat="49.05751" lon="6.93472">
        <ele>245.2</ele>
        <time>2013-04-24T09:43:27Z</time>
      </trkpt>
      <trkpt lat="49.05752" lon="6.93473">
        <ele>245.4</ele>
        <time>2013-04-24T09:43:28Z</time>
      </trkpt>
      <trkpt lat="49.0576" lon="6.93488">
        <ele>245.5</ele>
        <time>2013-04-24T09:43:37Z</time>
      </trkpt>
      <trkpt lat="49.05765" lon="6.93495">
        <ele>244.7</ele>
        <time>2013-04-24T09:43:42Z</time>
      </trkpt>
      <trkpt lat="49.0577" lon="6.93501">
        <ele>244.5</ele>
        <time>2013-04-24T09:43:47Z</time>
      </trkpt>
      <trkpt lat="49.05774" lon="6.93509">
        <ele>244.5</ele>
        <time>2013-04-24T09:43:52Z</time>
      </trkpt>
      <trkpt lat="49.05778" lon="6.93515">
        <ele>244.1</ele>
        <time>2013-04-24T09:43:57Z</time>
      </trkpt>
      <trkpt lat="49.05782" lon="6.93522">
        <ele>243.1</ele>
        <time>2013-04-24T09:44:02Z</time>
      </trkpt>
      <trkpt lat="49.05786" lon="6.9353">
        <ele>242.2</ele>
        <time>2013-04-24T09:44:07Z</time>
      </trkpt>
      <trkpt lat="49.0579" lon="6.93538">
        <ele>242</ele>
        <time>2013-04-24T09:44:12Z</time>
      </trkpt>
      <trkpt lat="49.05794" lon="6.93545">
        <ele>241.8</ele>
        <time>2013-04-24T09:44:17Z</time>
      </trkpt>
      <trkpt lat="49.05797" lon="6.93551">
        <ele>241.5</ele>
        <time>2013-04-24T09:44:22Z</time>
      </trkpt>
      <trkpt lat="49.058" lon="6.93556">
        <ele>242.3</ele>
        <time>2013-04-24T09:44:27Z</time>
      </trkpt>
      <trkpt lat="49.05804" lon="6.93562">
        <ele>241.2</ele>
        <time>2013-04-24T09:44:32Z</time>
      </trkpt>
      <trkpt lat="49.05805" lon="6.93564">
        <ele>241.1</ele>
        <time>2013-04-24T09:44:33Z</time>
      </trkpt>
      <trkpt lat="49.05812" lon="6.93577">
        <ele>240.1</ele>
        <time>2013-04-24T09:44:42Z</time>
      </trkpt>
      <trkpt lat="49.05817" lon="6.93585">
        <ele>239.9</ele>
        <time>2013-04-24T09:44:47Z</time>
      </trkpt>
      <trkpt lat="49.05822" lon="6.93593">
        <ele>239.8</ele>
        <time>2013-04-24T09:44:52Z</time>
      </trkpt>
      <trkpt lat="49.05826" lon="6.93601">
        <ele>239.5</ele>
        <time>2013-04-24T09:44:57Z</time>
      </trkpt>
      <trkpt lat="49.0583" lon="6.93608">
        <ele>240.4</ele>
        <time>2013-04-24T09:45:02Z</time>
      </trkpt>
      <trkpt lat="49.05835" lon="6.93615">
        <ele>239.3</ele>
        <time>2013-04-24T09:45:07Z</time>
      </trkpt>
      <trkpt lat="49.0584" lon="6.93621">
        <ele>240.1</ele>
        <time>2013-04-24T09:45:12Z</time>
      </trkpt>
      <trkpt lat="49.05845" lon="6.93626">
        <ele>240.1</ele>
        <time>2013-04-24T09:45:17Z</time>
      </trkpt>
      <trkpt lat="49.0585" lon="6.93633">
        <ele>239.6</ele>
        <time>2013-04-24T09:45:22Z</time>
      </trkpt>
      <trkpt lat="49.05853" lon="6.9364">
        <ele>240.1</ele>
        <time>2013-04-24T09:45:27Z</time>
      </trkpt>
      <trkpt lat="49.05857" lon="6.93647">
        <ele>239.9</ele>
        <time>2013-04-24T09:45:32Z</time>
      </trkpt>
      <trkpt lat="49.05861" lon="6.93654">
        <ele>239.9</ele>
        <time>2013-04-24T09:45:37Z</time>
      </trkpt>
      <trkpt lat="49.05861" lon="6.93656">
        <ele>239.9</ele>
        <time>2013-04-24T09:45:38Z</time>
      </trkpt>
      <trkpt lat="49.05866" lon="6.9367">
        <ele>240.4</ele>
        <time>2013-04-24T09:45:47Z</time>
      </trkpt>
      <trkpt lat="49.05863" lon="6.93676">
        <ele>240.6</ele>
        <time>2013-04-24T09:45:52Z</time>
      </trkpt>
      <trkpt lat="49.05861" lon="6.93682">
        <ele>240.3</ele>
        <time>2013-04-24T09:45:57Z</time>
      </trkpt>
      <trkpt lat="49.05857" lon="6.93687">
        <ele>240</ele>
        <time>2013-04-24T09:46:02Z</time>
      </trkpt>
      <trkpt lat="49.05854" lon="6.93691">
        <ele>239.6</ele>
        <time>2013-04-24T09:46:07Z</time>
      </trkpt>
      <trkpt lat="49.05852" lon="6.93695">
        <ele>240.1</ele>
        <time>2013-04-24T09:46:12Z</time>
      </trkpt>
      <trkpt lat="49.05851" lon="6.93697">
        <ele>239.8</ele>
        <time>2013-04-24T09:46:17Z</time>
      </trkpt>
      <trkpt lat="49.05849" lon="6.93701">
        <ele>240</ele>
        <time>2013-04-24T09:46:22Z</time>
      </trkpt>
      <trkpt lat="49.05848" lon="6.93703">
        <ele>240.2</ele>
        <time>2013-04-24T09:46:27Z</time>
      </trkpt>
      <trkpt lat="49.05846" lon="6.93706">
        <ele>240</ele>
        <time>2013-04-24T09:46:32Z</time>
      </trkpt>
      <trkpt lat="49.05844" lon="6.9371">
        <ele>240</ele>
        <time>2013-04-24T09:46:37Z</time>
      </trkpt>
      <trkpt lat="49.05843" lon="6.93713">
        <ele>240</ele>
        <time>2013-04-24T09:46:42Z</time>
      </trkpt>
      <trkpt lat="49.05842" lon="6.93713">
        <ele>240.1</ele>
        <time>2013-04-24T09:46:43Z</time>
      </trkpt>
      <trkpt lat="49.05843" lon="6.93715">
        <ele>240.3</ele>
        <time>2013-04-24T09:46:52Z</time>
      </trkpt>
      <trkpt lat="49.05843" lon="6.93715">
        <ele>240.8</ele>
        <time>2013-04-24T09:46:57Z</time>
      </trkpt>
      <trkpt lat="49.05845" lon="6.93715">
        <ele>241</ele>
        <time>2013-04-24T09:47:02Z</time>
      </trkpt>
      <trkpt lat="49.05846" lon="6.93714">
        <ele>240.5</ele>
        <time>2013-04-24T09:47:07Z</time>
      </trkpt>
      <trkpt lat="49.05847" lon="6.93714">
        <ele>240.2</ele>
        <time>2013-04-24T09:47:12Z</time>
      </trkpt>
      <trkpt lat="49.05848" lon="6.93713">
        <ele>240.2</ele>
        <time>2013-04-24T09:47:17Z</time>
      </trkpt>
      <trkpt lat="49.05849" lon="6.93713">
        <ele>240.3</ele>
        <time>2013-04-24T09:47:18Z</time>
      </trkpt>
      <trkpt lat="49.05849" lon="6.93712">
        <ele>240.3</ele>
        <time>2013-04-24T09:47:19Z</time>
      </trkpt>
      <trkpt lat="49.05849" lon="6.93712">
        <ele>240.3</ele>
        <time>2013-04-24T09:47:19Z</time>
      </trkpt>
      <trkpt lat="49.0585" lon="6.93711">
        <ele>240.4</ele>
        <time>2013-04-24T09:47:24Z</time>
      </trkpt>
    </trkseg>
  </trk>
</gpx>